[[{"header":{"parameterUnit":"m.s-1","parameterCategory":1,"la1":30.6,"la2":29.2853,"lo1":-89.7004,"lo2":-87.6739,"dy":0.0162,"dx":0.0183,"nx":112,"ny":82,"refTime":"2023-02-27T06:00:00:Z","depth":0,"parameterNumber":2,"parameterNumberName":"U-component_of_WINDS"},"data":[0.0,0.0,0.0,0.0,0.0,0.0,0.0,0.0,0.0,0.0,0.0,0.0,0.0,0.0,0.0,0.0,0.0,0.0,0.0,0.0,0.0,0.0,0.0,0.0,0.0,0.0,0.0,0.0,0.0,0.0,0.0,0.0,0.0,0.0,0.0,0.0,0.0,0.0,0.0,0.0,0.0,0.0,0.0,0.0,0.0,0.0,0.0,0.0,0.0,0.0,0.0,0.0,0.0,0.0,0.0,0.0,0.0,0.0,0.0,0.0,0.0,0.0,0.0,0.0,0.0,0.0,0.0,0.0,0.0,0.0,0.0,0.0,0.0,0.0,0.0,0.0,0.0,0.0,0.0,0.0,0.0,0.0,0.0,0.0,0.0,0.0,0.0,0.0,0.0,0.0,0.0,-2.4578,-2.7292,-2.8535,-2.7857,-2.5485,-2.3201,-2.1321,0.0,0.0,0.0,0.0,0.0,0.0,0.0,0.0,0.0,0.0,0.0,0.0,0.0,0.0,0.0,0.0,0.0,0.0,0.0,0.0,0.0,0.0,0.0,0.0,0.0,0.0,0.0,0.0,0.0,0.0,0.0,0.0,0.0,0.0,0.0,0.0,0.0,0.0,0.0,0.0,0.0,0.0,0.0,0.0,0.0,0.0,0.0,0.0,0.0,0.0,0.0,0.0,0.0,0.0,0.0,0.0,0.0,0.0,0.0,0.0,0.0,0.0,0.0,0.0,0.0,0.0,0.0,0.0,0.0,0.0,0.0,0.0,0.0,0.0,0.0,0.0,0.0,0.0,0.0,0.0,0.0,0.0,0.0,0.0,0.0,0.0,0.0,0.0,0.0,0.0,0.0,0.0,0.0,0.0,0.0,0.0,0.0,0.0,0.0,0.0,0.0,0.0,0.0,0.0,-2.1406,-2.7154,-2.791,-2.8213,-2.8738,-2.5512,-2.308,-2.2255,0.0,0.0,0.0,0.0,0.0,0.0,0.0,0.0,0.0,0.0,0.0,0.0,0.0,0.0,0.0,0.0,0.0,0.0,0.0,0.0,0.0,0.0,0.0,0.0,0.0,0.0,0.0,0.0,0.0,0.0,0.0,0.0,0.0,0.0,0.0,0.0,0.0,0.0,0.0,0.0,0.0,0.0,0.0,0.0,0.0,0.0,0.0,0.0,0.0,0.0,0.0,0.0,0.0,0.0,0.0,0.0,0.0,0.0,0.0,0.0,0.0,0.0,0.0,0.0,0.0,0.0,0.0,0.0,0.0,0.0,0.0,0.0,0.0,0.0,0.0,0.0,0.0,0.0,0.0,0.0,0.0,0.0,0.0,0.0,0.0,0.0,0.0,0.0,0.0,0.0,0.0,0.0,0.0,0.0,0.0,0.0,0.0,0.0,0.0,0.0,0.0,0.0,0.0,-2.1575,-2.5018,-2.8446,-2.8943,-2.8915,-2.8531,-2.568,-2.3499,-2.2591,-1.8714,0.0,0.0,0.0,0.0,0.0,0.0,0.0,0.0,0.0,0.0,0.0,0.0,0.0,0.0,0.0,0.0,0.0,0.0,0.0,0.0,0.0,0.0,0.0,0.0,0.0,0.0,0.0,0.0,0.0,0.0,0.0,0.0,0.0,0.0,0.0,0.0,0.0,0.0,0.0,0.0,0.0,0.0,0.0,0.0,0.0,0.0,0.0,0.0,0.0,0.0,0.0,0.0,0.0,0.0,0.0,0.0,0.0,0.0,0.0,0.0,0.0,0.0,0.0,0.0,0.0,0.0,0.0,0.0,0.0,0.0,0.0,0.0,0.0,0.0,0.0,0.0,0.0,0.0,0.0,0.0,0.0,0.0,0.0,0.0,0.0,0.0,0.0,0.0,0.0,0.0,0.0,0.0,0.0,0.0,0.0,0.0,0.0,0.0,0.0,0.0,0.0,0.0,-2.5104,-2.7506,-2.9018,-2.9465,-2.9159,-2.7954,-2.5508,-2.3511,-2.2428,-1.8267,0.0,0.0,0.0,0.0,0.0,0.0,0.0,0.0,0.0,0.0,0.0,0.0,0.0,0.0,0.0,0.0,0.0,0.0,0.0,0.0,0.0,0.0,0.0,0.0,0.0,0.0,0.0,0.0,0.0,0.0,0.0,0.0,0.0,0.0,0.0,0.0,0.0,0.0,0.0,0.0,0.0,0.0,0.0,0.0,0.0,0.0,0.0,0.0,0.0,0.0,0.0,0.0,0.0,0.0,0.0,0.0,0.0,0.0,0.0,0.0,0.0,0.0,0.0,0.0,0.0,0.0,0.0,0.0,0.0,0.0,0.0,0.0,0.0,0.0,0.0,0.0,0.0,0.0,0.0,0.0,0.0,0.0,0.0,0.0,0.0,0.0,0.0,0.0,0.0,0.0,0.0,0.0,0.0,0.0,0.0,0.0,0.0,0.0,0.0,0.0,0.0,0.0,-2.4534,-2.6461,-2.896,-2.8613,-2.7937,-2.725,-2.4506,-2.2484,-2.1693,-1.7694,0.0,0.0,0.0,0.0,0.0,0.0,0.0,0.0,0.0,0.0,0.0,0.0,0.0,0.0,0.0,0.0,0.0,0.0,0.0,0.0,0.0,0.0,0.0,0.0,0.0,0.0,0.0,0.0,0.0,0.0,0.0,0.0,0.0,0.0,0.0,0.0,0.0,0.0,0.0,0.0,0.0,0.0,0.0,0.0,0.0,0.0,0.0,0.0,0.0,0.0,0.0,0.0,0.0,0.0,0.0,0.0,0.0,0.0,0.0,0.0,0.0,0.0,0.0,0.0,0.0,0.0,0.0,0.0,0.0,0.0,0.0,0.0,0.0,0.0,0.0,0.0,0.0,0.0,0.0,0.0,0.0,0.0,0.0,0.0,0.0,0.0,0.0,0.0,0.0,0.0,0.0,0.0,0.0,0.0,0.0,0.0,0.0,0.0,0.0,0.0,0.0,0.0,-2.6046,-2.8233,0.0,-2.937,-2.9026,-2.7964,-2.5408,-2.3448,-2.2444,0.0,0.0,0.0,0.0,0.0,0.0,0.0,0.0,0.0,0.0,0.0,0.0,0.0,0.0,0.0,0.0,0.0,0.0,0.0,0.0,0.0,0.0,0.0,0.0,0.0,0.0,0.0,0.0,0.0,0.0,0.0,0.0,0.0,0.0,0.0,0.0,0.0,0.0,0.0,0.0,0.0,0.0,0.0,0.0,0.0,0.0,0.0,0.0,0.0,0.0,0.0,0.0,0.0,0.0,0.0,0.0,0.0,0.0,0.0,0.0,0.0,0.0,0.0,0.0,0.0,0.0,0.0,0.0,0.0,0.0,0.0,0.0,0.0,0.0,0.0,0.0,0.0,0.0,0.0,0.0,0.0,0.0,0.0,0.0,0.0,0.0,0.0,0.0,0.0,0.0,0.0,0.0,0.0,0.0,0.0,0.0,0.0,0.0,0.0,0.0,0.0,0.0,-2.3854,-2.6648,-2.8564,0.0,-2.941,-2.9095,-2.7462,-2.531,-2.3523,-2.2204,0.0,0.0,0.0,0.0,0.0,0.0,0.0,0.0,0.0,0.0,0.0,0.0,0.0,0.0,0.0,0.0,0.0,0.0,0.0,0.0,0.0,0.0,0.0,0.0,0.0,0.0,0.0,0.0,0.0,0.0,0.0,0.0,0.0,0.0,0.0,0.0,0.0,0.0,0.0,0.0,0.0,0.0,0.0,0.0,0.0,0.0,0.0,0.0,0.0,0.0,0.0,0.0,0.0,0.0,0.0,0.0,0.0,0.0,0.0,0.0,0.0,0.0,0.0,0.0,0.0,0.0,0.0,0.0,0.0,0.0,0.0,0.0,0.0,0.0,0.0,0.0,0.0,0.0,0.0,0.0,0.0,0.0,0.0,0.0,0.0,0.0,0.0,0.0,0.0,0.0,0.0,0.0,0.0,0.0,0.0,0.0,0.0,0.0,0.0,0.0,0.0,0.0,-2.46,-2.58,-2.6885,-2.816,-2.8419,-2.7639,-2.5476,-2.3851,-2.231,0.0,0.0,0.0,0.0,0.0,0.0,0.0,0.0,0.0,0.0,0.0,0.0,0.0,0.0,0.0,0.0,0.0,0.0,0.0,0.0,0.0,0.0,0.0,0.0,0.0,0.0,0.0,0.0,0.0,0.0,0.0,0.0,0.0,0.0,0.0,0.0,0.0,0.0,0.0,0.0,0.0,0.0,0.0,0.0,0.0,0.0,0.0,0.0,0.0,0.0,0.0,0.0,0.0,0.0,0.0,0.0,0.0,0.0,0.0,0.0,0.0,0.0,0.0,0.0,0.0,0.0,0.0,0.0,0.0,0.0,0.0,0.0,0.0,0.0,0.0,0.0,0.0,0.0,0.0,0.0,0.0,0.0,0.0,0.0,0.0,0.0,0.0,0.0,0.0,0.0,0.0,0.0,0.0,0.0,0.0,0.0,0.0,0.0,0.0,0.0,0.0,0.0,0.0,-2.3289,-2.5615,-2.747,-2.8373,-2.8482,-2.8023,-2.6856,-2.4755,-2.2871,-2.1463,0.0,0.0,0.0,0.0,0.0,0.0,0.0,0.0,0.0,0.0,0.0,0.0,0.0,0.0,0.0,0.0,0.0,0.0,0.0,0.0,0.0,0.0,0.0,0.0,0.0,0.0,0.0,0.0,0.0,0.0,0.0,0.0,0.0,0.0,0.0,0.0,0.0,0.0,0.0,0.0,0.0,0.0,0.0,0.0,0.0,0.0,0.0,0.0,0.0,0.0,0.0,0.0,0.0,0.0,0.0,0.0,0.0,0.0,0.0,0.0,0.0,0.0,0.0,0.0,0.0,0.0,0.0,0.0,0.0,0.0,0.0,0.0,0.0,0.0,0.0,0.0,0.0,0.0,0.0,0.0,0.0,0.0,0.0,0.0,0.0,0.0,0.0,0.0,0.0,0.0,0.0,0.0,0.0,0.0,0.0,0.0,0.0,0.0,0.0,0.0,0.0,0.0,-2.3157,-2.5246,-2.6983,-2.8027,-2.7879,-2.733,-2.6345,-2.4385,-2.2518,-2.0791,0.0,0.0,0.0,0.0,0.0,0.0,0.0,0.0,0.0,0.0,0.0,0.0,0.0,0.0,0.0,0.0,0.0,0.0,0.0,0.0,0.0,0.0,0.0,0.0,0.0,0.0,0.0,0.0,0.0,0.0,0.0,0.0,0.0,0.0,0.0,0.0,0.0,0.0,0.0,0.0,0.0,0.0,0.0,0.0,0.0,0.0,0.0,0.0,0.0,0.0,0.0,0.0,0.0,0.0,0.0,0.0,0.0,0.0,0.0,0.0,0.0,0.0,0.0,0.0,0.0,0.0,0.0,0.0,0.0,0.0,0.0,0.0,0.0,0.0,0.0,0.0,0.0,0.0,0.0,0.0,0.0,0.0,0.0,0.0,0.0,0.0,0.0,0.0,0.0,0.0,0.0,0.0,0.0,0.0,0.0,0.0,0.0,0.0,0.0,0.0,0.0,0.0,-2.3806,-2.4869,-2.5946,-2.7357,-2.6878,-2.5934,-2.4597,-2.3313,-2.1627,-1.9346,0.0,0.0,0.0,0.0,0.0,0.0,0.0,0.0,0.0,0.0,0.0,0.0,0.0,0.0,0.0,0.0,0.0,0.0,0.0,0.0,0.0,0.0,0.0,0.0,0.0,0.0,0.0,0.0,0.0,0.0,0.0,0.0,0.0,0.0,0.0,0.0,0.0,0.0,0.0,0.0,0.0,0.0,0.0,0.0,0.0,0.0,0.0,0.0,0.0,0.0,0.0,0.0,0.0,0.0,0.0,0.0,0.0,0.0,0.0,0.0,-2.1299,0.0,0.0,0.0,0.0,0.0,0.0,0.0,0.0,0.0,0.0,0.0,0.0,0.0,0.0,0.0,0.0,0.0,0.0,0.0,0.0,0.0,0.0,0.0,0.0,0.0,0.0,0.0,0.0,0.0,0.0,0.0,0.0,0.0,0.0,0.0,0.0,0.0,0.0,0.0,0.0,0.0,-2.3806,-2.4869,-2.5728,-2.6669,-2.6616,-2.5903,-2.4493,-2.3282,-2.1792,-1.9833,-1.8896,0.0,0.0,0.0,0.0,0.0,0.0,0.0,0.0,0.0,0.0,0.0,0.0,0.0,0.0,0.0,0.0,0.0,0.0,0.0,0.0,0.0,0.0,0.0,0.0,0.0,0.0,0.0,0.0,0.0,0.0,0.0,0.0,0.0,0.0,0.0,0.0,0.0,0.0,0.0,0.0,0.0,0.0,0.0,0.0,0.0,0.0,0.0,0.0,0.0,0.0,0.0,0.0,0.0,0.0,0.0,0.0,0.0,0.0,0.0,0.0,-2.2983,0.0,0.0,0.0,0.0,0.0,0.0,0.0,0.0,0.0,0.0,0.0,0.0,0.0,0.0,0.0,0.0,0.0,0.0,0.0,0.0,0.0,0.0,0.0,0.0,0.0,0.0,0.0,0.0,0.0,0.0,0.0,0.0,0.0,0.0,0.0,0.0,0.0,0.0,0.0,0.0,-2.4019,-2.4898,-2.5556,-2.6287,-2.6064,-2.531,-2.3953,-2.2416,-2.09,-1.9324,-1.8313,0.0,0.0,0.0,0.0,0.0,0.0,0.0,0.0,0.0,0.0,0.0,0.0,0.0,0.0,0.0,0.0,0.0,0.0,0.0,0.0,0.0,0.0,0.0,0.0,0.0,0.0,0.0,0.0,0.0,0.0,0.0,0.0,0.0,0.0,0.0,0.0,0.0,0.0,0.0,0.0,0.0,0.0,0.0,0.0,0.0,0.0,0.0,0.0,0.0,0.0,0.0,0.0,0.0,-2.7899,-2.818,-2.7147,-2.8278,-2.8165,-2.705,-2.5905,-2.4764,-2.3734,-2.3528,0.0,0.0,0.0,0.0,0.0,0.0,0.0,0.0,0.0,0.0,0.0,0.0,0.0,0.0,0.0,0.0,0.0,0.0,0.0,0.0,0.0,0.0,0.0,0.0,-2.3695,-2.2981,-2.0973,0.0,0.0,0.0,0.0,0.0,0.0,0.0,0.0,0.0,0.0,0.0,-2.4368,-2.4978,-2.5435,-2.5963,-2.5434,-2.4596,-2.3463,-2.1597,-2.0017,-1.8791,-1.7814,-1.7083,0.0,0.0,0.0,0.0,0.0,0.0,0.0,0.0,0.0,0.0,0.0,0.0,0.0,0.0,0.0,0.0,0.0,0.0,0.0,0.0,0.0,0.0,0.0,0.0,0.0,0.0,0.0,0.0,0.0,0.0,0.0,0.0,-1.6395,-1.8316,0.0,0.0,0.0,0.0,0.0,0.0,0.0,0.0,0.0,0.0,0.0,0.0,0.0,-2.6833,-2.6825,-2.833,-2.8785,-2.8219,-2.9032,-2.94,-2.9203,-2.9415,-2.9346,-2.9188,-2.899,0.0,-2.5108,-2.512,0.0,0.0,0.0,0.0,0.0,0.0,0.0,0.0,0.0,0.0,0.0,0.0,0.0,0.0,0.0,0.0,0.0,0.0,0.0,0.0,0.0,0.0,-2.4421,-2.346,-2.3636,-2.3612,0.0,-2.092,-1.9665,-1.8913,-1.7789,0.0,0.0,0.0,0.0,0.0,0.0,0.0,-2.4783,-2.5489,-2.5678,-2.5263,-2.515,-2.4588,-2.3242,-2.1764,-2.0579,-1.9783,-1.847,-1.7209,-1.6081,-1.5061,0.0,0.0,0.0,0.0,0.0,0.0,0.0,0.0,0.0,0.0,0.0,0.0,0.0,0.0,0.0,0.0,0.0,0.0,0.0,0.0,0.0,0.0,0.0,0.0,0.0,0.0,0.0,0.0,0.0,-1.7522,-1.9996,-2.0879,-2.1347,-2.0938,0.0,0.0,0.0,0.0,0.0,0.0,0.0,0.0,0.0,-2.5712,-2.7618,-2.8536,-2.8158,-2.9445,-2.9718,-2.8993,-2.9693,-2.9755,-2.9271,-2.9554,-3.0026,-3.047,-3.028,-2.9148,-2.7405,-2.6682,-2.536,-2.3636,0.0,0.0,0.0,0.0,-2.2768,-2.3628,-2.4548,-2.4934,0.0,-2.5121,0.0,0.0,0.0,0.0,0.0,0.0,0.0,0.0,0.0,0.0,-2.5491,-2.3988,-2.4356,-2.4771,-2.3546,-2.2407,-2.1215,0.0,-1.9246,-1.8811,-1.8199,0.0,0.0,0.0,0.0,-2.2666,-2.5509,-2.5781,-2.5525,-2.4987,-2.4935,-2.4254,-2.258,-2.1195,-2.0025,-1.9217,-1.7936,-1.6811,-1.5945,-1.5154,-1.4609,0.0,0.0,0.0,0.0,0.0,0.0,0.0,0.0,0.0,0.0,0.0,0.0,0.0,0.0,0.0,0.0,0.0,0.0,0.0,0.0,0.0,0.0,0.0,0.0,0.0,0.0,0.0,0.0,-2.0482,-2.2672,-2.3554,-2.4009,-2.3509,0.0,0.0,0.0,0.0,0.0,0.0,-2.4436,-2.6286,-2.7433,-2.7501,-2.9174,-2.9924,-2.9609,-3.019,-3.0323,-2.9992,-3.0111,-2.989,-2.9408,-2.9797,-3.0383,-3.1041,-3.0724,-3.0124,-2.9176,-2.7845,-2.6425,-2.4984,-2.3688,-2.3095,-2.2938,-2.3603,-2.3929,-2.4226,-2.5735,-2.6151,-2.5975,-2.5586,-2.535,-2.4803,-2.2909,0.0,0.0,0.0,0.0,-2.4575,-2.4575,-2.5482,-2.6104,-2.4898,-2.5346,-2.5716,-2.4646,-2.3891,-2.2941,0.0,-2.0729,-2.0271,-1.9735,0.0,0.0,0.0,0.0,-2.2925,-2.5598,-2.5727,-2.5398,-2.487,-2.4489,-2.3609,-2.2023,-2.0569,-1.9465,-1.8838,-1.7457,-1.6374,-1.5769,-1.5014,-1.4405,-1.3863,0.0,0.0,0.0,0.0,0.0,0.0,0.0,0.0,0.0,0.0,0.0,0.0,0.0,0.0,0.0,0.0,0.0,0.0,0.0,0.0,0.0,0.0,0.0,0.0,0.0,0.0,0.0,0.0,0.0,-2.6537,-2.6936,0.0,0.0,0.0,0.0,-2.3514,-2.5236,-2.6679,-2.7368,-2.8695,-2.9689,-3.0287,-3.1004,-3.1719,-3.2317,-3.0997,-3.0877,-3.1933,-3.0513,-3.0083,-3.0513,-3.0541,-3.0622,-3.0622,-3.0582,-3.0306,-2.9673,-2.8277,-2.6557,-2.4834,-2.4718,-2.4993,-2.5357,-2.4906,-2.5069,-2.5494,-2.5624,-2.5322,-2.5159,-2.6666,-2.6502,-2.5441,-2.3913,-2.4054,0.0,0.0,-2.4767,-2.5532,-2.5532,-2.5586,-2.5791,-2.6282,-2.642,-2.6282,-2.5636,-2.5164,-2.4503,0.0,-2.1014,-1.98,-2.0607,0.0,-1.973,-2.1053,-2.248,-2.3629,-2.4246,-2.5062,-2.5398,-2.487,-2.3603,-2.2536,-2.1925,-2.0311,-1.9333,-1.9267,-1.761,-1.6166,-1.5271,-1.4307,-1.3462,-1.2891,-1.1741,0.0,0.0,0.0,0.0,0.0,0.0,0.0,0.0,0.0,0.0,0.0,0.0,0.0,0.0,0.0,0.0,0.0,0.0,0.0,0.0,0.0,0.0,0.0,0.0,0.0,0.0,0.0,0.0,-2.8908,-2.9844,0.0,-2.721,-2.8103,-2.8256,-2.6903,-2.8662,-2.9859,-3.0095,-3.0976,-3.1569,-3.1794,-3.2452,-3.2901,-3.314,-3.2046,-3.1376,-3.1264,-3.012,-2.9323,-2.8996,-2.9359,-2.9889,-3.0472,-3.0223,-3.0125,-3.0097,-2.855,-2.7233,-2.6078,-2.5507,-2.5222,-2.5159,-2.5686,-2.6,-2.6251,-2.6967,-2.6854,-2.644,-2.6678,-2.6046,-2.5148,-2.4917,-2.4381,-2.4086,-2.4866,-2.4414,-2.399,-2.4985,-2.4707,-2.4225,-2.4085,-2.4307,-2.44,-2.3874,-2.3883,-2.3876,-2.3397,-2.1919,-2.0594,-2.0282,-1.9683,-1.9879,-2.1458,-2.1966,-2.2521,-2.3606,-2.4047,-2.3945,-2.3103,-2.2567,-2.1731,-2.0335,-1.9694,-1.8824,-1.7658,-1.6973,-1.586,-1.4314,-1.3882,-1.3294,-1.2458,-1.2259,-1.1384,0.0,0.0,0.0,0.0,0.0,0.0,0.0,0.0,0.0,0.0,0.0,0.0,0.0,0.0,0.0,0.0,0.0,0.0,0.0,0.0,0.0,0.0,0.0,0.0,0.0,0.0,-3.0419,-3.0774,-3.189,-3.1857,-2.9959,-3.0882,-3.1127,-2.9984,-3.1322,-3.2287,-3.2512,-3.2946,-3.3275,-3.3514,-3.3724,-3.3948,-3.4173,-3.25,-3.1541,-3.1405,-2.9905,-2.9036,-2.8687,-2.9051,-2.9579,-3.019,-2.9923,-2.9834,-2.9813,-2.8616,-2.7685,-2.6932,-2.6219,-2.5787,-2.5737,-2.6465,-2.6854,-2.7118,-2.7846,-2.7871,-2.7469,-2.6917,-2.6113,-2.5473,-2.6,-2.5196,-2.4279,-2.533,-2.4496,-2.3397,-2.429,-2.3963,-2.3436,-2.3039,-2.3206,-2.3425,-2.3028,-2.2988,-2.2999,-2.2999,-2.2232,-2.1364,-2.0712,-2.0118,-2.0177,-2.1497,-2.1665,-2.1977,-2.311,-2.3261,-2.2883,-2.2056,-2.1548,-2.0722,-1.9428,-1.9178,-1.8378,-1.6715,-1.6404,-1.5564,-1.3745,-1.3492,-1.3107,-1.2452,-1.2335,-1.1624,-1.0272,0.0,0.0,0.0,0.0,0.0,0.0,0.0,0.0,0.0,0.0,0.0,0.0,0.0,0.0,0.0,0.0,0.0,0.0,0.0,0.0,0.0,0.0,0.0,-2.7543,-2.9371,-3.1216,-3.2309,-3.3085,-3.3256,-3.2656,-3.3192,-3.3255,-3.2631,-3.3185,-3.3844,-3.4472,-3.4502,-3.4816,-3.5489,-3.4846,-3.4831,-3.5424,-3.2354,-3.1378,-3.2522,-3.0125,-2.9252,-2.9792,-2.9792,-2.9792,-2.9792,-2.9792,-2.9478,-2.8913,-2.8348,-2.7795,-2.7268,-2.6703,-2.6816,-2.7293,-2.7318,-2.7682,-2.816,-2.8109,-2.8109,-2.8009,-2.7444,-2.6904,-2.6647,-2.7118,-2.6541,-2.563,-2.5777,-2.5015,-2.4002,-2.3597,-2.3452,-2.3441,-2.3441,-2.3441,-2.3441,-2.3441,-2.2627,-2.1952,-2.1952,-2.1952,-2.1952,-2.1952,-2.1231,-2.0713,-2.1152,-2.1582,0.0,-2.2569,-2.2668,-2.2477,-2.1998,-2.0711,-1.9776,-1.9316,-1.8883,-1.8027,-1.6655,-1.6062,-1.5154,-1.3688,-1.3098,-1.2815,-1.2835,-1.1747,-1.1335,-1.1508,0.0,0.0,0.0,0.0,0.0,0.0,0.0,0.0,0.0,0.0,0.0,0.0,0.0,0.0,0.0,0.0,0.0,0.0,0.0,0.0,0.0,0.0,-3.1542,-3.116,-3.3404,-3.5199,-3.5537,-3.5713,-3.5547,-3.4867,-3.4879,-3.4688,-3.398,-3.4562,-3.504,-3.522,-3.522,-3.531,-3.5489,-3.4582,-3.4205,-3.4394,-3.2205,-3.1288,-3.1609,-3.0189,-2.9641,-2.9792,-2.9792,-2.9792,-2.9792,-2.9792,-2.9704,-2.9478,-2.8511,-2.8247,-2.8386,-2.7431,-2.7155,-2.7381,-2.8185,-2.8837,-2.9214,-2.8398,-2.8109,-2.7946,-2.6992,-2.6854,-2.708,-2.7231,-2.626,-2.5329,-2.6111,-2.4238,-2.2193,-2.2727,-2.2147,-2.1385,-2.1385,-2.1385,-2.1385,-2.1385,-2.1155,-2.1011,-2.1011,-2.1011,-2.1011,-2.1011,-2.0789,-2.0605,-2.0732,-2.0858,0.0,-2.1171,-2.1201,-2.1151,-2.1019,-2.0617,-2.0088,-1.9342,-1.9177,-1.8118,-1.5762,-1.5468,-1.4544,-1.2739,-1.2526,-1.2632,-1.3073,-1.2024,-1.1676,0.0,0.0,0.0,0.0,0.0,0.0,0.0,0.0,0.0,0.0,0.0,0.0,0.0,0.0,0.0,0.0,0.0,0.0,0.0,0.0,0.0,0.0,-3.0994,-3.3675,-3.4249,-3.5744,-3.6636,-3.634,-3.6263,-3.6093,-3.5663,-3.5552,-3.534,-3.494,-3.528,-3.5294,-3.4905,-3.4839,-3.4691,-3.4274,-3.3754,-3.338,-3.338,-3.196,-3.118,-3.118,-3.0279,-2.9792,-2.9792,-2.9792,-2.9792,-2.9792,-2.9792,-2.9792,-2.9729,-2.8825,-2.8637,0.0,0.0,0.0,0.0,0.0,-2.9503,-2.9666,-2.8762,-2.8448,-2.8273,-2.7155,-2.718,-2.7548,-2.7102,-2.6153,-2.5296,-2.5464,-2.3699,-2.1801,-2.2231,-2.177,-2.1113,-2.1113,-2.1113,-2.1113,-2.1113,-2.0977,-2.084,-2.084,-2.0693,0.0,-2.0566,-2.0566,-2.0625,-2.082,-2.0684,-2.0635,-2.082,-2.0518,-2.0225,-2.0049,-1.9863,-1.9482,-1.8809,-1.8916,0.0,0.0,0.0,-1.4587,-1.2748,-1.2685,0.0,0.0,0.0,-1.2543,-1.2859,0.0,0.0,0.0,-1.1544,-1.1375,0.0,0.0,0.0,0.0,0.0,0.0,0.0,0.0,0.0,0.0,0.0,0.0,0.0,0.0,0.0,0.0,-3.2497,-3.4926,-3.609,-3.6309,-3.6249,-3.5895,-3.58,-3.5701,-3.561,-3.5567,-3.5477,-3.5365,-3.5359,-3.492,-3.3891,0.0,0.0,0.0,0.0,-3.2464,-3.2464,-3.1536,-3.1044,-3.1044,-3.0216,-2.9792,-2.9792,-2.9792,-2.9792,-2.9792,-2.9792,-2.9792,-2.9741,-2.9164,-2.8888,-2.8699,-2.7293,-2.767,-2.9089,-2.9603,-2.9792,-2.9704,-2.9126,0.0,0.0,-2.7708,-2.7745,-2.7964,-2.6896,-2.6138,-2.5477,-2.4509,-2.3429,-2.2432,-2.2051,-2.1924,-2.1885,-2.1885,-2.1885,-2.1885,-2.1885,-2.1543,-2.123,-2.123,-2.0869,-2.0566,-2.0566,-2.0566,-2.0703,-2.1103,-2.082,-2.0693,-2.1045,-2.0439,-1.9844,-1.9473,0.0,0.0,-1.8262,-1.8525,-1.8085,-1.6727,-1.6058,-1.494,-1.3272,-1.3213,-1.3347,-1.3552,-1.3559,-1.3661,-1.3694,-1.3728,-1.4008,-1.4516,-1.3182,-1.2701,0.0,0.0,0.0,0.0,0.0,0.0,0.0,0.0,0.0,0.0,0.0,0.0,0.0,0.0,0.0,-2.8069,-3.1069,-3.3245,-3.3368,-3.3937,-3.5135,-3.7144,-3.681,-3.6395,-3.6414,-3.5872,-3.5165,-3.438,-3.4312,-3.3891,-3.289,-3.289,-3.282,-3.2593,-3.1888,-3.1462,-3.1462,-3.0558,-3.0075,-3.0075,0.0,0.0,-2.9792,-2.9792,-2.9792,-2.9792,-2.9792,-2.9792,-2.9741,-2.9164,-2.8662,-2.8285,-2.8398,-2.8938,-2.9641,-2.9754,-2.9792,-2.9704,-2.9126,-2.8925,-2.8825,-2.816,-2.8323,-2.8537,-2.7488,-2.6736,0.0,-2.4987,-2.3673,-2.249,-2.2412,-2.2139,-2.1885,-2.1885,-2.1885,-2.1885,-2.1885,-2.1543,-2.123,-2.123,-2.0869,-2.0566,-2.0566,-2.0566,-2.0596,-2.0684,-2.0625,-2.0469,-2.0205,-2.0322,-2.041,-2.0332,-2.0244,-2.0019,-1.958,-1.9316,-1.8605,-1.7162,-1.579,-1.4425,-1.3286,-1.3213,-1.3347,-1.3552,-1.3559,-1.3761,-1.4001,-1.4235,-1.4409,-1.4516,-1.4189,-1.435,0.0,0.0,0.0,0.0,0.0,0.0,0.0,0.0,0.0,0.0,0.0,-2.2089,0.0,0.0,-2.7815,-2.8995,-3.0703,-3.1844,-3.1812,-3.1645,-3.243,-3.4916,-3.4845,-3.4596,-3.4596,-3.4269,-3.3837,-3.331,-3.331,-3.289,-3.196,-3.1888,-3.1683,-3.1206,-3.0771,-3.0482,-3.0482,-2.9998,-2.9792,-2.9792,-2.9792,-2.9792,-2.9792,-2.9792,-2.9792,-2.9792,-2.9792,-2.9792,-2.9767,-2.9478,-2.9202,-2.8976,-2.9252,-2.9365,-2.9402,-2.9691,-2.9792,-2.9754,-2.9465,-2.9365,-2.9264,-2.8699,-2.8486,-2.8227,-2.6834,-2.6057,-2.5378,-2.4296,-2.3391,-2.2822,-2.2822,-2.2676,-2.251,-2.251,-2.251,-2.251,-2.251,-2.2012,-2.1621,-2.1836,-2.1348,-2.0898,-2.0898,-2.0898,-2.082,-2.0596,-2.0566,-2.0488,-2.0273,-2.0244,-2.0244,-2.0244,-1.9853,-1.96,-1.96,-1.8953,-1.799,-1.6807,-1.5462,-1.4345,-1.342,-1.3427,-1.3567,-1.3854,-1.3868,-1.3941,-1.4088,-1.4382,-1.4596,-1.4743,-1.489,-1.5117,0.0,0.0,0.0,0.0,0.0,0.0,0.0,0.0,-1.8659,-2.0486,-2.191,-2.334,-2.4902,-2.664,-2.8171,-2.9314,-2.9879,-3.0162,-3.0162,-2.9326,-2.939,-3.1209,-3.1906,-3.228,-3.228,-3.2508,-3.2522,-3.2321,-3.2321,-3.1888,-3.097,-3.0895,-3.0558,-2.9792,-2.9792,-2.9792,-2.9792,-2.9792,-2.9792,-2.9792,-2.9792,-2.9792,-2.9792,-2.9792,-2.9792,-2.9792,-2.9792,-2.9792,-2.9792,-2.9792,-2.9792,-2.9792,-2.9792,-2.9503,-2.9151,-2.9616,-2.9792,-2.9792,-2.9792,-2.9792,-2.9716,-2.9252,-2.8648,-2.7853,-2.6221,-2.5315,-2.4542,-2.3377,-2.3135,-2.3135,-2.3135,-2.3135,-2.3135,-2.3135,-2.3135,-2.3135,-2.3135,-2.2539,-2.2109,-2.2441,-2.1885,-2.1357,-2.1357,-2.1289,-2.1084,-2.0635,-2.0566,-2.0537,-2.0449,-2.0205,-2.001,-1.9922,-1.9297,-1.8994,-1.9268,-1.861,-1.765,-1.664,-1.587,-1.5031,-1.4036,-1.4042,-1.4,-1.4082,-1.4142,-1.4168,-1.4175,-1.4522,-1.4816,-1.5057,-1.5344,-1.5478,-0.5966,-0.8514,0.0,-1.2339,-1.3836,-1.5669,0.0,0.0,-2.008,-2.1426,-2.189,-2.2342,-2.3368,-2.4169,-2.5025,-2.6017,-2.6599,-2.7012,-2.7012,-2.6919,-2.6919,-2.7174,-2.958,-3.1156,-3.1156,-3.2037,-3.2249,-3.1389,-3.1389,-3.0983,-2.9998,-2.9934,-2.9934,-2.9792,-2.9792,-2.9792,-2.9792,-2.9792,-2.9792,-2.9792,-2.9792,-2.9792,-2.9792,-2.9792,-2.9792,-2.9792,-2.9792,-2.9792,-2.9792,-2.9792,-2.9792,-2.9792,-2.9792,-2.9754,-2.9704,-2.9767,-2.9792,-2.9792,-2.9792,-2.9792,-2.9779,-2.9716,-2.8978,-2.7924,-2.6733,-2.567,-2.4542,-2.3377,-2.3135,-2.3135,-2.3135,-2.3135,-2.3135,-2.3135,-2.3135,-2.3135,-2.3135,-2.2773,-2.2461,-2.25,-2.2139,-2.1816,-2.1816,-2.1494,-2.1084,-2.0635,-2.0566,-2.042,-2.0039,-2.0283,-2.0342,-1.9951,-1.9824,-1.9639,-1.9316,-1.9555,-1.9222,-1.8136,-1.831,-1.7548,-1.5561,-1.5486,-1.5018,-1.4088,-1.4342,-1.4476,-1.4476,-1.503,-1.5317,-1.5357,-1.5645,-1.5785,-0.6695,0.0,0.0,0.0,-1.4951,-1.6776,-1.873,-1.9535,-2.0249,-2.1343,-2.1664,-2.2008,-2.3013,-2.3649,-2.4186,0.0,-2.5279,-2.5273,-2.4555,-2.3872,-2.3181,-2.2553,-2.4735,-2.6875,-2.827,-2.9322,-2.9834,-2.9397,-2.9999,-3.0216,-2.9792,-2.9792,-2.9792,-2.9792,-2.9792,-2.9792,-2.9792,-2.9792,-2.9792,-2.9792,-2.9792,-2.9792,-2.9792,-2.9792,-2.9792,-2.9792,-2.9792,-2.9792,-2.9792,-2.9792,-2.9792,-2.9792,-2.9792,-2.9792,-2.9792,-2.9792,-2.9792,-2.9792,-2.9792,-2.9365,-2.8767,-2.8767,-2.7602,-2.6108,-2.563,-2.4713,-2.3714,-2.3222,-2.3135,-2.3135,-2.3135,-2.3135,-2.3135,-2.3135,-2.3135,-2.3135,-2.3135,-2.2812,-2.2588,-2.2832,-2.2539,-2.2168,-2.1924,-2.1738,-2.1377,-2.0674,-2.0566,-2.0498,-2.0312,-2.0449,-2.04,-1.9961,-2.0137,-2.0117,-1.9687,-1.9497,-1.9182,-1.8713,-1.8302,-1.7577,-1.6683,-1.6601,-1.6208,-1.5319,-1.5369,-1.5193,-1.4776,-1.519,-1.5398,-1.5404,-1.5698,-1.5832,-0.7789,0.0,0.0,-1.4103,-1.5945,-1.767,-1.9136,-1.9568,-1.9867,-2.0585,-2.052,-2.0596,-2.1569,-2.2036,0.0,-2.2978,-2.3403,-2.3332,-2.2193,-2.1621,-2.0935,-2.0133,-2.1523,-2.3355,-2.5378,-2.6871,-2.7763,-2.8096,-2.8858,-2.9456,-2.9792,-2.9792,-2.9792,-2.9792,-2.9792,-2.9792,-2.9792,-2.9792,-2.9792,-2.9792,-2.9792,-2.9792,-2.9792,-2.9792,-2.9792,-2.9792,-2.9792,-2.9792,-2.9792,-2.9792,-2.9792,-2.9792,-2.9792,-2.9792,-2.9792,-2.9456,-2.9365,-2.9365,-2.9365,-2.8609,-2.7683,-2.7683,-2.6356,-2.4787,-2.4787,-2.3963,-2.3135,-2.3135,-2.3135,-2.3135,-2.3135,-2.3135,-2.3135,-2.3135,-2.3135,-2.3135,-2.3135,-2.29,-2.2773,-2.3076,-2.2803,-2.2412,-2.2119,-2.1865,-2.1484,-2.085,-2.0644,-2.0566,-2.0566,-2.0566,-2.0449,-2.0127,-2.0381,-2.0439,-2.0117,-1.9665,-1.9441,-1.9441,-1.8709,-1.8112,-1.7972,-1.789,-1.7399,-1.6309,-1.6406,-1.5972,-1.5084,-1.5378,-1.5518,-1.5524,-1.5732,-1.5832,0.0,0.0,-1.2725,-1.5065,-1.6746,-1.8248,-1.957,-1.9418,-1.907,-1.9088,-1.8212,-1.7613,-1.8071,-1.8154,-1.8397,-1.9117,-2.0289,-2.0685,-1.9711,-2.0567,-2.1302,-2.1239,-2.1311,-2.1845,0.0,-2.5231,-2.6964,-2.8004,-2.8096,-2.8597,-2.9714,-2.9792,-2.9792,-2.9792,-2.9792,-2.9792,-2.9792,-2.9792,-2.9792,-2.9792,-2.9792,-2.9792,-2.9792,-2.9792,-2.9792,-2.9792,-2.9792,-2.9792,-2.9792,-2.9792,-2.9792,-2.9792,-2.9792,-2.9792,-2.9702,-2.8597,-2.8176,-2.8176,-2.8176,-2.7452,-2.6554,-2.6554,-2.5797,-2.4787,-2.4787,-2.3963,-2.3135,-2.3135,-2.3135,-2.3135,-2.3135,-2.3135,-2.3135,-2.3135,-2.3135,-2.3135,-2.3135,-2.3125,-2.3125,-2.3135,-2.2803,-2.251,-2.249,-2.1807,-2.125,-2.1221,-2.084,-2.0566,-2.0566,-2.0566,-2.0557,-2.0547,-2.0557,-2.0557,-2.0547,-2.0557,-2.0557,-2.0557,-2.0489,-2.0182,-1.9589,-1.9516,-1.8691,-1.6828,-1.7056,-1.661,-1.5384,-1.5671,-1.5812,-1.5812,-1.5825,-1.5832,0.0,0.0,-1.4577,-1.662,-1.8027,-1.8936,-1.9235,-1.9182,-1.8798,-1.8069,-1.648,-1.5284,-1.536,-1.4986,-1.5077,-1.5974,-1.814,-1.9632,-1.9296,-2.0419,-2.1025,-2.0223,-2.1444,0.0,0.0,0.0,0.0,-2.6953,-2.7683,-2.8597,-2.9714,-2.9792,-2.9792,-2.9792,-2.9792,-2.9792,-2.9792,-2.9792,-2.9792,-2.9792,-2.9792,-2.9792,-2.9792,-2.9792,-2.9792,-2.9792,-2.9792,-2.9792,-2.9792,-2.9792,-2.9792,-2.9792,-2.9792,-2.9365,-2.8597,-2.8255,-2.7186,-2.6036,-2.6789,-2.6295,-2.5378,-2.5378,-2.4628,-2.3637,-2.3637,-2.3387,-2.3135,-2.3135,-2.3135,-2.3135,-2.3135,-2.3135,-2.3135,-2.3135,-2.3135,-2.3135,-2.3135,-2.3135,-2.3057,-2.2783,-2.2832,-2.2656,-2.1807,-2.166,-2.1465,-2.0879,-2.0664,-2.0566,-2.0566,-2.0566,-2.0566,-2.0566,-2.0566,-2.0566,-2.0566,-2.0566,-2.0566,-2.0566,-2.0566,-2.0469,-2.028,-2.0486,-2.0154,-1.8905,-1.8498,-1.7825,-1.6879,-1.6149,-1.5832,-1.5832,-1.5832,-1.5832,0.0,-1.4819,-1.6069,-1.7935,-1.8535,-1.8751,-1.8943,-1.8043,-1.705,-1.6242,-1.4393,-1.285,-1.2763,-1.2763,-1.2983,-1.3885,-1.6391,-1.8286,-1.8531,-1.9731,-2.064,-2.0766,-2.2114,0.0,0.0,0.0,0.0,-2.6964,-2.7683,-2.8597,-2.9714,-2.9792,-2.9792,-2.9792,-2.9792,-2.9792,-2.9792,-2.9792,-2.9792,-2.9792,-2.9792,-2.9792,-2.9792,-2.9792,-2.9792,-2.9792,-2.9792,-2.9792,-2.9792,-2.9792,-2.9792,-2.9792,-2.9365,-2.8767,-2.8004,-2.7186,-2.6025,-2.4872,-2.563,-2.5136,-2.4211,-2.4211,-2.3714,-2.3135,-2.3135,-2.2775,-2.2589,-2.296,-2.2501,-2.2041,-2.2872,-2.2775,-2.2589,-2.296,-2.3135,-2.3135,-2.3135,-2.3135,-2.3057,-2.2793,-2.2715,-2.2432,-2.1611,-2.1435,-2.1221,-2.0654,-2.0566,-2.0566,-2.0566,-2.0566,-2.0566,-2.0566,-2.0566,-2.0566,-2.0566,-2.0566,-2.0635,-2.0791,-2.0801,-2.0947,-2.125,-2.1543,-2.1284,-2.044,-2.0,-1.9085,-1.7692,-1.6857,-1.6197,-1.5832,-1.5832,-1.5832,-1.463,-1.5729,-1.7037,-1.8774,-1.8369,-1.7805,-1.8583,-1.6269,-1.3955,-1.3851,-1.1908,-1.035,0.0,0.0,-1.211,-1.285,-1.505,-1.6918,-1.7721,-1.8828,-2.0495,0.0,0.0,0.0,0.0,0.0,0.0,-2.8096,0.0,-2.8597,-2.9714,-2.9792,-2.9792,-2.9792,-2.9792,-2.9792,-2.9792,-2.9792,-2.9792,-2.9792,-2.9792,-2.9792,-2.9792,-2.9792,-2.9792,-2.9792,-2.9792,-2.9792,-2.9792,-2.9714,-2.9702,-2.9624,-2.8438,-2.8004,-2.7671,-2.5525,-2.4787,-2.4702,-2.4702,-2.3963,-2.3135,-2.3115,-2.3125,-2.3057,-2.3047,-2.2217,-2.1569,-2.2589,-2.123,-2.0034,-2.2403,-2.2129,-2.1569,-2.2775,-2.3135,-2.3135,-2.3135,-2.3135,-2.3135,-2.3105,-2.2357,-2.1792,-2.1885,-2.1172,-2.0596,-2.0596,-2.0576,-2.0566,-2.0566,-2.0566,-2.0566,-2.0566,-2.0566,-2.0576,-2.0596,-2.0596,-2.0791,-2.124,-2.1269,-2.1631,-2.2451,-2.25,-2.215,-2.1257,-2.1194,-2.0034,-1.7692,-1.7598,-1.6943,-1.5832,-1.5832,-1.5832,-1.5382,-1.6174,-1.6827,-1.788,-1.7172,-1.6088,-1.5272,-1.4293,-1.3179,-1.1531,-1.0113,-0.935,0.0,0.0,0.0,-1.2903,-1.4984,0.0,-2.0402,-2.203,0.0,0.0,0.0,-2.707,-2.7602,-2.845,0.0,0.0,-2.8597,-2.8597,-2.9714,-2.9792,-2.9792,-2.9792,-2.9792,-2.9792,-2.9792,-2.9792,-2.9792,-2.9792,-2.9792,-2.9792,-2.9792,-2.9792,-2.9792,-2.9792,-2.9792,-2.9792,-2.9702,-2.8858,-2.8518,-2.8438,-2.729,-2.6378,-2.5525,-2.5041,-2.4296,-2.3551,-2.3551,-2.3299,-2.3086,-2.2773,-2.2881,-2.295,-2.2031,-2.1569,-2.1203,-2.0584,-1.9951,-1.9852,-2.1391,-2.1569,-2.1569,-2.2775,-2.3135,-2.3135,-2.3135,-2.3135,-2.3047,-2.2734,-2.1438,-2.082,-2.1709,-2.0655,-1.9966,-2.0895,-2.0781,-2.0566,-2.0566,-2.0566,-2.0566,-2.0566,-2.0566,-2.0703,-2.1035,-2.1064,-2.125,-2.1689,-2.1719,-2.1816,-2.2031,-2.2344,-2.2017,-2.086,-2.0248,-1.9222,-1.7692,-1.6763,-1.6109,-1.5832,-1.5832,-1.5832,-1.5576,-1.6139,-1.6321,-1.6854,-1.5723,-1.4313,-1.3629,-1.237,-1.0909,-0.9771,-0.9045,0.0,0.0,0.0,0.0,0.0,0.0,0.0,-2.0864,-2.208,-2.3369,0.0,-2.6284,0.0,-2.8016,-2.8688,-2.9275,0.0,-2.9197,-2.9118,-2.9792,-2.9792,-2.9792,-2.9792,-2.9792,-2.9792,-2.9792,-2.9792,-2.9792,-2.9792,-2.9792,-2.9792,-2.9792,-2.9792,-2.9792,-2.9792,0.0,-2.9534,-2.9015,-2.8347,-2.7844,-2.7279,-2.6213,-2.5378,-2.4702,-2.4211,-2.3627,-2.3105,-2.293,-2.2988,-2.3096,-2.2861,-2.2949,-2.296,-2.2306,-2.1747,-2.1293,-2.1123,-2.0314,-1.9861,-2.1667,-2.1658,-2.1569,-2.2775,-2.3135,-2.3135,-2.3135,-2.3135,-2.2959,-2.2353,-2.1062,-2.018,-2.0536,-1.9997,-1.9652,-2.0151,-2.0572,-2.0791,-2.0596,-2.0566,-2.0401,-1.9923,-2.0323,-2.0575,-2.0519,-2.0899,-2.1504,-2.2119,-2.2158,-2.2246,-2.2432,-2.2122,-2.1609,-2.0968,-2.0022,-1.8956,-1.7692,-1.6943,-1.6386,-1.5832,-1.5832,-1.5832,-1.5138,-1.5233,-1.5083,-1.5431,-1.3925,-1.2305,-1.2577,-1.045,-0.844,-0.8589,0.0,0.0,-0.9083,0.0,-1.2532,-1.4037,0.0,-1.7184,-2.0342,-2.0879,-2.2019,-2.4661,-2.5041,-2.5837,-2.7829,-2.8048,-2.8573,-2.9601,-2.9741,-2.9792,-2.9792,-2.9792,-2.9792,-2.9792,-2.9792,-2.9792,-2.9792,-2.9792,-2.9792,-2.9792,-2.9792,-2.9792,-2.9792,-2.9792,-2.9702,-2.9534,-2.9534,-2.8937,-2.7855,-2.7752,-2.707,-2.6052,-2.502,-2.4501,-2.4374,-2.3444,-2.3135,-2.3086,-2.2725,-2.2832,-2.3125,-2.3076,-2.3096,-2.3047,-2.295,-2.212,-2.148,-2.2403,-2.1132,-2.0034,-2.2315,-2.212,-2.1569,-2.2775,-2.3135,-2.3135,-2.3135,-2.3096,-2.2842,-2.2109,-2.1071,-2.0051,-1.9487,-1.9607,-1.9643,-1.9423,-2.0448,-2.1094,-2.0703,-2.0605,-2.0245,-1.9274,-2.0001,-2.0437,-1.9916,-2.0633,-2.1424,-2.2273,-2.215,-2.2226,-2.258,-2.1578,-2.1025,-2.0845,-1.9761,-1.868,-1.7412,-1.7412,-1.6857,-1.5832,-1.5832,-1.5832,-1.2714,-1.2418,-1.1781,-1.2139,-1.1016,-0.9779,-0.9228,-0.8613,0.0,0.0,0.0,-0.9352,-1.1149,0.0,0.0,-1.5072,0.0,0.0,0.0,0.0,0.0,0.0,0.0,0.0,0.0,0.0,0.0,0.0,0.0,-2.9792,-2.9792,-2.9792,-2.9792,-2.9792,-2.9792,-2.9792,-2.9792,-2.9792,-2.9792,-2.9792,-2.9792,-2.9792,-2.9792,-2.9792,-2.9275,-2.8426,-2.8426,0.0,-2.6719,-2.5786,-2.5059,-2.4522,-2.3745,-2.3169,-2.2903,-2.3095,-2.3135,-2.3125,-2.3057,-2.3076,-2.3086,-2.2734,-2.2852,-2.295,-2.1933,-2.148,-2.1114,-2.0305,-1.9861,-1.9852,-2.1203,-2.148,-2.1569,-2.2775,-2.3135,-2.3135,-2.3135,-2.2861,-2.2578,-2.2432,-2.1418,-2.0824,-2.1317,-2.0866,-2.0732,-2.1297,-2.1244,-2.1201,-2.1123,-2.0791,-2.0566,-2.0323,-2.0489,-2.081,-2.1443,-2.0717,-2.0619,-2.1423,-2.0569,-2.0065,-2.0124,-1.9943,-1.9314,-1.8319,-1.8141,-1.7404,-1.6109,-1.6109,-1.6015,-1.5832,-1.5832,-1.5832,-1.1237,-1.0964,-1.0417,-1.0616,-0.9526,-0.8412,-0.8048,0.0,0.0,0.0,0.0,-1.0874,-1.1983,0.0,0.0,0.0,0.0,0.0,0.0,0.0,0.0,0.0,0.0,0.0,0.0,0.0,0.0,0.0,0.0,-2.9792,-2.9792,-2.9792,-2.9792,-2.9792,-2.9792,-2.9792,-2.9792,-2.9792,-2.9534,-2.8937,-2.9534,-2.9456,-2.8937,-2.8937,-2.8609,-2.8084,-2.7522,0.0,-2.5546,-2.5041,-2.4333,-2.3594,-2.3221,-2.2881,-2.2568,-2.2988,-2.2998,-2.2842,-2.3066,-2.2998,-2.2783,-2.2578,-2.2793,-2.296,-2.2403,-2.2217,-2.2129,-2.1587,-2.1409,-2.1498,-2.2129,-2.2217,-2.2403,-2.296,-2.3135,-2.3135,-2.3135,-2.2812,-2.2451,-2.2227,-2.1203,-2.0546,-2.0669,-2.0762,-2.0848,-2.0969,-2.0827,-2.062,-2.0404,-1.9531,-1.9116,-1.9678,-2.0447,-2.0671,-2.0093,-2.0233,-2.0323,-2.0361,-1.9852,-1.9497,-1.9497,-1.8864,-1.8319,-1.7684,-1.7037,-1.6386,-1.5832,-1.5832,-1.5832,-1.5832,-1.5832,-1.5832,-0.9639,-0.9483,-0.9143,-0.9143,-0.833,-0.7488,-0.7525,-0.7903,0.0,0.0,0.0,-1.2266,-1.2638,0.0,0.0,0.0,0.0,0.0,0.0,0.0,0.0,0.0,0.0,0.0,0.0,0.0,0.0,0.0,0.0,0.0,-2.9792,-2.9792,-2.9792,-2.9792,-2.9792,-2.9792,-2.9792,-2.9792,-2.9197,-2.8084,-2.9028,-2.8858,-2.7775,-2.7775,-2.7602,-2.7348,-2.6461,0.0,-2.4457,-2.4457,-2.3826,-2.3018,-2.3105,-2.2881,-2.2568,-2.2988,-2.293,-2.2695,-2.3027,-2.292,-2.2627,-2.2539,-2.2734,-2.2998,-2.2998,-2.3066,-2.3135,-2.3135,-2.3135,-2.3135,-2.3135,-2.3135,-2.3135,-2.3135,-2.3135,-2.3135,-2.3135,-2.2812,-2.2441,-2.2197,-2.1362,-2.0578,-2.0274,-2.0893,-2.1121,-2.0361,-2.0277,-2.0102,-1.9466,-1.8235,-1.782,-1.8716,-1.9832,-1.9916,-1.8584,-1.94,-1.9635,-1.9115,-1.8856,-1.8672,-1.8672,-1.777,-1.7318,-1.7318,-1.6298,-1.5832,-1.5832,-1.5832,-1.5832,-1.5832,-1.5832,-1.5832,-0.6961,-0.6929,-0.6809,-0.6809,-0.6609,-0.6447,-0.6579,0.0,0.0,0.0,-1.1348,-1.265,-1.373,-1.3778,0.0,0.0,0.0,0.0,0.0,0.0,0.0,0.0,0.0,0.0,0.0,0.0,0.0,0.0,0.0,0.0,-2.9792,-2.9792,-2.9792,-2.9792,-2.9792,-2.9792,-2.9792,-2.9792,-2.9197,-2.8096,-2.8176,-2.7695,-2.6637,-2.6637,-2.6047,-2.5115,-2.5041,0.0,0.0,-2.3222,-2.2997,-2.2607,-2.2988,-2.2881,-2.2568,-2.2988,-2.3115,-2.3086,-2.3125,-2.3115,-2.3018,-2.2637,-2.2539,-2.2568,-2.2568,-2.2832,-2.3135,-2.3135,-2.3135,-2.3135,-2.3135,-2.3135,-2.3135,-2.3135,-2.3135,-2.3135,-2.3135,-2.2812,-2.2617,-2.2959,-2.2619,-2.2262,-2.2223,-2.2591,-2.2255,-2.0492,-2.0427,-2.0164,-1.8673,-1.8255,-1.8145,-1.823,-1.8145,-1.8337,-1.8764,-1.7948,-1.7493,-1.7848,-1.6756,-1.6103,-1.6103,-1.6015,-1.6015,-1.6015,-1.5825,-1.5832,-1.5832,-1.5832,-1.5832,-1.5832,-1.5832,-1.5832,-0.66,-0.6549,-0.6471,-0.6471,-0.6366,-0.6532,-0.7307,0.0,0.0,0.0,-1.2506,-1.3555,-1.3997,-1.3988,-1.3948,0.0,0.0,0.0,0.0,0.0,0.0,0.0,0.0,0.0,0.0,0.0,0.0,0.0,0.0,0.0,-2.9792,-2.9792,-2.9456,-2.8767,-2.8767,-2.845,-2.7799,-2.7799,-2.7209,-2.6108,-2.6778,-2.6543,-2.5462,-2.5462,-2.521,-2.4787,-2.4039,0.0,0.0,-2.3135,-2.3047,-2.291,-2.3076,-2.2881,-2.2568,-2.2988,-2.2978,-2.2793,-2.3057,-2.2969,-2.2734,-2.2568,-2.251,-2.251,-2.251,-2.2812,-2.3135,-2.3135,-2.3135,-2.3135,-2.3135,-2.3135,-2.3135,-2.3135,-2.3135,-2.3135,-2.3135,-2.2812,-2.2568,-2.2734,-2.2627,-2.2244,-2.1521,-2.1761,-2.1469,-1.9989,-1.9074,-1.8354,-1.7775,-1.6898,-1.6337,-1.6526,-1.765,-1.8201,-1.7768,-1.7538,-1.7172,-1.656,-1.6109,-1.5832,-1.5832,-1.5832,-1.5832,-1.5832,-1.5832,-1.5832,-1.5832,-1.5832,-1.5832,-1.5832,-1.5832,-1.5832,-0.7349,-0.709,-0.6957,-0.7269,-0.7028,-0.7076,0.0,0.0,0.0,-1.1916,-1.3161,-1.4088,-1.4088,-1.4088,-1.4088,0.0,0.0,0.0,0.0,0.0,0.0,0.0,0.0,0.0,0.0,0.0,0.0,0.0,0.0,0.0,-2.9792,-2.9792,-2.9287,-2.8176,-2.7763,-2.729,-2.6472,-2.6801,-2.6202,-2.4787,-2.5975,-2.5724,-2.4296,-2.4296,-2.4296,-2.4211,-2.3464,0.0,0.0,-2.3135,-2.3135,-2.3135,-2.3135,-2.2881,-2.2568,-2.2988,-2.2871,-2.2578,-2.2988,-2.2939,-2.2676,-2.2549,-2.2598,-2.2676,-2.2549,-2.2812,-2.3135,-2.3135,-2.3135,-2.3135,-2.3135,-2.3135,-2.3135,-2.3135,-2.3135,-2.3135,-2.3135,-2.291,-2.2705,-2.2705,-2.2418,-2.1881,-2.0974,-2.0846,-2.0352,-1.8977,-1.7941,-1.7189,-1.6737,-1.5819,-1.5297,-1.5504,-1.696,-1.7584,-1.6677,-1.6993,-1.6763,-1.5832,-1.5832,-1.5832,-1.5832,-1.5832,-1.5832,-1.5832,-1.5832,-1.5832,-1.5832,-1.5832,-1.5832,-1.5832,-1.5832,-1.5832,-0.8997,-0.8191,-0.8012,-0.8998,-0.8542,-0.8181,0.0,0.0,0.0,-1.2222,-1.3288,-1.4088,-1.4088,-1.4088,-1.4088,-1.4088,0.0,0.0,0.0,0.0,0.0,0.0,0.0,0.0,0.0,0.0,0.0,0.0,0.0,0.0,-2.9792,-2.9792,-2.9287,-2.8176,-2.7046,-2.6472,-2.6483,-2.7522,-2.7012,-2.4787,-2.5975,-2.5305,-2.3135,-2.3135,-2.3135,-2.3135,0.0,0.0,0.0,-2.3135,-2.3135,-2.3135,-2.3135,-2.2881,-2.2568,-2.2988,-2.2871,-2.2578,-2.2988,-2.3135,-2.3066,-2.2646,-2.2793,-2.3057,-2.2637,-2.2812,-2.3135,-2.3135,-2.3135,-2.3135,-2.3135,-2.3135,-2.3135,-2.3135,-2.3135,-2.3135,-2.3135,-2.3135,-2.3135,-2.3135,-2.212,-2.1284,-2.1293,-2.0305,-1.9001,-1.7477,-1.746,-1.7108,-1.5616,-1.5645,-1.5818,-1.5825,-1.5825,-1.5825,-1.5825,-1.5825,-1.5825,-1.5832,-1.5832,-1.5832,-1.5832,-1.5832,-1.5832,-1.5832,-1.5832,-1.5832,-1.5832,-1.5832,-1.5832,-1.5832,-1.5832,-1.5832,-0.9797,-0.9384,-0.9213,-0.9519,-0.9364,-0.9438,-1.0856,0.0,0.0,-1.3309,-1.3822,-1.4328,-1.5054,-1.5213,-1.5306,-1.5802,0.0,0.0,0.0,0.0,0.0,0.0,0.0,0.0,0.0,0.0,0.0,0.0,0.0,0.0,-2.9792,-2.9028,-2.8426,-2.8084,-2.7763,-2.7197,-2.6472,-2.6801,-2.6295,-2.4787,-2.521,-2.4553,-2.3135,-2.3135,-2.3135,0.0,0.0,0.0,0.0,-2.3135,-2.3135,-2.3135,-2.3135,-2.3057,-2.292,-2.2764,-2.2812,-2.292,-2.2764,-2.29,-2.3115,-2.2988,-2.3027,-2.3115,-2.2978,-2.3027,-2.3135,-2.3135,-2.3135,-2.3135,-2.3135,-2.3135,-2.3135,-2.3135,-2.3135,-2.3135,-2.3135,-2.2492,-2.1845,-2.1845,-2.0944,-1.9761,-1.8956,-1.8503,-1.7825,-1.6427,-1.6317,-1.6264,-1.5705,-1.5772,-1.5832,-1.5832,-1.5832,-1.5832,-1.5832,-1.5832,-1.5832,-1.5832,-1.5832,-1.5832,-1.5832,-1.5832,-1.5832,-1.5832,-1.5832,-1.5832,-1.5832,-1.5832,-1.5832,-1.5832,-1.5832,-1.5832,0.0,-1.0947,-1.1065,-1.1015,-1.0706,0.0,0.0,0.0,0.0,0.0,0.0,-1.5061,-1.6116,-1.6273,-1.6448,-1.6861,0.0,0.0,0.0,0.0,0.0,0.0,0.0,0.0,0.0,0.0,0.0,0.0,0.0,0.0,-2.9792,-2.9118,-2.8767,-2.8767,-2.7936,-2.7209,-2.6483,-2.6883,-2.6295,-2.4787,-2.5619,-2.5041,-2.3135,-2.3551,-2.3551,0.0,0.0,0.0,0.0,-2.3135,-2.3135,-2.3125,-2.2959,-2.2803,-2.2637,-2.2373,-2.2441,-2.2646,-2.2549,-2.2783,-2.3135,-2.3135,-2.3135,-2.3135,-2.3135,-2.3135,-2.3135,-2.3135,-2.3135,-2.3135,-2.3135,-2.3135,-2.3135,-2.3135,-2.3135,-2.3135,-2.3135,-2.212,-2.1293,-2.1293,-1.9943,-1.8596,-1.787,-1.7318,-1.6669,-1.592,-1.5832,-1.5832,-1.5832,-1.5832,-1.5832,-1.5832,-1.5832,-1.5832,-1.5832,-1.5832,-1.5832,-1.5832,-1.5832,-1.5832,-1.5832,-1.5832,-1.5832,-1.5832,-1.5832,-1.5832,-1.5832,-1.5832,-1.5832,-1.5832,-1.5832,-1.5832,0.0,0.0,0.0,0.0,0.0,0.0,0.0,0.0,0.0,0.0,0.0,0.0,0.0,0.0,0.0,0.0,0.0,0.0,0.0,0.0,0.0,0.0,0.0,0.0,0.0,0.0,0.0,0.0,0.0,0.0,-2.9792,-2.9792,-2.9792,-2.9792,-2.7799,-2.673,-2.673,-2.7695,-2.7186,-2.5031,-2.7093,-2.6438,-2.3387,-2.4457,-2.4276,0.0,0.0,0.0,-2.3057,-2.3086,-2.3076,-2.3018,-2.2685,-2.2305,-2.1934,-2.1934,-2.1953,-2.2031,-2.2383,-2.2783,-2.3135,-2.3135,-2.3135,-2.3135,-2.3135,-2.3135,-2.3135,-2.3135,-2.3135,-2.3135,-2.3135,-2.3135,-2.3135,-2.3135,-2.3135,-2.3047,-2.296,-2.2031,-2.1114,-2.1025,-1.9131,-1.7598,-1.7598,-1.6574,-1.5832,-1.5832,-1.5832,-1.5832,-1.5832,-1.5832,-1.5832,-1.5832,-1.5832,-1.5832,-1.5832,-1.5832,-1.5832,-1.5832,-1.5832,-1.5832,-1.5832,-1.5832,-1.5832,-1.5832,-1.5832,-1.5832,-1.5832,-1.5832,-1.5832,-1.5832,-1.5852,-1.5865,0.0,0.0,0.0,0.0,0.0,0.0,0.0,0.0,0.0,0.0,0.0,0.0,0.0,0.0,0.0,0.0,0.0,0.0,0.0,0.0,0.0,0.0,0.0,0.0,0.0,0.0,0.0,0.0,0.0,-2.9792,-2.9792,-2.9792,-2.9792,-2.9792,-2.93,-2.904,-2.904,-2.9287,-2.8688,-2.7348,-2.7844,-2.7279,-2.5724,-2.5975,-2.5268,0.0,0.0,-2.3284,-2.2207,-2.2529,-2.2471,-2.2236,-2.2783,-2.2734,-2.2363,-2.2363,-2.2568,-2.2812,-2.2588,-2.2783,-2.3135,-2.3135,-2.3135,-2.3135,-2.3135,-2.3135,-2.3135,-2.3135,-2.3135,-2.3135,-2.3135,-2.3135,-2.3135,-2.3135,-2.3135,-2.2862,-2.1933,-2.0755,-1.9679,-1.8772,-1.7311,-1.6292,-1.6292,-1.6015,-1.5832,-1.5832,-1.5832,-1.5832,-1.5832,-1.5832,-1.5832,-1.5832,-1.5832,-1.5832,-1.5832,-1.5832,-1.5832,-1.5832,-1.5832,-1.5832,-1.5832,-1.5832,-1.5832,-1.5832,-1.5832,-1.5832,-1.5832,-1.5832,-1.5832,-1.5832,-1.6059,-1.6166,0.0,0.0,0.0,0.0,0.0,0.0,0.0,0.0,0.0,0.0,0.0,0.0,0.0,0.0,0.0,0.0,0.0,0.0,0.0,0.0,0.0,0.0,0.0,0.0,0.0,0.0,0.0,0.0,0.0,-3.0279,-2.9792,-2.9792,-2.9792,-2.9792,-2.9792,-2.9792,-2.9792,-2.9792,-2.9197,-2.8096,-2.8597,-2.8028,-2.6483,-2.6483,-2.5628,0.0,0.0,-2.3237,-2.1987,-2.3074,-2.331,-2.299,-2.3743,-2.3992,-2.4022,-2.3813,-2.4022,-2.4284,-2.4127,-2.4263,-2.4638,-2.4638,-2.4638,-2.4563,-2.4049,-2.3877,-2.38,-2.3222,-2.3135,-2.3135,-2.3135,-2.3135,-2.3135,-2.3135,-2.3135,-2.295,-2.2306,-2.1212,-1.9943,-1.8772,-1.749,-1.648,-1.592,-1.5832,-1.5832,-1.5832,-1.5832,-1.5832,-1.5832,-1.5832,-1.5832,-1.5832,-1.5832,-1.5832,-1.5832,-1.5832,-1.5832,-1.5832,-1.5832,-1.5832,-1.5832,-1.5832,-1.5832,-1.5832,-1.5832,-1.5832,-1.5832,-1.5965,-1.6032,-1.6039,-1.6333,-1.6473,0.0,0.0,0.0,0.0,0.0,0.0,0.0,0.0,0.0,0.0,0.0,0.0,0.0,0.0,0.0,0.0,0.0,0.0,0.0,0.0,0.0,0.0,0.0,0.0,0.0,0.0,0.0,0.0,0.0,-3.062,-2.9856,-2.9792,-2.9792,-2.9792,-2.9792,-2.9792,-2.9792,-2.9792,-2.9287,-2.8347,-2.9365,-2.8712,-2.6719,-2.6883,-2.5995,-2.4339,0.0,0.0,-2.2412,-2.4097,-2.4607,-2.4388,-2.5013,-2.543,-2.5768,-2.5521,-2.5577,-2.5925,-2.5925,-2.6206,-2.6483,-2.6483,-2.6483,-2.6307,-2.5126,-2.4787,-2.4542,-2.3377,-2.3135,-2.3135,-2.3135,-2.3135,-2.3135,-2.3135,-2.3135,-2.3047,-2.2862,-2.2031,-2.0935,-1.9761,-1.868,-1.7591,-1.6292,-1.6109,-1.6015,-1.5832,-1.5832,-1.5832,-1.5832,-1.5832,-1.5832,-1.5832,-1.5832,-1.5832,-1.5832,-1.5832,-1.5832,-1.5832,-1.5832,-1.5832,-1.5832,-1.5832,-1.5832,-1.5832,-1.5872,-1.5899,-1.5899,-1.6192,-1.6235,-1.6045,-1.6534,-1.6566,-2.0791,0.0,0.0,0.0,0.0,0.0,0.0,0.0,0.0,0.0,0.0,0.0,0.0,0.0,0.0,0.0,0.0,0.0,0.0,0.0,0.0,0.0,0.0,0.0,0.0,0.0,0.0,0.0,0.0,-2.9934,-2.9792,-2.9792,-2.9792,-2.9792,-2.9792,-2.9792,-2.9792,-2.9792,-2.9702,-2.9534,-2.9702,-2.9118,-2.7936,-2.887,-2.7675,-2.496,0.0,-2.5352,-2.4018,-2.467,-2.4971,-2.5127,-2.5957,-2.6035,-2.5858,-2.6206,-2.6386,-2.636,-2.636,-2.6416,-2.6483,-2.6483,-2.6483,-2.6307,-2.5126,-2.4787,-2.4542,-2.3377,-2.3135,-2.3135,-2.3135,-2.3135,-2.3135,-2.3135,-2.3135,-2.2862,-2.1756,-2.1382,-2.0935,-1.9761,-1.9314,-1.8864,-1.7591,-1.7412,-1.7037,-1.592,-1.5832,-1.5832,-1.5832,-1.5832,-1.5832,-1.5832,-1.5832,-1.5832,-1.5832,-1.5832,-1.5832,-1.5832,-1.5832,-1.5832,-1.5832,-1.5832,-1.5832,-1.5832,-1.6079,-1.6206,-1.6206,-1.6493,-1.6021,-1.4797,-1.6419,-1.5816,-2.081,-2.108,0.0,0.0,0.0,0.0,0.0,0.0,0.0,0.0,0.0,0.0,0.0,0.0,0.0,0.0,0.0,0.0,0.0,0.0,0.0,0.0,0.0,0.0,0.0,0.0,0.0,0.0,0.0,0.0,-2.9869,-2.9792,-2.9792,-2.9792,-2.9792,-2.9792,-2.9792,-2.9792,-2.9792,-2.9792,-2.9792,-2.9534,-2.9028,-2.8937,-2.747,-2.5182,0.0,-2.5643,-2.3689,-2.5797,-2.6564,-2.6551,-2.7423,-2.7885,-2.7956,-2.8207,-2.8303,-2.8303,-2.8303,-2.8303,-2.8211,-2.7533,-2.736,-2.7035,-2.5284,-2.4787,-2.4542,-2.3377,-2.3135,-2.3135,-2.3135,-2.3135,-2.3135,-2.3135,-2.3135,-2.296,-2.2394,-2.2306,-2.1943,-2.0666,-2.0494,-1.9869,-1.8056,-1.7692,-1.7225,-1.6015,-1.5832,-1.5832,-1.5832,-1.5832,-1.5832,-1.5832,-1.5832,-1.5832,-1.5832,-1.5832,-1.5832,-1.5832,-1.5832,-1.5832,-1.5832,-1.5197,-1.488,-1.488,-1.4447,-1.4176,-1.4176,-1.4424,-1.4235,-1.3615,-1.4594,-1.4389,-2.0781,-2.1227,0.0,0.0,0.0,0.0,0.0,0.0,0.0,0.0,0.0,0.0,0.0,0.0,0.0,0.0,0.0,0.0,0.0,0.0,0.0,0.0,0.0,0.0,0.0,0.0,0.0,0.0,0.0,0.0,-2.9869,-2.9792,-2.9792,-2.9792,-2.9792,-2.9792,-2.9792,-2.9792,-2.9792,-2.9792,-2.9792,-2.9624,-2.9365,-2.8767,-2.738,-2.5581,-2.6889,-2.6212,-2.4303,-2.7004,-2.7952,-2.7747,-2.8721,-2.9237,-2.9365,-2.9365,-2.9209,-2.904,-2.904,-2.904,-2.887,-2.8028,-2.7763,-2.7348,-2.5368,-2.4787,-2.4542,-2.3377,-2.3135,-2.3135,-2.3135,-2.3135,-2.3135,-2.3135,-2.3135,-2.3135,-2.3135,-2.3135,-2.2862,-2.1933,-2.1676,-2.0962,-1.8503,-1.8141,-1.7584,-1.6015,-1.5832,-1.5832,-1.5832,-1.5832,-1.5832,-1.5832,-1.5832,-1.5832,-1.5832,-1.5832,-1.5832,-1.5832,-1.5832,-1.5832,-1.5832,-1.4661,-1.4103,-1.4068,-1.2999,-1.2422,-1.2476,-1.28,-1.2694,-1.238,-1.2974,-1.294,-2.0693,-2.0929,0.0,0.0,0.0,0.0,0.0,0.0,0.0,0.0,0.0,0.0,0.0,0.0,0.0,0.0,0.0,0.0,0.0,0.0,0.0,0.0,0.0,0.0,0.0,0.0,0.0,0.0,0.0,0.0,-2.9792,-2.9792,-2.9792,-2.9792,-2.9792,-2.9792,-2.9792,-2.9792,-2.9792,-2.9792,-2.9792,-2.9275,-2.8255,-2.9197,-2.8451,-2.6498,-2.7533,-2.7889,-2.7741,-2.8011,-2.8086,-2.8207,-2.9303,-2.916,-2.8255,-2.8255,-2.7614,-2.673,-2.673,-2.673,-2.6719,-2.6648,-2.6637,-2.6389,-2.521,-2.4787,-2.4542,-2.3377,-2.3135,-2.3135,-2.3135,-2.3135,-2.3135,-2.3135,-2.3135,-2.3135,-2.3135,-2.3135,-2.3047,-2.296,-2.296,-2.2227,-1.977,-1.9405,-1.858,-1.6197,-1.5832,-1.5832,-1.5832,-1.5832,-1.5832,-1.5832,-1.5832,-1.5832,-1.5832,-1.5832,-1.5832,-1.5832,-1.5832,-1.5832,-1.5832,-1.458,-1.4019,-1.4063,-1.3095,-1.2698,-1.2805,-1.3133,-1.2596,-1.1302,-1.2611,-1.1864,-2.0684,-2.0984,0.0,0.0,0.0,0.0,0.0,0.0,0.0,0.0,0.0,0.0,0.0,0.0,0.0,0.0,0.0,0.0,0.0,0.0,0.0,0.0,0.0,0.0,0.0,0.0,0.0,0.0,0.0,0.0,-2.9792,-2.9792,-2.9792,-2.9792,-2.9792,-2.9792,-2.9792,-2.9792,-2.9792,-2.9792,-2.9792,-2.9534,-2.9197,-2.9624,-2.8468,-2.6094,-2.7268,-2.6949,-2.5757,-2.6395,-2.6813,-2.7128,-2.7545,-2.7464,-2.7128,-2.7128,-2.6883,-2.6483,-2.6483,-2.6483,-2.6389,-2.563,-2.5462,-2.521,-2.4049,-2.3714,-2.3627,-2.3222,-2.3135,-2.3135,-2.3135,-2.3135,-2.3135,-2.3135,-2.3135,-2.3135,-2.3135,-2.3135,-2.3135,-2.3135,-2.3135,-2.2589,-2.0935,-2.0666,-1.9753,-1.7311,-1.6943,-1.6669,-1.592,-1.5832,-1.5832,-1.5832,-1.5832,-1.5832,-1.5832,-1.5832,-1.5832,-1.5832,-1.5832,-1.5439,-1.4657,-1.3594,-1.2525,-1.1663,-1.0783,-1.0234,-1.0301,-1.0478,-1.0241,-0.9699,-1.0351,-0.9915,-2.0439,-2.0872,0.0,0.0,0.0,0.0,0.0,0.0,0.0,0.0,0.0,0.0,0.0,0.0,0.0,0.0,0.0,0.0,0.0,0.0,0.0,0.0,0.0,0.0,0.0,0.0,0.0,0.0,0.0,0.0,0.0,-2.9515,-2.9515,-2.9515,-2.9352,-2.934,-2.9515,-2.9352,-2.9264,-2.9264,-2.9108,-2.9282,-2.9792,-2.9443,-2.8162,-2.6279,-2.6601,-2.5814,-2.4524,-2.5092,-2.5734,-2.6225,-2.5743,-2.57,-2.5953,-2.581,-2.5594,-2.54,-2.54,-2.54,-2.5305,-2.4542,-2.4296,-2.4125,-2.3299,-2.3135,-2.3135,-2.3135,-2.3135,-2.3135,-2.3135,-2.3135,-2.3135,-2.3135,-2.3135,-2.3135,-2.3135,-2.3135,-2.3135,-2.3135,-2.3135,-2.2677,-2.148,-2.1293,-2.0486,-1.8048,-1.7692,-1.7225,-1.592,-1.5832,-1.5865,-1.5959,-1.5885,-1.5865,-1.5965,-1.5972,-1.5774,-1.5281,-1.5364,-1.4977,-1.4002,-1.2535,-1.1266,-1.0339,-0.9293,-0.8791,-0.8781,-0.8889,-0.894,-0.894,-0.894,-0.894,-1.9922,0.0,0.0,0.0,0.0,0.0,0.0,0.0,0.0,0.0,0.0,0.0,0.0,0.0,0.0,0.0,0.0,0.0,0.0,0.0,0.0,0.0,0.0,0.0,0.0,0.0,0.0,0.0,0.0,0.0,0.0,-2.8925,-2.8925,-2.8925,-2.8398,-2.8373,-2.8925,-2.8386,-2.8109,-2.8122,-2.7545,-2.8167,-2.9702,-2.8597,-2.781,-2.7198,-2.5675,-2.4993,-2.4959,-2.4467,-2.4847,-2.5596,-2.4084,-2.4061,-2.4724,-2.4366,-2.3757,-2.3135,-2.3135,-2.3135,-2.3135,-2.3135,-2.3135,-2.3135,-2.3135,-2.3135,-2.3135,-2.3135,-2.3135,-2.3135,-2.3135,-2.3047,-2.3057,-2.3135,-2.3135,-2.3135,-2.3135,-2.3047,-2.3047,-2.3047,-2.3047,-2.2677,-2.148,-2.1293,-2.0486,-1.8048,-1.7692,-1.7225,-1.592,-1.5832,-1.5945,-1.6239,-1.6012,-1.5959,-1.6253,-1.6273,-1.5673,-1.4173,-1.4412,-1.4441,-1.408,-1.1568,-1.0343,-1.0715,-0.9293,-0.8635,-0.8937,-0.894,-0.894,-0.894,-0.894,-0.894,-2.0459,0.0,0.0,0.0,0.0,0.0,0.0,0.0,0.0,0.0,0.0,0.0,0.0,0.0,0.0,0.0,0.0,0.0,0.0,0.0,0.0,0.0,0.0,0.0,0.0,0.0,0.0,0.0,0.0,0.0,0.0,-2.8348,-2.8348,-2.8348,-2.8185,-2.8373,-2.8925,-2.8386,-2.799,-2.7657,-2.71,-2.7268,-2.8053,-2.729,-2.6273,-2.5054,-2.4255,-2.3514,-2.2808,-2.2676,-2.2961,-2.3472,-2.3016,-2.2958,-2.3208,-2.3378,-2.3278,-2.3135,-2.3135,-2.3135,-2.3135,-2.3135,-2.3135,-2.3135,-2.3135,-2.3135,-2.3135,-2.3135,-2.3135,-2.3135,-2.3135,-2.2492,-2.2031,-2.2862,-2.3135,-2.3135,-2.3135,-2.2403,-2.1845,-2.1845,-2.1132,-2.0494,-2.0124,-2.0034,-1.9497,-1.7963,-1.7692,-1.7225,-1.592,-1.6012,-1.6179,-1.6259,-1.6373,-1.648,-1.6567,-1.5657,-1.4843,-1.4435,-1.2817,-1.1737,-1.1377,-1.0828,-1.008,-0.902,-0.888,-0.8794,-0.8777,-0.8886,-0.894,-0.894,-0.894,-0.894,0.0,0.0,0.0,0.0,0.0,0.0,0.0,0.0,0.0,0.0,0.0,0.0,0.0,0.0,0.0,0.0,0.0,0.0,0.0,0.0,0.0,0.0,0.0,0.0,0.0,0.0,0.0,0.0,0.0,0.0,0.0,-2.777,-2.777,-2.777,-2.757,-2.772,-2.8273,-2.772,-2.7307,-2.7102,-2.6127,-2.5768,-2.6016,-2.5574,-2.4832,-2.3893,-2.2969,-2.213,-2.1357,-2.1357,-2.1621,-2.2002,-2.2002,-2.2217,-2.2539,-2.2793,-2.2998,-2.3135,-2.3135,-2.3135,-2.3135,-2.3135,-2.3135,-2.3135,-2.3135,-2.3135,-2.3135,-2.3135,-2.3135,-2.296,-2.2492,-2.1845,-2.1569,-2.2775,-2.2413,-2.1765,-2.2306,-2.14,-2.0576,-2.0576,-2.0034,-1.9497,-1.9497,-1.9497,-1.9131,-1.787,-1.7225,-1.6662,-1.592,-1.6086,-1.6319,-1.6433,-1.66,-1.6754,-1.6874,-1.5534,-1.4493,-1.387,-1.2,-1.049,-0.968,-0.9765,-0.9499,-0.854,-0.874,-0.8832,-0.8801,-0.8893,-0.894,-0.894,-0.894,-0.894,0.0,0.0,0.0,0.0,0.0,0.0,0.0,0.0,0.0,0.0,0.0,0.0,0.0,0.0,0.0,0.0,0.0,0.0,0.0,0.0,0.0,0.0,0.0,0.0,0.0,0.0,0.0,0.0,0.0,0.0,0.0,-2.7205,-2.7205,-2.7205,-2.6716,-2.6798,-2.7268,-2.6741,-2.6477,-2.6389,-2.497,-2.4198,-2.3982,-2.3577,-2.3322,-2.3179,-2.174,-2.0967,-2.0625,-2.0586,-2.085,-2.1289,-2.1289,-2.1797,-2.2519,-2.2559,-2.2812,-2.3135,-2.3135,-2.3135,-2.3135,-2.3135,-2.3135,-2.3135,-2.3135,-2.3135,-2.3135,-2.3135,-2.3047,-2.2677,-2.1569,-2.1114,-2.1302,-2.2492,-2.1132,-1.9761,-2.0935,-2.0215,-1.9314,-1.9314,-1.9222,-1.9123,-1.9123,-1.9123,-1.8764,-1.7684,-1.6574,-1.5832,-1.5832,-1.6112,-1.6413,-1.6473,-1.6546,-1.6685,-1.6846,-1.5493,-1.4118,-1.275,-1.1549,-1.0276,-0.8737,-0.873,-0.8791,-0.8916,-0.8794,-0.8801,-0.894,-0.894,-0.894,-0.894,-0.8954,-0.8957,0.0,0.0,0.0,0.0,0.0,0.0,0.0,0.0,0.0,0.0,0.0,0.0,0.0,0.0,0.0,0.0,0.0,0.0,0.0,0.0,0.0,0.0,0.0,0.0,0.0,0.0,0.0,0.0,0.0,0.0,-2.664,-2.664,-2.664,-2.664,-2.6596,-2.6798,-2.7268,-2.6741,-2.6305,0.0,-2.5157,-2.3977,-2.2433,-2.2291,-2.2006,-2.165,-2.0977,-2.0859,-2.1064,-2.0713,-2.1035,-2.1748,-2.1748,-2.206,-2.2549,-2.2881,-2.3057,-2.3135,-2.3135,-2.3135,-2.3135,-2.3135,-2.3135,-2.3135,-2.3135,-2.3135,-2.3135,-2.3135,-2.2403,-2.1658,-2.1382,-1.9852,-1.8772,-1.9951,-1.9861,-1.9579,-1.9852,-1.8956,-1.8048,-1.8048,-1.7311,-1.656,-1.656,-1.656,-1.6473,-1.6292,-1.6015,-1.5832,-1.5832,-1.6286,-1.6227,-1.516,-1.5433,-1.5276,-1.4265,-1.2763,-1.1797,-1.1476,-1.0112,-0.9251,-0.8889,-0.8889,-0.8849,-0.876,-0.8845,-0.8906,-0.894,-0.894,-0.894,-0.8944,-0.9055,-0.9106,0.0,0.0,0.0,0.0,0.0,0.0,0.0,0.0,0.0,0.0,0.0,0.0,0.0,0.0,0.0,0.0,0.0,0.0,0.0,0.0,0.0,0.0,0.0,0.0,0.0,0.0,0.0,0.0,0.0,-2.6533,-2.6533,-2.6533,-2.6533,-2.6533,-2.6533,-2.6603,-2.6879,-2.6672,-2.637,-2.6125,-2.5349,-2.3963,-2.1973,-2.15,-2.1133,-2.0898,-2.0664,-2.0703,-2.0898,-2.0664,-2.0967,-2.1592,-2.1807,-2.2139,-2.2568,-2.2988,-2.3135,-2.3135,-2.3135,-2.3135,-2.3135,-2.3135,-2.3135,-2.3135,-2.3135,-2.3135,-2.3135,-2.3135,-2.2217,-2.1203,-2.0576,-1.9039,-1.7684,-1.7762,-1.7755,-1.794,-1.8503,-1.7677,-1.6756,-1.6756,-1.6292,-1.5832,-1.5832,-1.5832,-1.5832,-1.5832,-1.5952,-1.5787,-1.4968,-1.545,-1.5305,-1.384,-1.4057,-1.4126,-1.3372,-1.1973,-1.1105,-1.1105,-0.9699,-0.894,-0.894,-0.894,-0.8903,-0.8821,-0.8899,-0.894,-0.894,-0.894,-0.8974,-0.9042,-0.9117,-0.9191,0.0,0.0,0.0,0.0,0.0,0.0,0.0,0.0,0.0,0.0,0.0,0.0,0.0,0.0,0.0,0.0,0.0,0.0,0.0,0.0,0.0,0.0,0.0,0.0,0.0,0.0,0.0,0.0,0.0,-2.6533,-2.6533,-2.6533,-2.6533,-2.6533,-2.6533,-2.6533,-2.6533,-2.6533,-2.6533,-2.6465,-2.5288,-2.3891,-2.2253,-2.1078,-2.0566,-2.0566,-2.0566,-2.0566,-2.0566,-2.0566,-2.0869,-2.1387,-2.1974,-2.2502,-2.2903,-2.3258,-2.3387,-2.3387,-2.3135,-2.3135,-2.3135,-2.3135,-2.296,-2.2775,-2.2775,-2.2687,-2.2501,-2.2501,-2.1578,-2.0486,-1.9405,-1.8319,-1.7131,-1.6015,-1.5832,-1.6109,-1.7131,-1.6574,-1.5832,-1.5832,-1.5832,-1.5832,-1.5832,-1.5832,-1.573,-1.5534,-1.5737,-1.5325,-1.3767,-1.4133,-1.3964,-1.2467,-1.2703,-1.2832,-1.2512,-1.1428,-1.0672,-1.0672,-0.9592,-0.894,-0.894,-0.894,-0.894,-0.894,-0.894,-0.894,-0.894,-0.894,-0.8998,-0.9117,-0.9167,-0.9245,0.0,0.0,0.0,0.0,0.0,0.0,0.0,0.0,0.0,0.0,0.0,0.0,0.0,0.0,0.0,0.0,0.0,0.0,0.0,0.0,0.0,0.0,0.0,0.0,0.0,0.0,0.0,0.0,-2.6533,-2.6533,-2.6533,-2.6533,-2.6533,-2.6533,-2.6533,-2.6533,-2.6533,-2.6533,-2.6533,-2.6465,-2.4624,-2.3588,-2.322,-2.1461,-2.0566,-2.0566,-2.0566,-2.0566,-2.0566,-2.0566,-2.1055,-2.1879,-2.294,-2.3783,-2.4459,-2.4511,-2.4542,-2.4457,-2.3474,-2.3135,-2.3135,-2.3135,-2.2394,-2.1569,-2.1507,-2.0773,-1.9943,-1.9943,-1.9139,-1.8141,-1.7963,-1.703,-1.6015,-1.5825,-1.5832,-1.5825,-1.6015,-1.592,-1.5832,-1.5832,-1.5832,-1.5832,-1.5832,-1.5832,-1.5439,-1.4364,-1.4196,-1.3802,-1.26,-1.2669,-1.2393,-1.1093,-1.1194,-1.0891,-0.9588,-0.9265,-0.9154,-0.9154,-0.9047,-0.894,-0.894,-0.894,-0.894,-0.894,-0.894,-0.894,-0.894,-0.894,-0.895,-0.8974,-0.9232,-0.9289,0.0,0.0,0.0,0.0,0.0,0.0,0.0,0.0,0.0,0.0,0.0,0.0,0.0,0.0,0.0,0.0,0.0,0.0,0.0,0.0,0.0,0.0,0.0,0.0,0.0,0.0,0.0,0.0,-2.6276,-2.6533,-2.6533,-2.6533,-2.6245,-2.5664,-2.5416,-2.5102,-2.4838,-2.4637,-2.4704,-2.5213,-2.3055,-2.2199,-2.2626,-2.0961,-2.0332,-2.0566,-2.0566,-2.0934,-2.1375,-2.1375,-2.2061,-2.3234,-2.4032,-2.4701,-2.5168,-2.4946,-2.4787,-2.4628,-2.3464,-2.3135,-2.3135,-2.3135,-2.2155,-2.1101,-2.1239,-2.0347,-1.9331,-1.9439,-1.8588,-1.7692,-1.7692,-1.6763,-1.5832,-1.5832,-1.5832,-1.5832,-1.5832,-1.5832,-1.5832,-1.5832,-1.5832,-1.5832,-1.5832,-1.5242,-1.4561,-1.3974,-1.3526,-1.2694,-1.1267,-1.144,-1.1167,-0.9774,-0.9708,-0.9588,-0.8937,-0.894,-0.894,-0.894,-0.894,-0.894,-0.894,-0.894,-0.894,-0.894,-0.894,-0.894,-0.894,-0.894,-0.8981,-0.9062,-0.9279,-0.9391,0.0,0.0,0.0,0.0,0.0,0.0,0.0,0.0,0.0,0.0,0.0,0.0,0.0,0.0,0.0,0.0,0.0,0.0,0.0,0.0,0.0,0.0,0.0,0.0,0.0,0.0,0.0,0.0,-2.5142,-2.5448,-2.5583,-2.546,-2.509,-2.4519,-2.399,-2.3537,-2.3145,-2.2868,-2.3039,-2.3675,-2.1761,-2.1161,-2.182,-2.0477,-2.0156,-2.0566,-2.0566,-2.1155,-2.2027,-2.2027,-2.2832,-2.4234,-2.4803,-2.5217,-2.5536,-2.5029,-2.4787,-2.4628,-2.3464,-2.3135,-2.3135,-2.3135,-2.2195,-2.1002,-2.0846,-1.9838,-1.8709,-1.8601,-1.7948,-1.7225,-1.7225,-1.648,-1.5832,-1.5832,-1.5832,-1.5832,-1.5832,-1.5832,-1.5832,-1.5832,-1.5832,-1.5832,-1.5832,-1.4752,-1.3776,-1.3392,-1.2563,-1.1453,-0.9941,-1.0221,-1.0035,-0.8882,-0.8869,-0.894,-0.894,-0.894,-0.894,-0.894,-0.894,-0.894,-0.894,-0.894,-0.8957,-0.8991,-0.8991,-0.8991,-0.8991,-0.8991,-0.9069,-0.9215,-0.9367,-0.9479,0.0,0.0,0.0,0.0,0.0,0.0,0.0,0.0,0.0,0.0,0.0,0.0,0.0,0.0,0.0,0.0,0.0,0.0,0.0,0.0,0.0,0.0,0.0,0.0,0.0,0.0,0.0,0.0,-2.24,-2.2616,-2.3033,-2.2672,-2.2627,-2.2973,-2.2569,-2.232,-2.2274,-2.2252,-2.2229,-2.2298,-2.1247,-2.1047,-2.1397,-2.0332,-2.0156,-2.0566,-2.0566,-2.1155,-2.2027,-2.2027,-2.2832,-2.4234,-2.4803,-2.5217,-2.5536,-2.5029,-2.4787,-2.4628,-2.3464,-2.3135,-2.3135,-2.3135,-2.2287,-2.1087,-1.9943,-1.8764,-1.7483,-1.6285,-1.592,-1.592,-1.592,-1.5825,-1.5832,-1.5832,-1.5832,-1.5832,-1.5832,-1.5832,-1.5832,-1.5832,-1.5832,-1.5832,-1.5832,-1.4752,-1.3488,-1.2237,-1.1047,-0.9933,-0.8762,-0.8721,-0.8882,-0.8913,-0.8933,-0.894,-0.894,-0.894,-0.894,-0.894,-0.894,-0.894,-0.894,-0.894,-0.9001,-0.914,-0.9144,-0.9144,-0.9144,-0.9144,-0.9218,-0.9371,-0.9527,-0.9523,0.0,0.0,0.0,0.0,0.0,0.0,0.0,0.0,0.0,0.0,0.0,0.0,0.0,0.0,0.0,0.0,0.0,0.0,0.0,0.0,0.0,0.0,0.0,0.0,0.0,0.0,0.0,0.0,0.0,-2.2274,-2.2455,-2.2285,-2.1998,-2.1555,-2.1101,-2.0567,-1.9885,-1.9885,-2.0153,-2.0694,-1.9538,-1.9502,-2.0414,-1.9803,-2.0098,-2.1118,-2.0748,-2.1527,-2.2925,-2.2925,-2.3626,-2.4661,-2.4559,-2.4814,-2.5149,-2.4591,-2.444,-2.4273,-2.3143,-2.2734,-2.2695,-2.2422,-2.1523,-2.0363,-1.9146,-1.7919,-1.6816,-1.5862,-1.5685,-1.5832,-1.5832,-1.5832,-1.5832,-1.5832,-1.5832,-1.554,-1.4752,-1.5242,-1.5534,-1.4752,-1.4606,-1.4376,-1.3431,-1.2345,-1.1354,-1.0861,-0.9823,-0.8971,-0.8714,-0.8764,-0.8876,-0.8933,-0.894,-0.894,-0.894,-0.894,-0.894,-0.894,-0.894,-0.894,-0.894,-0.9028,-0.91,-0.915,-0.9249,-0.93,-0.93,-0.93,-0.9327,-0.9384,-0.9537,-0.9581,0.0,0.0,0.0,0.0,0.0,0.0,0.0,0.0,0.0,0.0,0.0,0.0,0.0,0.0,0.0,0.0,0.0,0.0,0.0,0.0,0.0,0.0,0.0,0.0,0.0,0.0,0.0,0.0,0.0,0.0,-2.0967,-2.0838,-2.0488,-1.9885,-1.9586,-1.9089,-1.8428,-1.8428,-1.8686,-1.9284,-1.8398,-1.8567,-1.9675,-1.9429,-1.9949,-2.1097,-2.11,-2.1962,-2.3441,-2.3147,-2.3588,-2.4467,-2.3988,-2.3919,-2.4181,-2.3646,-2.3412,-2.334,-2.2537,-2.2305,-2.2275,-2.2139,-2.1558,-2.0695,-1.9174,-1.8242,-1.7325,-1.5934,-1.5678,-1.5832,-1.5832,-1.5832,-1.5832,-1.5832,-1.5832,-1.5534,-1.4752,-1.4854,-1.4752,-1.3494,-1.34,-1.3122,-1.218,-1.1038,-1.0255,-1.0255,-0.9283,-0.8598,-0.8699,-0.8845,-0.894,-0.894,-0.894,-0.894,-0.894,-0.894,-0.894,-0.894,-0.8984,-0.9011,-0.9011,-0.915,-0.9252,-0.9306,-0.9405,-0.9483,-0.953,-0.9483,-0.9483,-0.953,-0.9632,-0.968,0.0,0.0,0.0,0.0,0.0,0.0,0.0,0.0,0.0,0.0,0.0,0.0,0.0,0.0,0.0,0.0,0.0,0.0,0.0,0.0,0.0,0.0,0.0,0.0,0.0,0.0,0.0,0.0,-1.7373,-1.7734,-1.8484,-1.8223,-1.8008,-1.7988,-1.8008,-1.8008,-1.8008,-1.8008,-1.8018,-1.8027,-1.8027,-1.8477,-1.9307,-1.9297,-1.9746,-2.0692,-2.1573,-2.2531,-2.3345,-2.2392,-2.2553,-2.3423,-2.2839,-2.2642,-2.2559,-2.2098,-2.1865,-2.1865,-2.1865,-2.1865,-2.1934,-2.2344,-2.248,-2.2121,-2.0078,-1.9472,-1.8924,-1.6452,-1.5818,-1.5832,-1.5832,-1.5832,-1.5832,-1.5832,-1.5832,-1.5825,-1.573,-1.4752,-1.3488,-1.2139,-1.2028,-1.2174,-1.2069,-1.1137,-1.0348,-1.0348,-0.9455,-0.8713,-0.8716,-0.8849,-0.894,-0.894,-0.894,-0.894,-0.894,-0.8944,-0.8947,-0.8947,-0.9079,-0.9161,-0.9161,-0.9306,-0.9459,-0.9605,-0.9612,-0.9686,-0.9829,-0.9686,-0.9686,-0.9822,-0.9825,-0.9832,-1.687,0.0,0.0,0.0,0.0,0.0,0.0,0.0,0.0,0.0,0.0,0.0,0.0,0.0,0.0,0.0,0.0,0.0,0.0,0.0,0.0,0.0,0.0,0.0,0.0,0.0,0.0,0.0,-1.7021,-1.749,-1.7715,-1.791,-1.7871,-1.7568,-1.7852,-1.8008,-1.8008,-1.8008,-1.8164,-1.8467,-1.8467,-1.8916,-1.9727,-1.9424,-2.0012,-2.111,-2.0672,-2.1036,-2.2007,-2.1966,-2.2178,-2.2339,-2.1517,-2.139,-2.163,-2.1448,-2.1416,-2.1416,-2.1416,-2.1416,-2.1435,-2.1553,-2.1807,-2.1642,-1.9384,-1.8806,-1.8473,-1.6146,-1.5665,-1.5832,-1.5832,-1.5832,-1.5832,-1.5832,-1.5832,-1.554,-1.4657,-1.4166,-1.3488,-1.2139,-1.2154,-1.1754,-0.9697,-0.9306,-0.9172,-0.9172,-0.8894,-0.875,-0.8862,-0.8913,-0.894,-0.894,-0.894,-0.894,-0.894,-0.9032,-0.9093,-0.9093,-0.9235,-0.9317,-0.9317,-0.9466,-0.9564,-0.9608,-0.971,-0.9836,-0.9985,-0.9836,-0.9781,-0.9825,-0.9934,-1.01,0.0,0.0,0.0,0.0,0.0,0.0,0.0,-1.5888,0.0,0.0,0.0,0.0,0.0,0.0,0.0,0.0,0.0,0.0,0.0,0.0,0.0,0.0,0.0,0.0,0.0,-1.6745,-1.6416,-1.6602,-1.709,-1.7461,-1.7637,-1.7881,-1.79,-1.7656,-1.7881,-1.8008,-1.8008,-1.8008,-1.8223,-1.8562,-1.8457,-1.8818,-1.9639,-1.9209,-1.9528,-2.0512,-1.9861,-2.0108,-2.0798,-2.1053,-2.1277,-2.1375,-2.0789,-2.0723,-2.0957,-2.0957,-2.0957,-2.0986,-2.1172,-2.0899,-2.0533,-2.0872,-2.0801,-2.0332,-1.8652,-1.8221,-1.7925,-1.6123,-1.5698,-1.5832,-1.5832,-1.5832,-1.5832,-1.5832,-1.5832,-1.5629,-1.4854,-1.4846,-1.4334,-1.248,-1.2264,-1.1976,-1.0509,-1.0432,-1.0621,-1.0621,-1.0621,-1.0662,-1.0769,-1.0781,-1.0781,-1.0781,-1.0847,-1.0675,-0.9902,-1.0168,-1.0038,-0.9363,-0.9449,-0.9564,-0.9564,-0.9774,-0.9859,-0.9795,-0.9937,-1.0056,-1.0144,-0.9992,-0.9951,-1.0015,-1.0103,-1.0239,0.0,0.0,0.0,0.0,0.0,0.0,-1.5238,-1.5915,-1.6867,0.0,0.0,0.0,0.0,0.0,0.0,0.0,0.0,0.0,0.0,0.0,0.0,0.0,0.0,0.0,-1.7314,-1.6953,-1.6894,-1.7285,-1.7353,-1.7568,-1.7988,-1.8057,-1.8057,-1.8008,-1.8057,-1.8057,-1.8008,-1.8008,-1.8223,-1.8633,-1.8262,-1.8506,-1.9268,-1.8838,-1.8848,-1.9209,-1.9354,-1.9497,-1.9775,-1.9948,-2.0242,-2.0566,-2.0566,-2.0566,-2.0566,-2.0566,-2.0596,-2.0703,-2.1094,-2.0504,-1.9815,-2.0653,-2.0097,-1.9018,-1.8126,-1.787,-1.7591,-1.6197,-1.5832,-1.5832,-1.5832,-1.5832,-1.5832,-1.5832,-1.5832,-1.5838,-1.5872,-1.6086,-1.5594,-1.3347,-1.2913,-1.29,-1.299,-1.322,-1.3264,-1.3264,-1.3264,-1.3275,-1.33,-1.33,-1.331,-1.3335,-1.3622,-1.3184,-1.1733,-1.1925,-1.1479,-1.012,-1.0281,-1.0333,-1.0472,-1.0753,-1.0713,-1.0322,-1.0352,-1.0304,-1.0304,-1.0151,-1.0154,-1.0304,-1.0304,-1.0314,0.0,0.0,0.0,0.0,0.0,0.0,-1.5308,-1.6169,-1.7089,0.0,0.0,0.0,0.0,0.0,0.0,0.0,0.0,0.0,0.0,0.0,0.0,0.0,0.0,0.0,-1.6894,-1.6777,-1.6768,-1.6855,-1.7187,-1.7568,-1.7988,-1.833,-1.8359,-1.8018,-1.834,-1.835,-1.8018,-1.8008,-1.8223,-1.8562,-1.8555,-1.8789,-1.9268,-1.8838,-1.8682,-1.876,-1.9504,-1.9414,-1.8936,-2.0335,-2.0828,-2.0566,-2.0566,-2.0566,-2.0566,-2.0566,-2.0791,-2.1113,-2.1201,-2.1293,-2.1495,-2.1996,-2.1978,-2.1432,-1.9661,-1.9131,-1.8672,-1.6473,-1.5832,-1.5832,-1.5832,-1.5832,-1.5832,-1.5832,-1.5832,-1.5892,-1.6132,-1.6233,-1.6315,-1.6266,-1.5342,-1.4238,-1.3231,-1.322,-1.3264,-1.3264,-1.3264,-1.333,-1.3617,-1.3643,-1.3704,-1.3887,-1.3943,-1.3856,-1.363,-1.3724,-1.381,-1.3745,-1.3875,-1.4089,-1.4385,-1.4471,-1.3751,-1.2348,-1.1137,-1.0453,-1.0449,-1.0307,-1.031,-1.0453,-1.0453,-1.0517,0.0,0.0,0.0,-1.7424,0.0,0.0,0.0,-1.6301,-1.718,0.0,0.0,0.0,0.0,0.0,0.0,0.0,0.0,0.0,0.0,0.0,0.0,0.0,0.0,0.0,-1.6455,-1.6872,-1.7235,-1.7235,-1.7927,-1.8209,-1.7834,-1.8552,-1.8867,-1.8652,-1.8643,-1.8535,-1.832,-1.8115,-1.8223,-1.8562,-1.8428,-1.8545,-1.8945,-1.8914,-1.8978,-1.8978,-1.9903,-1.9896,-1.9353,-2.0441,-2.0632,-2.0264,-2.0478,-2.0566,-2.0596,-2.082,-2.1045,-2.1299,-2.1719,-2.1441,-2.11,-2.171,-2.1332,-2.0535,-1.9743,-1.9039,-1.8226,-1.6285,-1.5832,-1.5832,-1.5832,-1.5832,-1.5865,-1.6012,-1.6052,-1.6132,-1.6426,-1.6607,-1.684,-1.7281,-1.695,-1.6249,-1.5458,-1.5329,-1.547,-1.5605,-1.5623,-1.5717,-1.6091,-1.6121,-1.6168,-1.6298,-1.6428,-1.6159,-1.5352,-1.5687,-1.5591,-1.4996,-1.5192,-1.5052,-1.4285,-1.4388,-1.3559,-1.1778,-1.0876,-1.0527,-1.0605,-1.0534,-1.0534,-1.0605,-1.0605,-1.0646,0.0,0.0,0.0,0.0,0.0,-1.7706,0.0,0.0,0.0,0.0,0.0,0.0,0.0,0.0,0.0,0.0,0.0,0.0,0.0,0.0,0.0,0.0,0.0,0.0,0.0,-1.685,-1.7393,-1.7393,-1.8147,-1.8406,-1.7818,-1.8648,-1.9184,-1.9414,-1.8984,-1.8721,-1.8562,-1.8223,-1.8184,-1.8516,-1.8174,-1.8252,-1.8775,-1.9142,-1.9365,-1.9562,-2.0268,-2.0293,-1.9818,-2.0372,-2.0256,-1.9844,-2.0361,-2.0566,-2.0605,-2.0967,-2.1162,-2.1338,-2.2021,-2.1438,-2.0601,-2.1337,-2.0483,-1.9279,-1.9496,-1.868,-1.7412,-1.6204,-1.5832,-1.5845,-1.5899,-1.5912,-1.5985,-1.6286,-1.6359,-1.6433,-1.6727,-1.7021,-1.7321,-1.7615,-1.7923,-1.8056,-1.7802,-1.7756,-1.7842,-1.8096,-1.813,-1.8237,-1.8537,-1.8577,-1.8597,-1.8657,-1.8871,-1.8421,-1.7123,-1.7563,-1.7132,-1.5603,-1.5862,-1.5341,-1.3731,-1.337,-1.2672,-1.1244,-1.0726,-1.0599,-1.0721,-1.0721,-1.0721,-1.0721,-1.0721,-1.0721,0.0,0.0,0.0,0.0,-1.8527,0.0,0.0,0.0,0.0,0.0,0.0,0.0,0.0,0.0,0.0,0.0,0.0,0.0,0.0,0.0,0.0,0.0,0.0,0.0,0.0,-1.6152,-1.6152,-1.6152,-1.6304,-1.6911,-1.8195,-1.8375,-1.8842,-1.9769,-1.9434,-1.9023,-1.8572,-1.8223,-1.8037,-1.8076,-1.8037,-1.8424,-1.925,-1.9264,-1.9694,-2.0462,-2.059,-2.0107,-1.9446,-2.0247,-2.0073,-1.9434,-2.0254,-2.0566,-2.0576,-2.0625,-2.0889,-2.125,-2.1348,-2.1753,-2.2272,-2.2368,-2.1714,-2.0873,-1.9844,-1.868,-1.7412,-1.6204,-1.5832,-1.5885,-1.6152,-1.6219,-1.6299,-1.6587,-1.6653,-1.6734,-1.7034,-1.7328,-1.7622,-1.7929,-1.8237,-1.843,-1.839,-1.839,-1.8397,-1.8437,-1.8437,-1.8544,-1.8838,-1.8871,-1.8978,-1.9239,-1.9299,-1.9312,-1.908,-1.9371,-1.8924,-1.7433,-1.7587,-1.7207,-1.5609,-1.4088,-1.3193,-1.3062,-1.1483,-1.0704,-1.0721,-1.0721,-1.0721,-1.0721,-1.0721,-1.0721,0.0,0.0,0.0,0.0,0.0,0.0,-1.8164,0.0,-1.8301,0.0,0.0,0.0,0.0,0.0,0.0,0.0,0.0,0.0,0.0,0.0,0.0,0.0,0.0,0.0,0.0,0.0,0.0,0.0,-1.7618,-1.7721,-1.6862,-1.7987,-1.8948,-1.9338,-1.9331,-1.9199,-1.9014,-1.835,-1.8008,-1.8008,-1.8529,-1.8921,-1.9299,-2.0333,-2.0974,-2.1365,-2.1365,-2.0846,-2.0085,-2.0434,-2.0124,-1.9375,-2.0225,-2.0566,-2.0596,-2.0859,-2.1074,-2.1309,-2.1807,-2.2051,-2.2187,-2.2432,-2.2428,-2.2129,-2.0935,-2.0215,-1.9621,-1.8535,-1.8315,-1.8392,-1.8831,-1.8916,-1.8806,-1.8267,-1.8289,-1.8203,-1.7813,-1.7903,-1.8196,-1.8497,-1.8657,-1.8798,-1.8971,-1.8718,-1.8551,-1.8718,-1.8744,-1.8851,-1.9145,-1.9185,-1.9232,-1.9352,-1.9366,-1.9432,-1.9606,-1.9887,-1.9427,-1.7948,-1.6292,-1.5048,-1.4358,-1.2672,-1.1762,-1.1762,-1.1111,-1.0721,-1.0721,-1.0721,-1.0721,-1.0721,-1.0721,-1.0721,-1.917,0.0,0.0,0.0,0.0,0.0,0.0,0.0,0.0,0.0,0.0,0.0,0.0,0.0,0.0,0.0,0.0,0.0,0.0,0.0,0.0,0.0,0.0,0.0,0.0,0.0,0.0,-1.7367,-1.8495,-1.8374,-1.6698,-1.8141,-1.9116,-1.9441,-1.9458,-1.9453,-1.9453,-1.8613,-1.8311,-1.8506,-1.9039,-1.9562,-2.0074,-2.1302,-2.2002,-2.2187,-2.1741,-2.1244,-2.0718,-2.0407,-1.9907,-1.9531,-2.0273,-2.0635,-2.0791,-2.1113,-2.123,-2.1338,-2.208,-2.2217,-2.2129,-2.2549,-2.2891,-2.2891,-2.1805,-2.1473,-2.1364,-2.0543,-2.0268,-2.0351,-2.0812,-2.0987,-2.0966,-2.0241,-1.9968,-1.9655,-1.8954,-1.8721,-1.8671,-1.8885,-1.8991,-1.9112,-1.9332,-1.9011,-1.8804,-1.9011,-1.9045,-1.9125,-1.9339,-1.9366,-1.9399,-1.9479,-1.9486,-1.9599,-1.9893,-2.0187,-1.9723,-1.8345,-1.5569,-1.397,-1.397,-1.2804,-1.1894,-1.1372,-1.1372,-1.1244,-1.0721,-1.0721,-1.0721,-1.0721,-1.0721,-1.0721,0.0,0.0,0.0,-1.8135,0.0,0.0,0.0,0.0,-1.8633,0.0,0.0,0.0,0.0,0.0,-1.9424,-1.9824,0.0,0.0,0.0,0.0,0.0,0.0,0.0,0.0,0.0,0.0,0.0,-1.7367,-1.7763,-1.83,-1.8895,-1.8957,-1.9441,-2.0489,-2.0127,-1.9893,-1.9893,-1.9043,-1.9014,-1.9812,-1.9442,-2.0204,-2.1815,-2.1877,-2.2322,-2.2944,-2.1353,-2.0859,-2.1063,-1.9859,-1.9521,-1.9941,-2.0391,-2.083,-2.1211,-2.123,-2.123,-2.1299,-2.1748,-2.2168,-2.2568,-2.2978,-2.3125,-2.2949,-2.2253,-2.2007,-2.1803,-2.1026,-2.0745,-2.0829,-2.1089,-2.1562,-2.1937,-2.22,-2.1396,-2.0685,-2.0584,-1.9667,-1.8911,-1.8918,-1.9158,-1.9359,-1.9366,-1.9352,-1.9339,-1.9352,-1.9352,-1.9359,-1.9366,-1.9366,-1.9472,-1.976,-1.9786,-1.9907,-2.0194,-2.0494,-2.002,-1.8611,-1.6818,-1.5784,-1.5784,-1.5784,-1.4879,-1.3193,-1.3193,-1.2413,-1.0721,-1.0721,-1.0721,-1.0721,-1.0721,-1.0721,0.0,0.0,-2.1269,-2.0414,0.0,0.0,0.0,0.0,0.0,0.0,0.0,0.0,0.0,0.0,-1.9937,-1.9366,-1.8994,0.0,0.0,0.0,0.0,0.0,0.0,0.0,0.0,0.0,0.0,-1.8425,-1.8821,-1.8824,-1.8365,-1.9011,-1.9587,-1.991,-2.0245,-2.0205,-1.9912,-1.9346,-1.9059,-1.9034,-2.0084,-2.0697,-2.1112,-2.2636,-2.3056,-2.2654,-2.1873,-2.1237,-2.0743,-2.0015,-1.9951,-2.0391,-2.083,-2.1279,-2.1631,-2.1338,-2.1416,-2.1728,-2.2148,-2.2764,-2.3379,-2.3525,-2.376,-2.3913,-2.3683,-2.3639,-2.3623,-2.3645,-2.3877,-2.4184,-2.4495,-2.428,-2.3876,-2.4008,-2.2403,-2.0818,-2.092,-2.0104,-1.9219,-1.9219,-1.9299,-1.9366,-1.9366,-1.9366,-1.9366,-1.9366,-1.9533,-1.9653,-1.9653,-1.982,-1.9973,-2.008,-2.0087,-2.0207,-2.0501,-1.9769,-1.906,-1.85,-1.6824,-1.5913,-1.5913,-1.5913,-1.5654,-1.5009,-1.5009,-1.4749,-1.4101,-1.4101,-1.4101,-1.4101,-1.4101,-1.2935,-2.1323,-2.2077,0.0,-2.1857,-2.1218,0.0,-1.9786,0.0,0.0,0.0,0.0,0.0,0.0,0.0,-2.0245,-1.9195,-1.8638,-1.798,0.0,-1.806,0.0,0.0,0.0,0.0,0.0,0.0,-1.9966,-1.9627,-1.9981,-1.9879,0.0,-1.9798,-2.0279,-2.0428,-2.0851,-2.0898,-2.0615,-2.0029,-1.9748,-1.9805,-2.0578,-2.1006,-2.1117,-2.291,-2.3195,-2.2266,-2.2105,-2.162,-2.1042,-2.0397,-2.0498,-2.1064,-2.1357,-2.1728,-2.207,-2.1797,-2.206,-2.2598,-2.2871,-2.3428,-2.4014,-2.4014,-2.4199,-2.4473,-2.4795,-2.4883,-2.501,-2.5596,-2.5967,-2.626,-2.6543,-2.618,-2.5832,-2.5945,-2.386,-2.1927,-2.2038,-2.0672,-1.9366,-1.9366,-1.9366,-1.9399,-1.9506,-1.9519,-1.9486,-1.9379,-1.9613,-1.98,-1.98,-2.0054,-2.0274,-2.0381,-2.0394,-2.0508,-2.0808,-1.9966,-1.9413,-1.9413,-1.8378,-1.7731,-1.7731,-1.7731,-1.7551,-1.72,-1.6904,-1.6644,-1.6282,-1.5994,-1.5959,-1.6035,-1.6035,-1.4899]},{"header":{"parameterUnit":"m.s-1","parameterCategory":1,"la1":30.6,"la2":29.2853,"lo1":-89.7004,"lo2":-87.6739,"dy":0.0162,"dx":0.0183,"nx":112,"ny":82,"refTime":"2023-02-27T06:00:00:Z","depth":0,"parameterNumber":3,"parameterNumberName":"V-component_of_WINDS"},"data":[0.0,0.0,0.0,0.0,0.0,0.0,0.0,0.0,0.0,0.0,0.0,0.0,0.0,0.0,0.0,0.0,0.0,0.0,0.0,0.0,0.0,0.0,0.0,0.0,0.0,0.0,0.0,0.0,0.0,0.0,0.0,0.0,0.0,0.0,0.0,0.0,0.0,0.0,0.0,0.0,0.0,0.0,0.0,0.0,0.0,0.0,0.0,0.0,0.0,0.0,0.0,0.0,0.0,0.0,0.0,0.0,0.0,0.0,0.0,0.0,0.0,0.0,0.0,0.0,0.0,0.0,0.0,0.0,0.0,0.0,0.0,0.0,0.0,0.0,0.0,0.0,0.0,0.0,0.0,0.0,0.0,0.0,0.0,0.0,0.0,0.0,0.0,0.0,0.0,0.0,0.0,-2.165,-1.8495,-1.6475,-1.6164,-1.8686,-2.1167,-2.3166,0.0,0.0,0.0,0.0,0.0,0.0,0.0,0.0,0.0,0.0,0.0,0.0,0.0,0.0,0.0,0.0,0.0,0.0,0.0,0.0,0.0,0.0,0.0,0.0,0.0,0.0,0.0,0.0,0.0,0.0,0.0,0.0,0.0,0.0,0.0,0.0,0.0,0.0,0.0,0.0,0.0,0.0,0.0,0.0,0.0,0.0,0.0,0.0,0.0,0.0,0.0,0.0,0.0,0.0,0.0,0.0,0.0,0.0,0.0,0.0,0.0,0.0,0.0,0.0,0.0,0.0,0.0,0.0,0.0,0.0,0.0,0.0,0.0,0.0,0.0,0.0,0.0,0.0,0.0,0.0,0.0,0.0,0.0,0.0,0.0,0.0,0.0,0.0,0.0,0.0,0.0,0.0,0.0,0.0,0.0,0.0,0.0,0.0,0.0,0.0,0.0,0.0,0.0,0.0,-2.367,-2.037,-1.7695,-1.6289,-1.6592,-1.845,-2.069,-2.3146,0.0,0.0,0.0,0.0,0.0,0.0,0.0,0.0,0.0,0.0,0.0,0.0,0.0,0.0,0.0,0.0,0.0,0.0,0.0,0.0,0.0,0.0,0.0,0.0,0.0,0.0,0.0,0.0,0.0,0.0,0.0,0.0,0.0,0.0,0.0,0.0,0.0,0.0,0.0,0.0,0.0,0.0,0.0,0.0,0.0,0.0,0.0,0.0,0.0,0.0,0.0,0.0,0.0,0.0,0.0,0.0,0.0,0.0,0.0,0.0,0.0,0.0,0.0,0.0,0.0,0.0,0.0,0.0,0.0,0.0,0.0,0.0,0.0,0.0,0.0,0.0,0.0,0.0,0.0,0.0,0.0,0.0,0.0,0.0,0.0,0.0,0.0,0.0,0.0,0.0,0.0,0.0,0.0,0.0,0.0,0.0,0.0,0.0,0.0,0.0,0.0,0.0,0.0,-2.4279,-2.1652,-1.9368,-1.7736,-1.6947,-1.7399,-1.8916,-2.1159,-2.412,-2.7356,0.0,0.0,0.0,0.0,0.0,0.0,0.0,0.0,0.0,0.0,0.0,0.0,0.0,0.0,0.0,0.0,0.0,0.0,0.0,0.0,0.0,0.0,0.0,0.0,0.0,0.0,0.0,0.0,0.0,0.0,0.0,0.0,0.0,0.0,0.0,0.0,0.0,0.0,0.0,0.0,0.0,0.0,0.0,0.0,0.0,0.0,0.0,0.0,0.0,0.0,0.0,0.0,0.0,0.0,0.0,0.0,0.0,0.0,0.0,0.0,0.0,0.0,0.0,0.0,0.0,0.0,0.0,0.0,0.0,0.0,0.0,0.0,0.0,0.0,0.0,0.0,0.0,0.0,0.0,0.0,0.0,0.0,0.0,0.0,0.0,0.0,0.0,0.0,0.0,0.0,0.0,0.0,0.0,0.0,0.0,0.0,0.0,0.0,0.0,0.0,0.0,0.0,-2.2703,-1.9893,-1.8754,-1.7968,-1.7607,-1.7809,-1.9309,-2.1639,-2.48,-2.721,0.0,0.0,0.0,0.0,0.0,0.0,0.0,0.0,0.0,0.0,0.0,0.0,0.0,0.0,0.0,0.0,0.0,0.0,0.0,0.0,0.0,0.0,0.0,0.0,0.0,0.0,0.0,0.0,0.0,0.0,0.0,0.0,0.0,0.0,0.0,0.0,0.0,0.0,0.0,0.0,0.0,0.0,0.0,0.0,0.0,0.0,0.0,0.0,0.0,0.0,0.0,0.0,0.0,0.0,0.0,0.0,0.0,0.0,0.0,0.0,0.0,0.0,0.0,0.0,0.0,0.0,0.0,0.0,0.0,0.0,0.0,0.0,0.0,0.0,0.0,0.0,0.0,0.0,0.0,0.0,0.0,0.0,0.0,0.0,0.0,0.0,0.0,0.0,0.0,0.0,0.0,0.0,0.0,0.0,0.0,0.0,0.0,0.0,0.0,0.0,0.0,0.0,-2.1611,-1.9137,-1.8628,-1.8228,-1.7798,-1.7277,-1.9233,-2.1618,-2.4305,-2.6607,0.0,0.0,0.0,0.0,0.0,0.0,0.0,0.0,0.0,0.0,0.0,0.0,0.0,0.0,0.0,0.0,0.0,0.0,0.0,0.0,0.0,0.0,0.0,0.0,0.0,0.0,0.0,0.0,0.0,0.0,0.0,0.0,0.0,0.0,0.0,0.0,0.0,0.0,0.0,0.0,0.0,0.0,0.0,0.0,0.0,0.0,0.0,0.0,0.0,0.0,0.0,0.0,0.0,0.0,0.0,0.0,0.0,0.0,0.0,0.0,0.0,0.0,0.0,0.0,0.0,0.0,0.0,0.0,0.0,0.0,0.0,0.0,0.0,0.0,0.0,0.0,0.0,0.0,0.0,0.0,0.0,0.0,0.0,0.0,0.0,0.0,0.0,0.0,0.0,0.0,0.0,0.0,0.0,0.0,0.0,0.0,0.0,0.0,0.0,0.0,0.0,0.0,-2.2344,-1.9678,0.0,-1.8711,-1.885,-1.8862,-2.0484,-2.2842,-2.5933,0.0,0.0,0.0,0.0,0.0,0.0,0.0,0.0,0.0,0.0,0.0,0.0,0.0,0.0,0.0,0.0,0.0,0.0,0.0,0.0,0.0,0.0,0.0,0.0,0.0,0.0,0.0,0.0,0.0,0.0,0.0,0.0,0.0,0.0,0.0,0.0,0.0,0.0,0.0,0.0,0.0,0.0,0.0,0.0,0.0,0.0,0.0,0.0,0.0,0.0,0.0,0.0,0.0,0.0,0.0,0.0,0.0,0.0,0.0,0.0,0.0,0.0,0.0,0.0,0.0,0.0,0.0,0.0,0.0,0.0,0.0,0.0,0.0,0.0,0.0,0.0,0.0,0.0,0.0,0.0,0.0,0.0,0.0,0.0,0.0,0.0,0.0,0.0,0.0,0.0,0.0,0.0,0.0,0.0,0.0,0.0,0.0,0.0,0.0,0.0,0.0,0.0,-2.5692,-2.2961,-2.0563,0.0,-1.9651,-2.0184,-2.0414,-2.1521,-2.3626,-2.7055,0.0,0.0,0.0,0.0,0.0,0.0,0.0,0.0,0.0,0.0,0.0,0.0,0.0,0.0,0.0,0.0,0.0,0.0,0.0,0.0,0.0,0.0,0.0,0.0,0.0,0.0,0.0,0.0,0.0,0.0,0.0,0.0,0.0,0.0,0.0,0.0,0.0,0.0,0.0,0.0,0.0,0.0,0.0,0.0,0.0,0.0,0.0,0.0,0.0,0.0,0.0,0.0,0.0,0.0,0.0,0.0,0.0,0.0,0.0,0.0,0.0,0.0,0.0,0.0,0.0,0.0,0.0,0.0,0.0,0.0,0.0,0.0,0.0,0.0,0.0,0.0,0.0,0.0,0.0,0.0,0.0,0.0,0.0,0.0,0.0,0.0,0.0,0.0,0.0,0.0,0.0,0.0,0.0,0.0,0.0,0.0,0.0,0.0,0.0,0.0,0.0,0.0,-2.5252,-2.3332,-2.1577,-2.0086,-2.1125,-2.1789,-2.1567,-2.2048,-2.382,0.0,0.0,0.0,0.0,0.0,0.0,0.0,0.0,0.0,0.0,0.0,0.0,0.0,0.0,0.0,0.0,0.0,0.0,0.0,0.0,0.0,0.0,0.0,0.0,0.0,0.0,0.0,0.0,0.0,0.0,0.0,0.0,0.0,0.0,0.0,0.0,0.0,0.0,0.0,0.0,0.0,0.0,0.0,0.0,0.0,0.0,0.0,0.0,0.0,0.0,0.0,0.0,0.0,0.0,0.0,0.0,0.0,0.0,0.0,0.0,0.0,0.0,0.0,0.0,0.0,0.0,0.0,0.0,0.0,0.0,0.0,0.0,0.0,0.0,0.0,0.0,0.0,0.0,0.0,0.0,0.0,0.0,0.0,0.0,0.0,0.0,0.0,0.0,0.0,0.0,0.0,0.0,0.0,0.0,0.0,0.0,0.0,0.0,0.0,0.0,0.0,0.0,0.0,-2.6674,-2.4307,-2.2344,-2.1381,-2.1658,-2.2091,-2.2535,-2.2883,-2.4526,-2.7845,0.0,0.0,0.0,0.0,0.0,0.0,0.0,0.0,0.0,0.0,0.0,0.0,0.0,0.0,0.0,0.0,0.0,0.0,0.0,0.0,0.0,0.0,0.0,0.0,0.0,0.0,0.0,0.0,0.0,0.0,0.0,0.0,0.0,0.0,0.0,0.0,0.0,0.0,0.0,0.0,0.0,0.0,0.0,0.0,0.0,0.0,0.0,0.0,0.0,0.0,0.0,0.0,0.0,0.0,0.0,0.0,0.0,0.0,0.0,0.0,0.0,0.0,0.0,0.0,0.0,0.0,0.0,0.0,0.0,0.0,0.0,0.0,0.0,0.0,0.0,0.0,0.0,0.0,0.0,0.0,0.0,0.0,0.0,0.0,0.0,0.0,0.0,0.0,0.0,0.0,0.0,0.0,0.0,0.0,0.0,0.0,0.0,0.0,0.0,0.0,0.0,0.0,-2.6994,-2.5136,-2.3559,-2.2494,-2.2677,-2.3034,-2.3514,-2.3755,-2.5009,-2.7717,0.0,0.0,0.0,0.0,0.0,0.0,0.0,0.0,0.0,0.0,0.0,0.0,0.0,0.0,0.0,0.0,0.0,0.0,0.0,0.0,0.0,0.0,0.0,0.0,0.0,0.0,0.0,0.0,0.0,0.0,0.0,0.0,0.0,0.0,0.0,0.0,0.0,0.0,0.0,0.0,0.0,0.0,0.0,0.0,0.0,0.0,0.0,0.0,0.0,0.0,0.0,0.0,0.0,0.0,0.0,0.0,0.0,0.0,0.0,0.0,0.0,0.0,0.0,0.0,0.0,0.0,0.0,0.0,0.0,0.0,0.0,0.0,0.0,0.0,0.0,0.0,0.0,0.0,0.0,0.0,0.0,0.0,0.0,0.0,0.0,0.0,0.0,0.0,0.0,0.0,0.0,0.0,0.0,0.0,0.0,0.0,0.0,0.0,0.0,0.0,0.0,0.0,-2.6556,-2.5753,-2.4838,-2.3365,-2.3884,-2.4396,-2.4597,-2.4566,-2.5322,-2.7248,0.0,0.0,0.0,0.0,0.0,0.0,0.0,0.0,0.0,0.0,0.0,0.0,0.0,0.0,0.0,0.0,0.0,0.0,0.0,0.0,0.0,0.0,0.0,0.0,0.0,0.0,0.0,0.0,0.0,0.0,0.0,0.0,0.0,0.0,0.0,0.0,0.0,0.0,0.0,0.0,0.0,0.0,0.0,0.0,0.0,0.0,0.0,0.0,0.0,0.0,0.0,0.0,0.0,0.0,0.0,0.0,0.0,0.0,0.0,0.0,-2.284,0.0,0.0,0.0,0.0,0.0,0.0,0.0,0.0,0.0,0.0,0.0,0.0,0.0,0.0,0.0,0.0,0.0,0.0,0.0,0.0,0.0,0.0,0.0,0.0,0.0,0.0,0.0,0.0,0.0,0.0,0.0,0.0,0.0,0.0,0.0,0.0,0.0,0.0,0.0,0.0,0.0,-2.6556,-2.5753,-2.5063,-2.4118,-2.4176,-2.4797,-2.5923,-2.5077,-2.5515,-2.7933,-2.7112,0.0,0.0,0.0,0.0,0.0,0.0,0.0,0.0,0.0,0.0,0.0,0.0,0.0,0.0,0.0,0.0,0.0,0.0,0.0,0.0,0.0,0.0,0.0,0.0,0.0,0.0,0.0,0.0,0.0,0.0,0.0,0.0,0.0,0.0,0.0,0.0,0.0,0.0,0.0,0.0,0.0,0.0,0.0,0.0,0.0,0.0,0.0,0.0,0.0,0.0,0.0,0.0,0.0,0.0,0.0,0.0,0.0,0.0,0.0,0.0,-2.38,0.0,0.0,0.0,0.0,0.0,0.0,0.0,0.0,0.0,0.0,0.0,0.0,0.0,0.0,0.0,0.0,0.0,0.0,0.0,0.0,0.0,0.0,0.0,0.0,0.0,0.0,0.0,0.0,0.0,0.0,0.0,0.0,0.0,0.0,0.0,0.0,0.0,0.0,0.0,0.0,-2.7876,-2.6935,-2.612,-2.5385,-2.5613,-2.5869,-2.6026,-2.5673,-2.5925,-2.7216,-2.6896,0.0,0.0,0.0,0.0,0.0,0.0,0.0,0.0,0.0,0.0,0.0,0.0,0.0,0.0,0.0,0.0,0.0,0.0,0.0,0.0,0.0,0.0,0.0,0.0,0.0,0.0,0.0,0.0,0.0,0.0,0.0,0.0,0.0,0.0,0.0,0.0,0.0,0.0,0.0,0.0,0.0,0.0,0.0,0.0,0.0,0.0,0.0,0.0,0.0,0.0,0.0,0.0,0.0,-2.3933,-2.4175,-2.4229,-2.4151,-2.4162,-2.4249,-2.4369,-2.4872,-2.5563,-2.6594,0.0,0.0,0.0,0.0,0.0,0.0,0.0,0.0,0.0,0.0,0.0,0.0,0.0,0.0,0.0,0.0,0.0,0.0,0.0,0.0,0.0,0.0,0.0,0.0,-2.7019,-2.632,-2.8604,0.0,0.0,0.0,0.0,0.0,0.0,0.0,0.0,0.0,0.0,0.0,-2.9041,-2.8232,-2.7396,-2.6651,-2.7156,-2.7079,-2.5944,-2.6316,-2.6564,-2.6589,-2.7042,-2.7877,0.0,0.0,0.0,0.0,0.0,0.0,0.0,0.0,0.0,0.0,0.0,0.0,0.0,0.0,0.0,0.0,0.0,0.0,0.0,0.0,0.0,0.0,0.0,0.0,0.0,0.0,0.0,0.0,0.0,0.0,0.0,0.0,-2.3855,-2.3339,0.0,0.0,0.0,0.0,0.0,0.0,0.0,0.0,0.0,0.0,0.0,0.0,0.0,-2.4373,-2.3114,-2.409,-2.4368,-2.3889,-2.4469,-2.4669,-2.4722,-2.4682,-2.4734,-2.4709,-2.476,0.0,-2.5438,-2.5563,0.0,0.0,0.0,0.0,0.0,0.0,0.0,0.0,0.0,0.0,0.0,0.0,0.0,0.0,0.0,0.0,0.0,0.0,0.0,0.0,0.0,0.0,-2.7603,-2.7712,-2.7071,-2.6572,0.0,-2.7889,-2.8882,-2.9403,-2.946,0.0,0.0,0.0,0.0,0.0,0.0,0.0,-2.8013,-2.8062,-2.8022,-2.7449,-2.7446,-2.7428,-2.7333,-2.7361,-2.7559,-2.7992,-2.8037,-2.8783,-3.0404,-3.1052,0.0,0.0,0.0,0.0,0.0,0.0,0.0,0.0,0.0,0.0,0.0,0.0,0.0,0.0,0.0,0.0,0.0,0.0,0.0,0.0,0.0,0.0,0.0,0.0,0.0,0.0,0.0,0.0,0.0,-2.3358,-2.1917,-2.0607,-2.1162,-2.2161,0.0,0.0,0.0,0.0,0.0,0.0,0.0,0.0,0.0,-2.3458,-2.4434,-2.448,-2.3627,-2.4707,-2.5382,-2.5651,-2.6155,-2.6674,-2.7176,-2.756,-2.7394,-2.6958,-2.7868,-2.7904,-2.7285,-2.6682,-2.6958,-2.7921,0.0,0.0,0.0,0.0,-3.0214,-3.0516,-3.0586,-3.0247,0.0,-2.9939,0.0,0.0,0.0,0.0,0.0,0.0,0.0,0.0,0.0,0.0,-2.856,-2.8211,-2.7895,-2.7632,-2.769,-2.8296,-2.8934,0.0,-3.021,-3.1307,-3.2497,0.0,0.0,0.0,0.0,-3.0631,-2.9867,-2.9658,-2.9363,-2.8744,-2.8685,-2.8524,-2.8134,-2.8,-2.8204,-2.876,-2.8704,-2.9265,-3.063,-3.1593,-3.2813,0.0,0.0,0.0,0.0,0.0,0.0,0.0,0.0,0.0,0.0,0.0,0.0,0.0,0.0,0.0,0.0,0.0,0.0,0.0,0.0,0.0,0.0,0.0,0.0,0.0,0.0,0.0,0.0,-2.1678,-2.0414,-1.8485,-1.9356,-2.0707,0.0,0.0,0.0,0.0,0.0,0.0,-2.5084,-2.462,-2.4377,-2.4653,-2.5027,-2.5109,-2.4845,-2.5671,-2.6593,-2.7604,-2.8079,-2.8739,-2.9536,-3.0058,-2.9857,-2.9201,-3.0457,-3.0256,-2.9049,-2.8335,-2.7968,-2.7992,-2.9122,-2.9296,-2.9097,-2.994,-3.0354,-3.0593,-3.108,-3.1165,-3.0956,-3.0492,-3.1445,-3.247,-3.0401,0.0,0.0,0.0,0.0,-3.1313,-3.1313,-3.0503,-2.9635,-2.9411,-2.9286,-2.9195,-2.9113,-2.9635,-3.0033,0.0,-3.0733,-3.2128,-3.3007,0.0,0.0,0.0,0.0,-3.1265,-3.147,-3.0934,-3.0268,-2.9639,-2.9576,-2.9286,-2.8572,-2.8704,-2.8994,-2.9428,-2.9635,-3.0158,-3.1115,-3.2199,-3.3329,-3.4528,0.0,0.0,0.0,0.0,0.0,0.0,0.0,0.0,0.0,0.0,0.0,0.0,0.0,0.0,0.0,0.0,0.0,0.0,0.0,0.0,0.0,0.0,0.0,0.0,0.0,0.0,0.0,0.0,0.0,-1.7481,-1.8254,0.0,0.0,0.0,0.0,-2.4887,-2.4477,-2.434,-2.4859,-2.4834,-2.5023,-2.5526,-2.6131,-2.6615,-2.7118,-2.7424,-2.817,-2.9389,-2.9724,-3.0214,-3.0915,-3.0943,-3.089,-3.089,-3.0985,-3.0571,-2.9933,-3.0059,-2.9886,-2.9465,-2.9589,-2.9918,-3.0353,-2.9813,-3.0008,-3.0518,-3.0537,-3.0178,-2.9983,-3.1779,-3.2874,-3.3457,-3.3371,-3.2956,0.0,0.0,-3.1136,-3.0563,-3.0563,-3.0492,-3.06,-3.1183,-3.1347,-3.1183,-3.0552,-3.1494,-3.1789,0.0,-2.9872,-3.0783,-3.2192,0.0,-3.3328,-3.3528,-3.3486,-3.2974,-3.1741,-3.0949,-3.0268,-2.9639,-2.9541,-2.9237,-2.8573,-2.9553,-3.0201,-3.0243,-3.1125,-3.1899,-3.238,-3.2903,-3.3742,-3.4944,-3.5347,0.0,0.0,0.0,0.0,0.0,0.0,0.0,0.0,0.0,0.0,0.0,0.0,0.0,0.0,0.0,0.0,0.0,0.0,0.0,0.0,0.0,0.0,0.0,0.0,0.0,0.0,0.0,0.0,-1.7456,-1.8021,0.0,-2.1451,-2.2555,-2.3815,-2.5418,-2.5582,-2.5728,-2.5932,-2.6223,-2.649,-2.6678,-2.7231,-2.7607,-2.7808,-2.8477,-2.9386,-3.0324,-3.1054,-3.1861,-3.263,-3.3039,-3.2905,-3.2393,-3.3419,-3.3165,-3.1994,-3.2269,-3.119,-2.9475,-2.9997,-3.0058,-2.9983,-3.0612,-3.0986,-3.1285,-3.2138,-3.2003,-3.1509,-3.1794,-3.1456,-3.1055,-3.1466,-3.1489,-3.1248,-3.0982,-3.1389,-3.1836,-3.1835,-3.2199,-3.2441,-3.2254,-3.2551,-3.2676,-3.1972,-3.2573,-3.3013,-3.2203,-3.2192,-3.264,-3.359,-3.3583,-3.358,-3.4173,-3.3825,-3.3388,-3.2942,-3.2646,-3.2066,-3.0939,-3.0777,-3.0466,-2.9726,-3.0038,-3.0567,-3.121,-3.1588,-3.2161,-3.2921,-3.3105,-3.3535,-3.4229,-3.486,-3.5833,0.0,0.0,0.0,0.0,0.0,0.0,0.0,0.0,0.0,0.0,0.0,0.0,0.0,0.0,0.0,0.0,0.0,0.0,0.0,0.0,0.0,0.0,0.0,0.0,0.0,0.0,-1.8916,-1.7947,-1.8319,-1.9522,-2.1766,-2.2852,-2.421,-2.618,-2.6752,-2.7092,-2.7281,-2.7645,-2.7921,-2.8122,-2.8298,-2.8486,-2.8674,-2.9521,-3.0459,-3.1405,-3.2493,-3.3402,-3.4188,-3.4622,-3.448,-3.3974,-3.5035,-3.4777,-3.355,-3.3505,-3.2272,-3.0441,-3.0698,-3.0731,-3.0672,-3.1539,-3.2003,-3.2317,-3.3185,-3.3215,-3.2736,-3.2078,-3.112,-3.0357,-3.0986,-3.1393,-3.1641,-3.1561,-3.236,-3.3259,-3.2977,-3.3287,-3.347,-3.3056,-3.3297,-3.3454,-3.304,-3.3448,-3.3937,-3.3937,-3.3909,-3.4024,-3.4471,-3.4324,-3.4425,-3.5252,-3.4504,-3.4004,-3.4262,-3.3687,-3.2832,-3.1646,-3.1499,-3.116,-3.0349,-3.0692,-3.12,-3.177,-3.2194,-3.263,-3.3184,-3.3604,-3.3923,-3.4211,-3.4833,-3.5776,-3.7039,0.0,0.0,0.0,0.0,0.0,0.0,0.0,0.0,0.0,0.0,0.0,0.0,0.0,0.0,0.0,0.0,0.0,0.0,0.0,0.0,0.0,0.0,0.0,-2.0567,-2.047,-2.0175,-1.8842,-1.9102,-2.0379,-2.276,-2.3458,-2.4833,-2.7139,-2.7846,-2.8398,-2.8925,-2.895,-2.9214,-2.9779,-2.9239,-2.9227,-2.9856,-3.0569,-3.1515,-3.2664,-3.3901,-3.4861,-3.5504,-3.5504,-3.5504,-3.5504,-3.5504,-3.513,-3.4457,-3.3784,-3.3125,-3.2497,-3.1824,-3.1958,-3.2527,-3.2557,-3.2991,-3.3559,-3.3499,-3.3499,-3.338,-3.2706,-3.2063,-3.1616,-3.2317,-3.3069,-3.3706,-3.3593,-3.4116,-3.4599,-3.3858,-3.3649,-3.3633,-3.3633,-3.3633,-3.3633,-3.3633,-3.4186,-3.4624,-3.4624,-3.4624,-3.4624,-3.4624,-3.5161,-3.5876,-3.6637,-3.5566,0.0,-3.5597,-3.3925,-3.24,-3.171,-3.1589,-3.1193,-3.0467,-3.1582,-3.219,-3.1823,-3.2932,-3.3446,-3.325,-3.4345,-3.4972,-3.5027,-3.5366,-3.5951,-3.6777,0.0,0.0,0.0,0.0,0.0,0.0,0.0,0.0,0.0,0.0,0.0,0.0,0.0,0.0,0.0,0.0,0.0,0.0,0.0,0.0,0.0,0.0,-2.334,-2.0722,-2.0772,-2.0941,-2.0518,-2.1565,-2.2865,-2.4301,-2.5692,-2.698,-2.8387,-2.9001,-2.9402,-2.9553,-2.9553,-2.9628,-2.9779,-3.0327,-3.0664,-3.0833,-3.2346,-3.326,-3.3602,-3.4728,-3.5325,-3.5504,-3.5504,-3.5504,-3.5504,-3.5504,-3.54,-3.513,-3.3978,-3.3664,-3.3829,-3.2691,-3.2362,-3.2632,-3.3589,-3.4367,-3.4816,-3.3844,-3.3499,-3.3305,-3.2168,-3.2003,-3.2273,-3.2452,-3.3763,-3.5023,-3.4493,-3.5267,-3.6039,-3.5333,-3.5101,-3.5068,-3.5068,-3.5068,-3.5068,-3.5068,-3.5207,-3.5316,-3.5316,-3.5316,-3.5316,-3.5316,-3.547,-3.569,-3.591,-3.5588,0.0,-3.5585,-3.5111,-3.4685,-3.4468,-3.4482,-3.3933,-3.2673,-3.2883,-3.2855,-3.2318,-3.2611,-3.3055,-3.3625,-3.3954,-3.4706,-3.5917,-3.62,-3.7031,0.0,0.0,0.0,0.0,0.0,0.0,0.0,0.0,0.0,0.0,0.0,0.0,0.0,0.0,0.0,0.0,0.0,0.0,0.0,0.0,0.0,0.0,-2.5777,-2.4692,-2.2885,-2.2335,-2.2341,-2.2818,-2.3662,-2.469,-2.5911,-2.6912,-2.7985,-2.9188,-2.9603,-3.0011,-3.0343,-3.0419,-3.0558,-3.0996,-3.1476,-3.1815,-3.1815,-3.3241,-3.4027,-3.4027,-3.4986,-3.5504,-3.5504,-3.5504,-3.5504,-3.5504,-3.5504,-3.5504,-3.5429,-3.4352,-3.4128,0.0,0.0,0.0,0.0,0.0,-3.516,-3.5355,-3.4277,-3.3903,-3.3694,-3.2362,-3.2392,-3.2976,-3.3319,-3.4706,-3.6126,-3.6031,-3.6845,-3.757,-3.6816,-3.6592,-3.6569,-3.6569,-3.6569,-3.6569,-3.6569,-3.6332,-3.6096,-3.6096,-3.5842,0.0,-3.5622,-3.5622,-3.5723,-3.6062,-3.5825,-3.574,-3.6062,-3.5537,-3.503,-3.4726,-3.4404,-3.3744,-3.2577,-3.2763,0.0,0.0,0.0,-3.3548,-3.4789,-3.4853,0.0,0.0,0.0,-3.7488,-3.8433,0.0,0.0,0.0,-3.8971,-3.9346,0.0,0.0,0.0,0.0,0.0,0.0,0.0,0.0,0.0,0.0,0.0,0.0,0.0,0.0,0.0,0.0,-2.7268,-2.68,-2.6584,-2.5306,-2.4566,-2.5251,-2.5418,-2.6058,-2.7448,-2.7663,-2.8346,-2.9806,-2.9934,-3.0355,-3.1328,0.0,0.0,0.0,0.0,-3.2749,-3.2749,-3.3671,-3.4177,-3.4177,-3.5067,-3.5504,-3.5504,-3.5504,-3.5504,-3.5504,-3.5504,-3.5504,-3.5444,-3.4756,-3.4427,-3.4203,-3.2527,-3.2976,-3.4666,-3.528,-3.5504,-3.54,-3.4711,0.0,0.0,-3.3021,-3.3066,-3.3773,-3.458,-3.5812,-3.7069,-3.774,-3.842,-3.8853,-3.8193,-3.7973,-3.7905,-3.7905,-3.7905,-3.7905,-3.7905,-3.7313,-3.6772,-3.6772,-3.6146,-3.5622,-3.5622,-3.5622,-3.5859,-3.6552,-3.6062,-3.5842,-3.6451,-3.5402,-3.437,-3.3728,0.0,0.0,-3.163,-3.2087,-3.2293,-3.1962,-3.3108,-3.4566,-3.6219,-3.6303,-3.667,-3.7489,-3.7507,-3.7533,-3.7624,-3.7716,-3.8487,-3.9882,-3.9396,-3.9677,0.0,0.0,0.0,0.0,0.0,0.0,0.0,0.0,0.0,0.0,0.0,0.0,0.0,0.0,0.0,-2.945,-2.9484,-2.9803,-3.1116,-3.029,-2.8706,-2.6495,-2.699,-2.7676,-2.7941,-2.879,-2.977,-3.082,-3.0895,-3.1328,-3.2321,-3.2321,-3.2393,-3.2593,-3.331,-3.3739,-3.3739,-3.4691,-3.5213,-3.5213,0.0,0.0,-3.5504,-3.5504,-3.5504,-3.5504,-3.5504,-3.5504,-3.5444,-3.4756,-3.4158,-3.3709,-3.3844,-3.4487,-3.5325,-3.5459,-3.5504,-3.54,-3.4711,-3.4472,-3.4352,-3.3559,-3.3754,-3.4465,-3.5183,-3.6463,0.0,-3.8477,-3.882,-3.8954,-3.8819,-3.8345,-3.7905,-3.7905,-3.7905,-3.7905,-3.7905,-3.7313,-3.6772,-3.6772,-3.6146,-3.5622,-3.5622,-3.5622,-3.5673,-3.5825,-3.5723,-3.5453,-3.4996,-3.5199,-3.5351,-3.5216,-3.5064,-3.4675,-3.3914,-3.3457,-3.3053,-3.2792,-3.425,-3.548,-3.6256,-3.6303,-3.667,-3.7489,-3.7507,-3.7808,-3.8469,-3.9111,-3.9588,-3.9882,-3.9792,-4.0522,0.0,0.0,0.0,0.0,0.0,0.0,0.0,0.0,0.0,0.0,0.0,-2.74,0.0,0.0,-3.009,-3.1366,-3.1794,-3.2264,-3.3086,-3.3057,-3.2148,-2.9821,-3.0024,-3.034,-3.034,-3.0856,-3.1415,-3.1888,-3.1888,-3.2321,-3.3241,-3.331,-3.3533,-3.4056,-3.4476,-3.4758,-3.4758,-3.5279,-3.5504,-3.5504,-3.5504,-3.5504,-3.5504,-3.5504,-3.5504,-3.5504,-3.5504,-3.5504,-3.5474,-3.513,-3.4801,-3.4532,-3.4861,-3.4996,-3.504,-3.5385,-3.5504,-3.5459,-3.5115,-3.4996,-3.4876,-3.4203,-3.471,-3.5646,-3.6099,-3.7214,-3.8525,-3.9262,-3.9513,-3.9529,-3.9529,-3.9276,-3.8988,-3.8988,-3.8988,-3.8988,-3.8988,-3.8125,-3.7449,-3.7821,-3.6975,-3.6197,-3.6197,-3.6197,-3.6062,-3.5673,-3.5622,-3.5487,-3.5115,-3.5064,-3.5064,-3.5064,-3.4387,-3.3947,-3.3947,-3.3843,-3.3835,-3.3894,-3.4934,-3.5955,-3.6872,-3.689,-3.7276,-3.8065,-3.8102,-3.8303,-3.8707,-3.9515,-4.0102,-4.0506,-4.091,-4.1534,0.0,0.0,0.0,0.0,0.0,0.0,0.0,0.0,-2.887,-2.9669,-2.9075,-2.8951,-3.0752,-3.1468,-3.2264,-3.3574,-3.4221,-3.4545,-3.4545,-3.5105,-3.5026,-3.3762,-3.3185,-3.2848,-3.2848,-3.265,-3.2664,-3.289,-3.289,-3.331,-3.4245,-3.4312,-3.4691,-3.5504,-3.5504,-3.5504,-3.5504,-3.5504,-3.5504,-3.5504,-3.5504,-3.5504,-3.5504,-3.5504,-3.5504,-3.5504,-3.5504,-3.5504,-3.5504,-3.5504,-3.5504,-3.5504,-3.5504,-3.516,-3.4741,-3.5295,-3.5504,-3.5504,-3.5504,-3.5504,-3.5415,-3.4861,-3.5535,-3.6628,-3.6931,-3.7887,-3.9086,-3.9885,-4.007,-4.007,-4.007,-4.007,-4.007,-4.007,-4.007,-4.007,-4.007,-3.9039,-3.8294,-3.887,-3.7905,-3.6992,-3.6992,-3.6874,-3.6518,-3.574,-3.5622,-3.5571,-3.5419,-3.4996,-3.4658,-3.4506,-3.3423,-3.2899,-3.3372,-3.3922,-3.4453,-3.4887,-3.5437,-3.6287,-3.754,-3.7558,-3.7949,-3.8689,-3.8854,-3.8927,-3.8946,-3.99,-4.0708,-4.1368,-4.2158,-4.2525,-3.427,-3.415,0.0,-3.4604,-3.3611,-3.2667,0.0,0.0,-3.1068,-3.1322,-3.1262,-3.1613,-3.3064,-3.3884,-3.4761,-3.614,-3.6949,-3.735,-3.735,-3.7393,-3.7393,-3.7231,-3.5096,-3.3704,-3.3704,-3.3031,-3.2961,-3.3808,-3.3808,-3.4259,-3.5279,-3.5359,-3.5359,-3.5504,-3.5504,-3.5504,-3.5504,-3.5504,-3.5504,-3.5504,-3.5504,-3.5504,-3.5504,-3.5504,-3.5504,-3.5504,-3.5504,-3.5504,-3.5504,-3.5504,-3.5504,-3.5504,-3.5504,-3.5459,-3.54,-3.5474,-3.5504,-3.5504,-3.5504,-3.5504,-3.5489,-3.5415,-3.5946,-3.6722,-3.7478,-3.8237,-3.9086,-3.9885,-4.007,-4.007,-4.007,-4.007,-4.007,-4.007,-4.007,-4.007,-4.007,-3.9445,-3.8903,-3.8971,-3.8345,-3.7787,-3.7787,-3.7229,-3.6518,-3.574,-3.5622,-3.5368,-3.4709,-3.5131,-3.5233,-3.4556,-3.4336,-3.4015,-3.3457,-3.4041,-3.4677,-3.5213,-3.5936,-3.6791,-3.7801,-3.7853,-3.8125,-3.8707,-3.9405,-3.9772,-3.9772,-4.1295,-4.2084,-4.2194,-4.2983,-4.3369,-3.4851,0.0,0.0,0.0,-3.358,-3.2925,-3.3274,-3.2352,-3.1632,-3.2553,-3.3043,-3.3728,-3.5101,-3.5899,-3.6714,0.0,-3.8193,-3.8547,-3.8917,-3.9339,-3.975,-4.0065,-3.8454,-3.699,-3.6184,-3.5413,-3.5085,-3.5503,-3.5124,-3.5067,-3.5504,-3.5504,-3.5504,-3.5504,-3.5504,-3.5504,-3.5504,-3.5504,-3.5504,-3.5504,-3.5504,-3.5504,-3.5504,-3.5504,-3.5504,-3.5504,-3.5504,-3.5504,-3.5504,-3.5504,-3.5504,-3.5504,-3.5504,-3.5504,-3.5504,-3.5504,-3.5504,-3.5504,-3.5504,-3.5782,-3.6165,-3.6165,-3.6964,-3.7987,-3.8358,-3.8978,-3.9662,-4.002,-4.007,-4.007,-4.007,-4.007,-4.007,-4.007,-4.007,-4.007,-4.007,-3.9512,-3.9123,-3.9546,-3.9039,-3.8396,-3.7973,-3.7652,-3.7026,-3.5808,-3.5622,-3.5504,-3.5182,-3.5419,-3.5334,-3.4573,-3.4878,-3.4844,-3.41,-3.4994,-3.57,-3.5948,-3.6509,-3.7058,-3.747,-3.7506,-3.7953,-3.8888,-3.9267,-3.9838,-4.0598,-4.1735,-4.2304,-4.2323,-4.313,-4.3497,-3.4423,0.0,0.0,-3.3839,-3.3617,-3.3408,-3.3651,-3.322,-3.3064,-3.4091,-3.4835,-3.5673,-3.6801,-3.741,0.0,-3.9009,-3.9143,-3.9412,-4.0243,-4.0664,-4.1087,-4.1508,-4.0694,-3.9648,-3.8525,-3.7499,-3.6843,-3.6615,-3.6117,-3.5733,-3.5504,-3.5504,-3.5504,-3.5504,-3.5504,-3.5504,-3.5504,-3.5504,-3.5504,-3.5504,-3.5504,-3.5504,-3.5504,-3.5504,-3.5504,-3.5504,-3.5504,-3.5504,-3.5504,-3.5504,-3.5504,-3.5504,-3.5504,-3.5504,-3.5504,-3.5733,-3.5782,-3.5782,-3.5782,-3.629,-3.6904,-3.6904,-3.7815,-3.8908,-3.8908,-3.9489,-4.007,-4.007,-4.007,-4.007,-4.007,-4.007,-4.007,-4.007,-4.007,-4.007,-4.007,-3.9665,-3.9445,-3.9969,-3.9495,-3.8819,-3.8311,-3.7872,-3.7212,-3.6113,-3.5757,-3.5622,-3.5622,-3.5622,-3.5419,-3.4861,-3.5301,-3.5402,-3.4844,-3.566,-3.6182,-3.6182,-3.6522,-3.693,-3.7259,-3.7298,-3.796,-3.9373,-3.9608,-4.0289,-4.1442,-4.2249,-4.2635,-4.2653,-4.3222,-4.3497,0.0,0.0,-3.3588,-3.3443,-3.3771,-3.414,-3.4415,-3.5394,-3.6246,-3.6281,-3.6729,-3.7344,-3.81,-3.8276,-3.8788,-4.0305,-4.0035,-4.0162,-4.1558,-4.1251,-4.092,-4.1019,-4.0938,-4.0655,0.0,-3.8668,-3.7456,-3.6661,-3.6615,-3.6275,-3.5569,-3.5504,-3.5504,-3.5504,-3.5504,-3.5504,-3.5504,-3.5504,-3.5504,-3.5504,-3.5504,-3.5504,-3.5504,-3.5504,-3.5504,-3.5504,-3.5504,-3.5504,-3.5504,-3.5504,-3.5504,-3.5504,-3.5504,-3.5504,-3.5554,-3.6275,-3.6554,-3.6554,-3.6554,-3.71,-3.7748,-3.7748,-3.8246,-3.8908,-3.8908,-3.9489,-4.007,-4.007,-4.007,-4.007,-4.007,-4.007,-4.007,-4.007,-4.007,-4.007,-4.007,-4.0054,-4.0054,-4.007,-3.9495,-3.8988,-3.8954,-3.777,-3.6806,-3.6755,-3.6096,-3.5622,-3.5622,-3.5622,-3.5605,-3.5588,-3.5605,-3.5605,-3.5588,-3.5605,-3.5605,-3.5605,-3.5667,-3.6222,-3.743,-3.749,-3.8322,-4.013,-4.0924,-4.1633,-4.2268,-4.3057,-4.3442,-4.3442,-4.3479,-4.3497,0.0,0.0,-3.2934,-3.3703,-3.3727,-3.3987,-3.5427,-3.6077,-3.6498,-3.6843,-3.7453,-3.783,-3.7546,-3.8536,-3.9276,-3.9046,-3.9576,-4.0253,-4.0912,-4.0954,-4.1041,-4.1464,-4.0758,0.0,0.0,0.0,0.0,-3.744,-3.6904,-3.6275,-3.5569,-3.5504,-3.5504,-3.5504,-3.5504,-3.5504,-3.5504,-3.5504,-3.5504,-3.5504,-3.5504,-3.5504,-3.5504,-3.5504,-3.5504,-3.5504,-3.5504,-3.5504,-3.5504,-3.5504,-3.5504,-3.5504,-3.5504,-3.5782,-3.6275,-3.6492,-3.7247,-3.806,-3.7557,-3.7905,-3.8525,-3.8525,-3.9032,-3.9731,-3.9731,-3.9901,-4.007,-4.007,-4.007,-4.007,-4.007,-4.007,-4.007,-4.007,-4.007,-4.007,-4.007,-4.007,-3.9935,-3.9462,-3.9546,-3.9242,-3.777,-3.7516,-3.7178,-3.6163,-3.5791,-3.5622,-3.5622,-3.5622,-3.5622,-3.5622,-3.5622,-3.5622,-3.5622,-3.5622,-3.5622,-3.5622,-3.5622,-3.5813,-3.6212,-3.6768,-3.7705,-3.9194,-4.0357,-4.1489,-4.2577,-4.3193,-4.3497,-4.3497,-4.3497,-4.3497,0.0,-3.16,-3.2407,-3.3554,-3.3785,-3.4179,-3.6004,-3.679,-3.7197,-3.7578,-3.799,-3.8127,-3.76,-3.8424,-3.8803,-3.7638,-3.8151,-3.8992,-3.9739,-3.9791,-4.0075,-4.0976,-4.0309,0.0,0.0,0.0,0.0,-3.7456,-3.6904,-3.6275,-3.5569,-3.5504,-3.5504,-3.5504,-3.5504,-3.5504,-3.5504,-3.5504,-3.5504,-3.5504,-3.5504,-3.5504,-3.5504,-3.5504,-3.5504,-3.5504,-3.5504,-3.5504,-3.5504,-3.5504,-3.5504,-3.5504,-3.5782,-3.6165,-3.6661,-3.7247,-3.8044,-3.8854,-3.8358,-3.8707,-3.9315,-3.9315,-3.9662,-4.007,-4.007,-4.0254,-4.0336,-4.0171,-4.0385,-4.0594,-4.0221,-4.0254,-4.0336,-4.0171,-4.007,-4.007,-4.007,-4.007,-3.9935,-3.9478,-3.9343,-3.8853,-3.7432,-3.7127,-3.6755,-3.5774,-3.5622,-3.5622,-3.5622,-3.5622,-3.5622,-3.5622,-3.5622,-3.5622,-3.5622,-3.5622,-3.574,-3.6011,-3.6028,-3.6282,-3.6806,-3.7313,-3.8201,-3.9475,-4.0333,-4.1398,-4.2711,-4.3069,-4.3321,-4.3497,-4.3497,-4.3497,-3.102,-3.1376,-3.2041,-3.3182,-3.3831,-3.4571,-3.6082,-3.7417,-3.834,-3.8315,-3.835,-3.8294,0.0,0.0,-3.7549,-3.6288,-3.611,-3.6698,-3.822,-3.7971,-3.8143,0.0,0.0,0.0,0.0,0.0,0.0,-3.6615,0.0,-3.6275,-3.5569,-3.5504,-3.5504,-3.5504,-3.5504,-3.5504,-3.5504,-3.5504,-3.5504,-3.5504,-3.5504,-3.5504,-3.5504,-3.5504,-3.5504,-3.5504,-3.5504,-3.5504,-3.5504,-3.5569,-3.5554,-3.5619,-3.6399,-3.6661,-3.6888,-3.8381,-3.8908,-3.8962,-3.8962,-3.9489,-4.007,-4.0037,-4.0054,-4.0138,-4.0121,-4.0497,-4.078,-4.0336,-4.1001,-4.1534,-4.0417,-4.0546,-4.078,-4.0254,-4.007,-4.007,-4.007,-4.007,-4.007,-4.002,-3.8918,-3.7936,-3.7905,-3.6671,-3.5673,-3.5673,-3.5639,-3.5622,-3.5622,-3.5622,-3.5622,-3.5622,-3.5622,-3.5639,-3.5673,-3.5673,-3.6011,-3.6789,-3.684,-3.7466,-3.8886,-3.8971,-3.9552,-4.0834,-4.0932,-4.1534,-4.2711,-4.275,-4.3014,-4.3497,-4.3497,-4.3497,-3.0851,-3.1237,-3.2152,-3.3628,-3.3885,-3.4305,-3.642,-3.7234,-3.7477,-3.7424,-3.8074,-3.8209,0.0,0.0,0.0,-3.6186,-3.7087,0.0,-3.7772,-3.7776,0.0,0.0,0.0,-3.7259,-3.6964,-3.6415,0.0,0.0,-3.6275,-3.6275,-3.5569,-3.5504,-3.5504,-3.5504,-3.5504,-3.5504,-3.5504,-3.5504,-3.5504,-3.5504,-3.5504,-3.5504,-3.5504,-3.5504,-3.5504,-3.5504,-3.5504,-3.5504,-3.5554,-3.6117,-3.6337,-3.6399,-3.7219,-3.7847,-3.8381,-3.8745,-3.9262,-3.9782,-3.9782,-3.9952,-3.9986,-3.9445,-3.9631,-4.0154,-4.0577,-4.078,-4.0949,-4.1286,-4.1595,-4.1621,-4.0874,-4.078,-4.078,-4.0254,-4.007,-4.007,-4.007,-4.007,-3.9918,-3.9377,-3.8875,-3.8345,-3.7984,-3.7456,-3.6964,-3.6559,-3.5994,-3.5622,-3.5622,-3.5622,-3.5622,-3.5622,-3.5622,-3.5859,-3.6434,-3.6485,-3.6806,-3.7567,-3.7618,-3.7787,-3.8159,-3.87,-3.9313,-4.0071,-4.106,-4.1937,-4.2711,-4.3105,-4.3375,-4.3497,-4.3497,-4.3497,-3.2473,-3.2546,-3.2914,-3.4176,-3.4303,-3.4555,-3.6211,-3.697,-3.7427,-3.778,-3.8041,0.0,0.0,0.0,0.0,0.0,0.0,0.0,-3.669,-3.6748,-3.7217,0.0,-3.7889,0.0,-3.6676,-3.6228,-3.5831,0.0,-3.5894,-3.5958,-3.5504,-3.5504,-3.5504,-3.5504,-3.5504,-3.5504,-3.5504,-3.5504,-3.5504,-3.5504,-3.5504,-3.5504,-3.5504,-3.5504,-3.5504,-3.5504,0.0,-3.5668,-3.5991,-3.6446,-3.6783,-3.7203,-3.7962,-3.8525,-3.8962,-3.9315,-3.9714,-4.002,-3.9715,-3.9817,-4.0003,-3.9597,-3.9749,-4.0171,-4.0449,-4.0685,-4.0903,-4.1013,-4.142,-4.1639,-4.075,-4.0733,-4.078,-4.0254,-4.007,-4.007,-4.007,-4.007,-3.9766,-3.8717,-3.8591,-3.8355,-3.7432,-3.7413,-3.7353,-3.673,-3.6361,-3.6011,-3.5673,-3.5622,-3.5694,-3.5941,-3.5739,-3.6,-3.7018,-3.6939,-3.7246,-3.8311,-3.8379,-3.8531,-3.8853,-3.9501,-4.0006,-4.0279,-4.1279,-4.208,-4.2711,-4.3014,-4.325,-4.3497,-4.3497,-4.3497,-3.4607,-3.4416,-3.4077,-3.4863,-3.4903,-3.4989,-3.5763,-3.6746,-3.768,-3.8347,0.0,0.0,-3.8574,0.0,-3.7183,-3.4963,0.0,-3.5232,-3.5773,-3.5802,-3.6465,-3.8525,-3.8745,-3.8125,-3.6597,-3.6553,-3.6244,-3.5434,-3.5444,-3.5504,-3.5504,-3.5504,-3.5504,-3.5504,-3.5504,-3.5504,-3.5504,-3.5504,-3.5504,-3.5504,-3.5504,-3.5504,-3.5504,-3.5504,-3.5554,-3.5668,-3.5668,-3.6054,-3.6798,-3.6828,-3.7259,-3.7906,-3.8712,-3.902,-3.9007,-3.98,-4.007,-3.9986,-3.936,-3.9546,-4.0054,-3.9969,-4.0003,-4.0121,-4.0154,-4.0528,-4.0827,-4.0417,-4.103,-4.1534,-4.0466,-4.0528,-4.078,-4.0254,-4.007,-4.007,-4.007,-4.0003,-3.9563,-3.8294,-3.8408,-3.8313,-3.6843,-3.7266,-3.7534,-3.6723,-3.67,-3.6535,-3.5859,-3.569,-3.5783,-3.6249,-3.5898,-3.6123,-3.7456,-3.7222,-3.7674,-3.9168,-3.935,-3.9688,-4.0319,-4.0797,-4.1041,-4.1133,-4.1664,-4.2203,-4.2826,-4.2826,-4.3069,-4.3497,-4.3497,-4.3497,-3.4697,-3.4825,-3.521,-3.6017,-3.5477,-3.4967,-3.6004,-3.6939,0.0,0.0,0.0,-3.9333,-3.8252,0.0,0.0,-3.7305,0.0,0.0,0.0,0.0,0.0,0.0,0.0,0.0,0.0,0.0,0.0,0.0,0.0,-3.5504,-3.5504,-3.5504,-3.5504,-3.5504,-3.5504,-3.5504,-3.5504,-3.5504,-3.5504,-3.5504,-3.5504,-3.5504,-3.5504,-3.5504,-3.5831,-3.6384,-3.6384,0.0,-3.7632,-3.823,-3.8221,-3.7941,-3.9324,-3.9531,-3.9076,-3.98,-4.007,-4.0054,-3.9935,-3.9969,-3.9986,-3.9377,-3.958,-4.0154,-4.0607,-4.0827,-4.0995,-4.1402,-4.1639,-4.1621,-4.0949,-4.0827,-4.078,-4.0254,-4.007,-4.007,-4.007,-3.9597,-3.9106,-3.8853,-3.9243,-3.9163,-3.787,-3.8631,-3.8991,-3.7836,-3.717,-3.6721,-3.6586,-3.6011,-3.5622,-3.5739,-3.5667,-3.6226,-3.7708,-3.8156,-3.8984,-4.0504,-4.1031,-4.1367,-4.149,-4.1578,-4.1895,-4.2382,-4.248,-4.2808,-4.3375,-4.3375,-4.341,-4.3497,-4.3497,-4.3497,-3.7044,-3.6718,-3.6329,-3.6719,-3.5866,-3.5039,-3.5566,0.0,0.0,0.0,0.0,-3.8879,-3.8592,0.0,0.0,0.0,0.0,0.0,0.0,0.0,0.0,0.0,0.0,0.0,0.0,0.0,0.0,0.0,0.0,-3.5504,-3.5504,-3.5504,-3.5504,-3.5504,-3.5504,-3.5504,-3.5504,-3.5504,-3.5668,-3.6054,-3.5668,-3.5733,-3.6054,-3.6054,-3.629,-3.66,-3.7024,0.0,-3.8414,-3.8745,-3.8941,-3.9074,-3.9817,-3.9631,-3.9089,-3.9817,-3.9834,-3.9563,-3.9952,-3.9834,-3.9462,-3.9106,-3.9478,-4.0171,-4.0417,-4.0497,-4.0546,-4.0814,-4.0908,-4.0861,-4.0546,-4.0497,-4.0417,-4.0171,-4.007,-4.007,-4.007,-3.9512,-3.8886,-3.8497,-3.8848,-3.8846,-3.7871,-3.8842,-3.9416,-3.842,-3.7963,-3.7586,-3.7192,-3.6732,-3.6333,-3.6054,-3.614,-3.6911,-3.8599,-3.9076,-3.9886,-4.1288,-4.1621,-4.181,-4.181,-4.2121,-4.2382,-4.2693,-4.2976,-4.325,-4.3497,-4.3497,-4.3497,-4.3497,-4.3497,-4.3497,-3.866,-3.8035,-3.7012,-3.7012,-3.6082,-3.5229,-3.54,-3.6018,0.0,0.0,0.0,-3.8319,-3.8897,0.0,0.0,0.0,0.0,0.0,0.0,0.0,0.0,0.0,0.0,0.0,0.0,0.0,0.0,0.0,0.0,0.0,-3.5504,-3.5504,-3.5504,-3.5504,-3.5504,-3.5504,-3.5504,-3.5504,-3.5894,-3.66,-3.6006,-3.6117,-3.6859,-3.6859,-3.6964,-3.7128,-3.779,0.0,-3.9139,-3.9139,-3.9458,-3.9868,-4.002,-3.9631,-3.9089,-3.9817,-3.9715,-3.9309,-3.9884,-3.9698,-3.9191,-3.9039,-3.9377,-3.9834,-3.9834,-3.9952,-4.007,-4.007,-4.007,-4.007,-4.007,-4.007,-4.007,-4.007,-4.007,-4.007,-4.007,-3.9512,-3.887,-3.8447,-3.8538,-3.8498,-3.7929,-3.8883,-3.9514,-3.8701,-3.8745,-3.8616,-3.7999,-3.7805,-3.757,-3.7132,-3.7103,-3.7854,-3.9628,-3.9997,-4.0707,-4.1943,-4.2103,-4.2185,-4.2185,-4.2637,-4.2864,-4.2864,-4.3304,-4.3497,-4.3497,-4.3497,-4.3497,-4.3497,-4.3497,-4.3497,-3.7107,-3.6934,-3.6738,-3.6738,-3.6099,-3.5652,-3.6383,0.0,0.0,0.0,-3.8621,-3.8934,-3.8773,-3.8113,0.0,0.0,0.0,0.0,0.0,0.0,0.0,0.0,0.0,0.0,0.0,0.0,0.0,0.0,0.0,0.0,-3.5504,-3.5504,-3.5504,-3.5504,-3.5504,-3.5504,-3.5504,-3.5504,-3.5894,-3.6615,-3.6554,-3.6919,-3.769,-3.769,-3.8076,-3.8674,-3.8745,0.0,0.0,-4.002,-3.9631,-3.9157,-3.9817,-3.9631,-3.9089,-3.9817,-4.0037,-3.9986,-4.0054,-4.0037,-3.9868,-3.9208,-3.9039,-3.9089,-3.9089,-3.9546,-4.007,-4.007,-4.007,-4.007,-4.007,-4.007,-4.007,-4.007,-4.007,-4.007,-4.007,-3.9512,-3.9174,-3.9766,-3.9376,-3.895,-3.8882,-3.9527,-3.9739,-3.8743,-3.924,-3.9573,-3.937,-3.9372,-3.9359,-3.9319,-3.8691,-3.8881,-4.0471,-4.1032,-4.1715,-4.2562,-4.3087,-4.3356,-4.3356,-4.341,-4.341,-4.341,-4.3479,-4.3497,-4.3497,-4.3497,-4.3497,-4.3497,-4.3497,-4.3497,-3.743,-3.7142,-3.6699,-3.6699,-3.6103,-3.5676,-3.6323,0.0,0.0,0.0,-3.8488,-3.8815,-3.8719,-3.8432,-3.8322,0.0,0.0,0.0,0.0,0.0,0.0,0.0,0.0,0.0,0.0,0.0,0.0,0.0,0.0,0.0,-3.5504,-3.5504,-3.5733,-3.6165,-3.6165,-3.6415,-3.689,-3.689,-3.7279,-3.7987,-3.7541,-3.7732,-3.8469,-3.8469,-3.8635,-3.8908,-3.942,0.0,0.0,-4.007,-3.9918,-3.9681,-3.9969,-3.9631,-3.9089,-3.9817,-3.98,-3.9478,-3.9935,-3.9783,-3.9377,-3.9089,-3.8988,-3.8988,-3.8988,-3.9512,-4.007,-4.007,-4.007,-4.007,-4.007,-4.007,-4.007,-4.007,-4.007,-4.007,-4.007,-3.9512,-3.9089,-3.9377,-3.9191,-3.9117,-3.9431,-4.0079,-4.059,-4.0534,-4.0671,-4.0744,-4.0638,-4.0545,-4.069,-4.1162,-4.0352,-4.017,-4.1109,-4.1823,-4.2502,-4.3142,-4.3375,-4.3497,-4.3497,-4.3497,-4.3497,-4.3497,-4.3497,-4.3497,-4.3497,-4.3497,-4.3497,-4.3497,-4.3497,-4.3497,-3.737,-3.6903,-3.6213,-3.6131,-3.5741,-3.5573,0.0,0.0,0.0,-3.8082,-3.8496,-3.8707,-3.8707,-3.8707,-3.8707,0.0,0.0,0.0,0.0,0.0,0.0,0.0,0.0,0.0,0.0,0.0,0.0,0.0,0.0,0.0,-3.5504,-3.5504,-3.5846,-3.6554,-3.6843,-3.7219,-3.7806,-3.7573,-3.7946,-3.8908,-3.8149,-3.8318,-3.9262,-3.9262,-3.9262,-3.9315,-3.9833,0.0,0.0,-4.007,-4.007,-4.007,-4.007,-3.9631,-3.9089,-3.9817,-3.9614,-3.9106,-3.9817,-3.9732,-3.9276,-3.9056,-3.914,-3.9276,-3.9056,-3.9512,-4.007,-4.007,-4.007,-4.007,-4.007,-4.007,-4.007,-4.007,-4.007,-4.007,-4.007,-3.9681,-3.9326,-3.9326,-3.9423,-3.9679,-4.0078,-4.0694,-4.127,-4.1641,-4.1758,-4.1756,-4.1687,-4.1752,-4.2029,-4.2598,-4.1977,-4.1677,-4.2069,-4.2595,-4.3105,-4.3497,-4.3497,-4.3497,-4.3497,-4.3497,-4.3497,-4.3497,-4.3497,-4.3497,-4.3497,-4.3497,-4.3497,-4.3497,-4.3497,-4.3497,-3.6425,-3.5834,-3.5053,-3.4793,-3.4908,-3.5435,0.0,0.0,0.0,-3.8763,-3.8865,-3.8707,-3.8707,-3.8707,-3.8707,-3.8707,0.0,0.0,0.0,0.0,0.0,0.0,0.0,0.0,0.0,0.0,0.0,0.0,0.0,0.0,-3.5504,-3.5504,-3.5846,-3.6554,-3.7397,-3.7806,-3.7822,-3.7024,-3.735,-3.8908,-3.8149,-3.8596,-4.007,-4.007,-4.007,-4.007,0.0,0.0,0.0,-4.007,-4.007,-4.007,-4.007,-3.9631,-3.9089,-3.9817,-3.9614,-3.9106,-3.9817,-4.007,-3.9952,-3.9225,-3.9478,-3.9935,-3.9208,-3.9512,-4.007,-4.007,-4.007,-4.007,-4.007,-4.007,-4.007,-4.007,-4.007,-4.007,-4.007,-4.007,-4.007,-4.007,-4.0528,-4.0886,-4.0903,-4.1402,-4.1695,-4.1425,-4.2152,-4.2612,-4.2328,-4.2983,-4.3461,-4.3479,-4.3479,-4.3479,-4.3479,-4.3479,-4.3479,-4.3497,-4.3497,-4.3497,-4.3497,-4.3497,-4.3497,-4.3497,-4.3497,-4.3497,-4.3497,-4.3497,-4.3497,-4.3497,-4.3497,-4.3497,-3.6885,-3.6287,-3.5625,-3.5524,-3.5565,-3.5849,-3.6649,0.0,0.0,-3.8652,-3.8762,-3.8578,-3.8216,-3.8132,-3.7884,-3.7001,0.0,0.0,0.0,0.0,0.0,0.0,0.0,0.0,0.0,0.0,0.0,0.0,0.0,0.0,-3.5504,-3.6006,-3.6384,-3.66,-3.6843,-3.7263,-3.7806,-3.7573,-3.7905,-3.8908,-3.8635,-3.9102,-4.007,-4.007,-4.007,0.0,0.0,0.0,0.0,-4.007,-4.007,-4.007,-4.007,-3.9935,-3.9698,-3.9428,-3.9512,-3.9698,-3.9428,-3.9665,-4.0037,-3.9817,-3.9884,-4.0037,-3.98,-3.9884,-4.007,-4.007,-4.007,-4.007,-4.007,-4.007,-4.007,-4.007,-4.007,-4.007,-4.007,-4.0368,-4.0655,-4.0655,-4.1105,-4.1664,-4.208,-4.2302,-4.2508,-4.2795,-4.3067,-4.3212,-4.3149,-4.3332,-4.3497,-4.3497,-4.3497,-4.3497,-4.3497,-4.3497,-4.3497,-4.3497,-4.3497,-4.3497,-4.3497,-4.3497,-4.3497,-4.3497,-4.3497,-4.3497,-4.3497,-4.3497,-4.3497,-4.3497,-4.3497,-4.3497,0.0,-3.6662,-3.5912,-3.6029,-3.6143,0.0,0.0,0.0,0.0,0.0,0.0,-3.8234,-3.7738,-3.7649,-3.7381,-3.6574,0.0,0.0,0.0,0.0,0.0,0.0,0.0,0.0,0.0,0.0,0.0,0.0,0.0,0.0,-3.5504,-3.5958,-3.6165,-3.6165,-3.6737,-3.7279,-3.7822,-3.7515,-3.7905,-3.8908,-3.8342,-3.8745,-4.007,-3.9782,-3.9782,0.0,0.0,0.0,0.0,-4.007,-4.007,-4.0054,-3.9766,-3.9495,-3.9208,-3.8751,-3.887,-3.9225,-3.9056,-3.9462,-4.007,-4.007,-4.007,-4.007,-4.007,-4.007,-4.007,-4.007,-4.007,-4.007,-4.007,-4.007,-4.007,-4.007,-4.007,-4.007,-4.007,-4.0528,-4.0903,-4.0903,-4.1578,-4.2262,-4.2616,-4.2864,-4.3142,-4.3444,-4.3497,-4.3497,-4.3497,-4.3497,-4.3497,-4.3497,-4.3497,-4.3497,-4.3497,-4.3497,-4.3497,-4.3497,-4.3497,-4.3497,-4.3497,-4.3497,-4.3497,-4.3497,-4.3497,-4.3497,-4.3497,-4.3497,-4.3497,-4.3497,-4.3497,-4.3497,0.0,0.0,0.0,0.0,0.0,0.0,0.0,0.0,0.0,0.0,0.0,0.0,0.0,0.0,0.0,0.0,0.0,0.0,0.0,0.0,0.0,0.0,0.0,0.0,0.0,0.0,0.0,0.0,0.0,0.0,-3.5504,-3.5504,-3.5504,-3.5504,-3.689,-3.7648,-3.7648,-3.6919,-3.7247,-3.8728,-3.7291,-3.7758,-3.9901,-3.9139,-3.9229,0.0,0.0,0.0,-3.9935,-3.9986,-3.9969,-3.9868,-3.9292,-3.8633,-3.799,-3.799,-3.8024,-3.8159,-3.8768,-3.9462,-4.007,-4.007,-4.007,-4.007,-4.007,-4.007,-4.007,-4.007,-4.007,-4.007,-4.007,-4.007,-4.007,-4.007,-4.007,-4.0121,-4.0171,-4.0577,-4.0995,-4.1041,-4.1979,-4.275,-4.275,-4.3178,-4.3497,-4.3497,-4.3497,-4.3497,-4.3497,-4.3497,-4.3497,-4.3497,-4.3497,-4.3497,-4.3497,-4.3497,-4.3497,-4.3497,-4.3497,-4.3497,-4.3497,-4.3497,-4.3497,-4.3497,-4.3497,-4.3497,-4.3497,-4.3497,-4.3497,-4.3497,-4.3552,-4.3589,0.0,0.0,0.0,0.0,0.0,0.0,0.0,0.0,0.0,0.0,0.0,0.0,0.0,0.0,0.0,0.0,0.0,0.0,0.0,0.0,0.0,0.0,0.0,0.0,0.0,0.0,0.0,0.0,0.0,-3.5504,-3.5504,-3.5504,-3.5504,-3.5504,-3.5861,-3.6022,-3.6022,-3.5846,-3.6228,-3.7128,-3.6783,-3.7203,-3.8318,-3.8149,-3.8176,0.0,0.0,-3.8371,-3.8464,-3.9022,-3.892,-3.8514,-3.9462,-3.9377,-3.8734,-3.8734,-3.9089,-3.9512,-3.9123,-3.9462,-4.007,-4.007,-4.007,-4.007,-4.007,-4.007,-4.007,-4.007,-4.007,-4.007,-4.007,-4.007,-4.007,-4.007,-4.007,-4.0204,-4.0607,-4.1178,-4.1725,-4.2162,-4.2846,-4.3286,-4.3286,-4.341,-4.3497,-4.3497,-4.3497,-4.3497,-4.3497,-4.3497,-4.3497,-4.3497,-4.3497,-4.3497,-4.3497,-4.3497,-4.3497,-4.3497,-4.3497,-4.3497,-4.3497,-4.3497,-4.3497,-4.3497,-4.3497,-4.3497,-4.3497,-4.3497,-4.3497,-4.3497,-4.4121,-4.4415,0.0,0.0,0.0,0.0,0.0,0.0,0.0,0.0,0.0,0.0,0.0,0.0,0.0,0.0,0.0,0.0,0.0,0.0,0.0,0.0,0.0,0.0,0.0,0.0,0.0,0.0,0.0,0.0,0.0,-3.4986,-3.5504,-3.5504,-3.5504,-3.5504,-3.5504,-3.5504,-3.5504,-3.5504,-3.5894,-3.6615,-3.6275,-3.6692,-3.7822,-3.7822,-3.7818,0.0,0.0,-3.7919,-3.7891,-3.7653,-3.7668,-3.7887,-3.7996,-3.8025,-3.789,-3.756,-3.789,-3.8487,-3.8055,-3.8454,-3.9049,-3.9049,-3.9049,-3.9119,-3.9437,-3.9542,-3.961,-4.002,-4.007,-4.007,-4.007,-4.007,-4.007,-4.007,-4.007,-4.0154,-4.0449,-4.0967,-4.1578,-4.2162,-4.2752,-4.3214,-4.3444,-4.3497,-4.3497,-4.3497,-4.3497,-4.3497,-4.3497,-4.3497,-4.3497,-4.3497,-4.3497,-4.3497,-4.3497,-4.3497,-4.3497,-4.3497,-4.3497,-4.3497,-4.3497,-4.3497,-4.3497,-4.3497,-4.3497,-4.3497,-4.3497,-4.3864,-4.4048,-4.4066,-4.4874,-4.5259,0.0,0.0,0.0,0.0,0.0,0.0,0.0,0.0,0.0,0.0,0.0,0.0,0.0,0.0,0.0,0.0,0.0,0.0,0.0,0.0,0.0,0.0,0.0,0.0,0.0,0.0,0.0,0.0,0.0,-3.461,-3.5424,-3.5504,-3.5504,-3.5504,-3.5504,-3.5504,-3.5504,-3.5504,-3.5846,-3.6446,-3.5782,-3.6258,-3.7632,-3.7515,-3.7472,-3.7478,0.0,0.0,-3.73,-3.6234,-3.6481,-3.7376,-3.6393,-3.6318,-3.663,-3.6111,-3.6358,-3.6853,-3.6853,-3.7253,-3.7822,-3.7822,-3.7822,-3.7921,-3.869,-3.8908,-3.9086,-3.9885,-4.007,-4.007,-4.007,-4.007,-4.007,-4.007,-4.007,-4.0121,-4.0204,-4.0577,-4.1087,-4.1664,-4.2203,-4.2732,-4.3286,-4.3375,-4.341,-4.3497,-4.3497,-4.3497,-4.3497,-4.3497,-4.3497,-4.3497,-4.3497,-4.3497,-4.3497,-4.3497,-4.3497,-4.3497,-4.3497,-4.3497,-4.3497,-4.3497,-4.3497,-4.3497,-4.3608,-4.3681,-4.3681,-4.4488,-4.4909,-4.4998,-4.5736,-4.614,-3.6011,0.0,0.0,0.0,0.0,0.0,0.0,0.0,0.0,0.0,0.0,0.0,0.0,0.0,0.0,0.0,0.0,0.0,0.0,0.0,0.0,0.0,0.0,0.0,0.0,0.0,0.0,0.0,0.0,-3.5359,-3.5504,-3.5504,-3.5504,-3.5504,-3.5504,-3.5504,-3.5504,-3.5504,-3.5554,-3.5668,-3.5554,-3.5958,-3.6737,-3.6133,-3.5904,-3.5979,0.0,-3.5055,-3.511,-3.5562,-3.5828,-3.6053,-3.707,-3.7182,-3.6757,-3.7253,-3.7508,-3.7646,-3.7646,-3.7726,-3.7822,-3.7822,-3.7822,-3.7921,-3.869,-3.8908,-3.9086,-3.9885,-4.007,-4.007,-4.007,-4.007,-4.007,-4.007,-4.007,-4.0204,-4.0703,-4.0856,-4.1087,-4.1664,-4.1895,-4.2121,-4.2732,-4.2826,-4.2976,-4.3444,-4.3497,-4.3497,-4.3497,-4.3497,-4.3497,-4.3497,-4.3497,-4.3497,-4.3497,-4.3497,-4.3497,-4.3497,-4.3497,-4.3497,-4.3497,-4.3497,-4.3497,-4.3497,-4.4176,-4.4525,-4.4525,-4.5314,-4.5877,-4.6225,-4.6689,-4.7268,-3.6045,-3.491,0.0,0.0,0.0,0.0,0.0,0.0,0.0,0.0,0.0,0.0,0.0,0.0,0.0,0.0,0.0,0.0,0.0,0.0,0.0,0.0,0.0,0.0,0.0,0.0,0.0,0.0,0.0,0.0,-3.5439,-3.5504,-3.5504,-3.5504,-3.5504,-3.5504,-3.5504,-3.5504,-3.5504,-3.5504,-3.5504,-3.5668,-3.6006,-3.6054,-3.5962,-3.5632,0.0,-3.5133,-3.5121,-3.4704,-3.4934,-3.5556,-3.59,-3.6013,-3.6106,-3.643,-3.6554,-3.6554,-3.6554,-3.6554,-3.66,-3.704,-3.7144,-3.7381,-3.8564,-3.8908,-3.9086,-3.9885,-4.007,-4.007,-4.007,-4.007,-4.007,-4.007,-4.007,-4.0171,-4.04,-4.0449,-4.0625,-4.1223,-4.1331,-4.1656,-4.2537,-4.2711,-4.2902,-4.341,-4.3497,-4.3497,-4.3497,-4.3497,-4.3497,-4.3497,-4.3497,-4.3497,-4.3497,-4.3497,-4.3497,-4.3497,-4.3497,-4.3497,-4.3497,-4.4136,-4.4471,-4.4471,-4.5475,-4.601,-4.601,-4.6813,-4.7299,-4.7481,-4.8109,-4.8578,-3.5994,-3.4981,0.0,0.0,0.0,0.0,0.0,0.0,0.0,0.0,0.0,0.0,0.0,0.0,0.0,0.0,0.0,0.0,0.0,0.0,0.0,0.0,0.0,0.0,0.0,0.0,0.0,0.0,0.0,0.0,-3.5439,-3.5504,-3.5504,-3.5504,-3.5504,-3.5504,-3.5504,-3.5504,-3.5504,-3.5504,-3.5504,-3.5619,-3.5782,-3.6165,-3.6007,-3.5371,-3.5202,-3.5102,-3.5032,-3.3949,-3.4364,-3.5675,-3.4997,-3.5153,-3.5782,-3.5782,-3.591,-3.6022,-3.6022,-3.6022,-3.6133,-3.6692,-3.6843,-3.7128,-3.8509,-3.8908,-3.9086,-3.9885,-4.007,-4.007,-4.007,-4.007,-4.007,-4.007,-4.007,-4.007,-4.007,-4.007,-4.0204,-4.0607,-4.0767,-4.1139,-4.2302,-4.248,-4.2714,-4.341,-4.3497,-4.3497,-4.3497,-4.3497,-4.3497,-4.3497,-4.3497,-4.3497,-4.3497,-4.3497,-4.3497,-4.3497,-4.3497,-4.3497,-4.3497,-4.4461,-4.5072,-4.5307,-4.6478,-4.7181,-4.7389,-4.8192,-4.8644,-4.8745,-4.9278,-4.9589,-3.5842,-3.466,0.0,0.0,0.0,0.0,0.0,0.0,0.0,0.0,0.0,0.0,0.0,0.0,0.0,0.0,0.0,0.0,0.0,0.0,0.0,0.0,0.0,0.0,0.0,0.0,0.0,0.0,0.0,0.0,-3.5504,-3.5504,-3.5504,-3.5504,-3.5504,-3.5504,-3.5504,-3.5504,-3.5504,-3.5504,-3.5504,-3.5831,-3.6492,-3.5894,-3.5292,-3.469,-3.4,-3.3683,-3.3653,-3.3531,-3.4683,-3.643,-3.5706,-3.5849,-3.6492,-3.6492,-3.698,-3.7648,-3.7648,-3.7648,-3.7632,-3.7706,-3.769,-3.7863,-3.8635,-3.8908,-3.9086,-3.9885,-4.007,-4.007,-4.007,-4.007,-4.007,-4.007,-4.007,-4.007,-4.007,-4.007,-4.0121,-4.0171,-4.0171,-4.0514,-4.1682,-4.1853,-4.2226,-4.3321,-4.3497,-4.3497,-4.3497,-4.3497,-4.3497,-4.3497,-4.3497,-4.3497,-4.3497,-4.3497,-4.3497,-4.3497,-4.3497,-4.3497,-4.3497,-4.3892,-4.4463,-4.5289,-4.6431,-4.7391,-4.8211,-4.9013,-4.9597,-4.9948,-4.9654,-4.9898,-3.5825,-3.458,0.0,0.0,0.0,0.0,0.0,0.0,0.0,0.0,0.0,0.0,0.0,0.0,0.0,0.0,0.0,0.0,0.0,0.0,0.0,0.0,0.0,0.0,0.0,0.0,0.0,0.0,0.0,0.0,-3.5504,-3.5504,-3.5504,-3.5504,-3.5504,-3.5504,-3.5504,-3.5504,-3.5504,-3.5504,-3.5504,-3.5668,-3.5894,-3.5619,-3.5629,-3.5916,-3.5058,-3.5279,-3.611,-3.5671,-3.6236,-3.7338,-3.7055,-3.7115,-3.7338,-3.7338,-3.7515,-3.7822,-3.7822,-3.7822,-3.7863,-3.8358,-3.8469,-3.8635,-3.9437,-3.9662,-3.9714,-4.002,-4.007,-4.007,-4.007,-4.007,-4.007,-4.007,-4.007,-4.007,-4.007,-4.007,-4.007,-4.007,-4.007,-4.0336,-4.1087,-4.1223,-4.1647,-4.2846,-4.3014,-4.3142,-4.3444,-4.3497,-4.3497,-4.3497,-4.3497,-4.3497,-4.3497,-4.3497,-4.3497,-4.3497,-4.3497,-4.3597,-4.3804,-4.5167,-4.594,-4.5925,-4.8143,-4.9201,-4.8987,-4.9828,-5.0336,-5.0483,-5.0313,-5.0421,-3.5402,-3.4397,0.0,0.0,0.0,0.0,0.0,0.0,0.0,0.0,0.0,0.0,0.0,0.0,0.0,0.0,0.0,0.0,0.0,0.0,0.0,0.0,0.0,0.0,0.0,0.0,0.0,0.0,0.0,0.0,0.0,-3.5175,-3.5175,-3.5175,-3.4981,-3.4966,-3.5175,-3.4981,-3.4876,-3.4876,-3.5311,-3.5522,-3.5504,-3.5718,-3.6045,-3.6337,-3.5786,-3.619,-3.7052,-3.6339,-3.6582,-3.7454,-3.7456,-3.7745,-3.8117,-3.7907,-3.8124,-3.8557,-3.8557,-3.8557,-3.8596,-3.9086,-3.9262,-3.9368,-3.9952,-4.007,-4.007,-4.007,-4.007,-4.007,-4.007,-4.007,-4.007,-4.007,-4.007,-4.007,-4.007,-4.007,-4.007,-4.007,-4.007,-4.0286,-4.0827,-4.0903,-4.1313,-4.2519,-4.2711,-4.2902,-4.3444,-4.3497,-4.3589,-4.3846,-4.3644,-4.3589,-4.3864,-4.3883,-4.3934,-4.4066,-4.4306,-4.4439,-4.4407,-4.5978,-4.6928,-4.7121,-4.895,-4.9856,-4.9798,-5.0414,-5.0702,-5.0702,-5.0702,-5.0702,-3.4506,0.0,0.0,0.0,0.0,0.0,0.0,0.0,0.0,0.0,0.0,0.0,0.0,0.0,0.0,0.0,0.0,0.0,0.0,0.0,0.0,0.0,0.0,0.0,0.0,0.0,0.0,0.0,0.0,0.0,0.0,-3.4472,-3.4472,-3.4472,-3.3844,-3.3814,-3.4472,-3.3829,-3.3499,-3.3514,-3.494,-3.5569,-3.5554,-3.6275,-3.6243,-3.5605,-3.5665,-3.5694,-3.5646,-3.4942,-3.5486,-3.6726,-3.6734,-3.7587,-3.8809,-3.8064,-3.8768,-4.007,-4.007,-4.007,-4.007,-4.007,-4.007,-4.007,-4.007,-4.007,-4.007,-4.007,-4.007,-4.007,-4.007,-4.0121,-4.0138,-4.007,-4.007,-4.007,-4.007,-4.0121,-4.0121,-4.0121,-4.0121,-4.0286,-4.0827,-4.0903,-4.1313,-4.2519,-4.2711,-4.2902,-4.3444,-4.3497,-4.3809,-4.4617,-4.3993,-4.3846,-4.4654,-4.4709,-4.4881,-4.5295,-4.6059,-4.6153,-4.5345,-4.5969,-4.714,-4.8838,-4.8373,-4.8971,-5.0683,-5.0702,-5.0702,-5.0702,-5.0702,-5.0702,-3.5436,0.0,0.0,0.0,0.0,0.0,0.0,0.0,0.0,0.0,0.0,0.0,0.0,0.0,0.0,0.0,0.0,0.0,0.0,0.0,0.0,0.0,0.0,0.0,0.0,0.0,0.0,0.0,0.0,0.0,0.0,-3.3784,-3.3784,-3.3784,-3.3589,-3.3814,-3.4472,-3.3829,-3.3954,-3.4926,-3.4842,-3.5058,-3.5585,-3.688,-3.7348,-3.7145,-3.6645,-3.6732,-3.722,-3.7003,-3.7469,-3.8302,-3.8305,-3.8589,-3.9009,-3.9294,-3.9716,-4.007,-4.007,-4.007,-4.007,-4.007,-4.007,-4.007,-4.007,-4.007,-4.007,-4.007,-4.007,-4.007,-4.007,-4.0368,-4.0577,-4.0204,-4.007,-4.007,-4.007,-4.0417,-4.0655,-4.0655,-4.103,-4.1331,-4.149,-4.1534,-4.181,-4.2577,-4.2711,-4.2902,-4.3444,-4.3993,-4.4452,-4.4672,-4.4984,-4.5278,-4.5516,-4.5796,-4.6025,-4.6134,-4.7419,-4.7517,-4.6057,-4.7372,-4.7936,-4.7511,-4.9106,-4.9875,-4.9779,-5.0394,-5.0702,-5.0702,-5.0702,-5.0702,0.0,0.0,0.0,0.0,0.0,0.0,0.0,0.0,0.0,0.0,0.0,0.0,0.0,0.0,0.0,0.0,0.0,0.0,0.0,0.0,0.0,0.0,0.0,0.0,0.0,0.0,0.0,0.0,0.0,0.0,0.0,-3.3095,-3.3095,-3.3095,-3.2856,-3.3036,-3.3694,-3.3036,-3.3126,-3.392,-3.4359,-3.4823,-3.532,-3.6694,-3.734,-3.7324,-3.6937,-3.6831,-3.6992,-3.6992,-3.7449,-3.8108,-3.8108,-3.8481,-3.9039,-3.9478,-3.9834,-4.007,-4.007,-4.007,-4.007,-4.007,-4.007,-4.007,-4.007,-4.007,-4.007,-4.007,-4.007,-4.0171,-4.0368,-4.0655,-4.078,-4.0254,-4.0434,-4.072,-4.0449,-4.0891,-4.1268,-4.1268,-4.1534,-4.181,-4.181,-4.181,-4.1979,-4.2616,-4.2902,-4.3124,-4.3444,-4.4195,-4.4837,-4.5149,-4.5608,-4.603,-4.6361,-4.6765,-4.7037,-4.7203,-4.8579,-4.8827,-4.758,-4.8539,-4.887,-4.8432,-4.9567,-5.0087,-4.9913,-5.0433,-5.0702,-5.0702,-5.0702,-5.0702,0.0,0.0,0.0,0.0,0.0,0.0,0.0,0.0,0.0,0.0,0.0,0.0,0.0,0.0,0.0,0.0,0.0,0.0,0.0,0.0,0.0,0.0,0.0,0.0,0.0,0.0,0.0,0.0,0.0,0.0,0.0,-3.2422,-3.2422,-3.2422,-3.1839,-3.1795,-3.2497,-3.1869,-3.1554,-3.173,-3.3591,-3.4558,-3.4732,-3.6133,-3.6785,-3.6736,-3.6723,-3.6315,-3.5723,-3.5656,-3.6113,-3.6874,-3.6874,-3.7753,-3.9005,-3.9073,-3.9512,-4.007,-4.007,-4.007,-4.007,-4.007,-4.007,-4.007,-4.007,-4.007,-4.007,-4.007,-4.0121,-4.0286,-4.078,-4.0995,-4.092,-4.0368,-4.103,-4.1664,-4.1087,-4.1446,-4.1895,-4.1895,-4.1937,-4.1961,-4.1961,-4.1961,-4.2144,-4.2693,-4.3178,-4.3497,-4.3497,-4.4268,-4.5094,-4.5882,-4.6084,-4.647,-4.7243,-4.7683,-4.8047,-4.8428,-4.9531,-4.995,-4.9548,-4.951,-4.9856,-5.0567,-4.9875,-4.9913,-5.0702,-5.0702,-5.0702,-5.0702,-5.0779,-5.0798,0.0,0.0,0.0,0.0,0.0,0.0,0.0,0.0,0.0,0.0,0.0,0.0,0.0,0.0,0.0,0.0,0.0,0.0,0.0,0.0,0.0,0.0,0.0,0.0,0.0,0.0,0.0,0.0,0.0,0.0,-3.1749,-3.1749,-3.1749,-3.1749,-3.1556,-3.1795,-3.2497,-3.1869,-3.2053,0.0,-3.3084,-3.3614,-3.471,-3.6734,-3.736,-3.6754,-3.6151,-3.6129,-3.6485,-3.5876,-3.6434,-3.7669,-3.7669,-3.821,-3.9056,-3.9631,-3.9935,-4.007,-4.007,-4.007,-4.007,-4.007,-4.007,-4.007,-4.007,-4.007,-4.007,-4.007,-4.0417,-4.0733,-4.0856,-4.1621,-4.2162,-4.1595,-4.1639,-4.175,-4.1621,-4.208,-4.2519,-4.2519,-4.2846,-4.3142,-4.3142,-4.3142,-4.3196,-4.3286,-4.341,-4.3497,-4.3497,-4.4745,-4.5825,-4.6312,-4.7497,-4.8449,-4.894,-4.9353,-4.9613,-4.9708,-5.0262,-5.0527,-5.0414,-5.0414,-5.0183,-4.9683,-5.0164,-5.051,-5.0702,-5.0702,-5.0702,-5.0721,-5.1356,-5.1645,0.0,0.0,0.0,0.0,0.0,0.0,0.0,0.0,0.0,0.0,0.0,0.0,0.0,0.0,0.0,0.0,0.0,0.0,0.0,0.0,0.0,0.0,0.0,0.0,0.0,0.0,0.0,0.0,0.0,-3.1482,-3.1482,-3.1482,-3.1482,-3.1482,-3.1482,-3.1704,-3.2033,-3.1646,-3.1847,-3.2551,-3.2592,-3.3287,-3.4657,-3.6139,-3.6603,-3.6197,-3.5791,-3.5859,-3.6197,-3.5791,-3.6315,-3.7398,-3.777,-3.8345,-3.9089,-3.9817,-4.007,-4.007,-4.007,-4.007,-4.007,-4.007,-4.007,-4.007,-4.007,-4.007,-4.007,-4.007,-4.0497,-4.0949,-4.1268,-4.2021,-4.2693,-4.2619,-4.26,-4.2523,-4.2302,-4.2675,-4.3087,-4.3087,-4.3286,-4.3497,-4.3497,-4.3497,-4.3497,-4.3497,-4.3828,-4.397,-4.3781,-4.5515,-4.6758,-4.6724,-4.8227,-4.9265,-4.9475,-4.9872,-5.0092,-5.0092,-5.0483,-5.0702,-5.0702,-5.0702,-5.0491,-5.0029,-5.0471,-5.0702,-5.0702,-5.0702,-5.0894,-5.1279,-5.1702,-5.2125,0.0,0.0,0.0,0.0,0.0,0.0,0.0,0.0,0.0,0.0,0.0,0.0,0.0,0.0,0.0,0.0,0.0,0.0,0.0,0.0,0.0,0.0,0.0,0.0,0.0,0.0,0.0,0.0,0.0,-3.1482,-3.1482,-3.1482,-3.1482,-3.1482,-3.1482,-3.1482,-3.1482,-3.1482,-3.1482,-3.1539,-3.2367,-3.3339,-3.4431,-3.5253,-3.5622,-3.5622,-3.5622,-3.5622,-3.5622,-3.5622,-3.6146,-3.7043,-3.7492,-3.8201,-3.9076,-3.9682,-3.9901,-3.9901,-4.007,-4.007,-4.007,-4.007,-4.0171,-4.0254,-4.0254,-4.0303,-4.0385,-4.0385,-4.0797,-4.1313,-4.1853,-4.2382,-4.2939,-4.341,-4.3497,-4.3375,-4.2939,-4.3178,-4.3497,-4.3497,-4.3497,-4.3497,-4.3497,-4.3497,-4.3513,-4.3563,-4.4134,-4.4506,-4.4337,-4.6228,-4.7522,-4.7351,-4.8682,-4.9617,-4.9719,-4.9999,-5.0206,-5.0206,-5.0523,-5.0702,-5.0702,-5.0702,-5.0702,-5.0702,-5.0702,-5.0702,-5.0702,-5.0702,-5.1029,-5.1702,-5.1991,-5.2433,0.0,0.0,0.0,0.0,0.0,0.0,0.0,0.0,0.0,0.0,0.0,0.0,0.0,0.0,0.0,0.0,0.0,0.0,0.0,0.0,0.0,0.0,0.0,0.0,0.0,0.0,0.0,0.0,-3.1482,-3.1482,-3.1482,-3.1482,-3.1482,-3.1482,-3.1482,-3.1482,-3.1482,-3.1482,-3.1482,-3.1539,-3.2826,-3.3531,-3.3786,-3.5021,-3.5622,-3.5622,-3.5622,-3.5622,-3.5622,-3.5622,-3.6468,-3.7706,-3.707,-3.7694,-3.8954,-3.9036,-3.9086,-3.9139,-3.985,-4.007,-4.007,-4.007,-4.04,-4.078,-4.0879,-4.1213,-4.1578,-4.1578,-4.1997,-4.248,-4.2577,-4.2958,-4.341,-4.3479,-4.3497,-4.3479,-4.341,-4.3444,-4.3497,-4.3497,-4.3497,-4.3497,-4.3497,-4.3497,-4.3597,-4.3881,-4.4017,-4.4449,-4.5434,-4.6468,-4.7492,-4.8533,-4.9472,-5.0159,-5.0504,-5.0604,-5.0624,-5.0624,-5.0663,-5.0702,-5.0702,-5.0702,-5.0702,-5.0702,-5.0702,-5.0702,-5.0702,-5.0702,-5.076,-5.0894,-5.2356,-5.2683,0.0,0.0,0.0,0.0,0.0,0.0,0.0,0.0,0.0,0.0,0.0,0.0,0.0,0.0,0.0,0.0,0.0,0.0,0.0,0.0,0.0,0.0,0.0,0.0,0.0,0.0,0.0,0.0,-3.1315,-3.1482,-3.1482,-3.1482,-3.1697,-3.212,-3.1668,-3.1842,-3.2664,-3.2253,-3.1905,-3.1555,-3.2472,-3.2757,-3.2463,-3.4205,-3.5216,-3.5622,-3.5622,-3.5362,-3.5052,-3.5052,-3.5477,-3.6122,-3.6137,-3.6794,-3.7845,-3.8597,-3.8908,-3.9032,-3.9833,-4.007,-4.007,-4.007,-4.0175,-4.032,-4.0799,-4.1033,-4.122,-4.1687,-4.2244,-4.2711,-4.2711,-4.3105,-4.3497,-4.3497,-4.3497,-4.3497,-4.3497,-4.3497,-4.3497,-4.3497,-4.3497,-4.3497,-4.3497,-4.3646,-4.3836,-4.3986,-4.4942,-4.5772,-4.6044,-4.765,-4.8857,-4.9135,-4.9944,-5.0504,-5.0683,-5.0702,-5.0702,-5.0702,-5.0702,-5.0702,-5.0702,-5.0702,-5.0702,-5.0702,-5.0702,-5.0702,-5.0702,-5.0702,-5.0933,-5.1395,-5.2626,-5.326,0.0,0.0,0.0,0.0,0.0,0.0,0.0,0.0,0.0,0.0,0.0,0.0,0.0,0.0,0.0,0.0,0.0,0.0,0.0,0.0,0.0,0.0,0.0,0.0,0.0,0.0,0.0,0.0,-3.1186,-3.1566,-3.1734,-3.1582,-3.1827,-3.2538,-3.1836,-3.1954,-3.3054,-3.2508,-3.2003,-3.156,-3.211,-3.2275,-3.2046,-3.3746,-3.4912,-3.5622,-3.5622,-3.5207,-3.4576,-3.4576,-3.4659,-3.4771,-3.5422,-3.6181,-3.6982,-3.8357,-3.8908,-3.9032,-3.9833,-4.007,-4.007,-4.007,-4.0041,-4.013,-4.0913,-4.1129,-4.1291,-4.2024,-4.2541,-4.2902,-4.2902,-4.3214,-4.3497,-4.3497,-4.3497,-4.3497,-4.3497,-4.3497,-4.3497,-4.3497,-4.3497,-4.3497,-4.3497,-4.3772,-4.4028,-4.4146,-4.5687,-4.6803,-4.6768,-4.8605,-4.9879,-4.974,-5.0298,-5.0702,-5.0702,-5.0702,-5.0702,-5.0702,-5.0702,-5.0702,-5.0702,-5.0702,-5.0798,-5.0991,-5.0991,-5.0991,-5.0991,-5.0991,-5.1433,-5.226,-5.3126,-5.376,0.0,0.0,0.0,0.0,0.0,0.0,0.0,0.0,0.0,0.0,0.0,0.0,0.0,0.0,0.0,0.0,0.0,0.0,0.0,0.0,0.0,0.0,0.0,0.0,0.0,0.0,0.0,0.0,-3.1404,-3.1706,-3.244,-3.1785,-3.1722,-3.2506,-3.1787,-3.1437,-3.1517,-3.1485,-3.1453,-3.1405,-3.2101,-3.2722,-3.3425,-3.4175,-3.4912,-3.5622,-3.5622,-3.5207,-3.4576,-3.4576,-3.4659,-3.4771,-3.5422,-3.6181,-3.6982,-3.8357,-3.8908,-3.9032,-3.9833,-4.007,-4.007,-4.007,-4.0414,-4.0943,-4.1578,-4.2144,-4.2734,-4.3267,-4.3444,-4.3444,-4.3444,-4.3479,-4.3497,-4.3497,-4.3497,-4.3497,-4.3497,-4.3497,-4.3497,-4.3497,-4.3497,-4.3497,-4.3497,-4.3772,-4.4117,-4.4501,-4.5575,-4.6729,-4.7857,-4.8837,-4.974,-5.0548,-5.0664,-5.0702,-5.0702,-5.0702,-5.0702,-5.0702,-5.0702,-5.0702,-5.0702,-5.0702,-5.1048,-5.1837,-5.1856,-5.1856,-5.1856,-5.1856,-5.2279,-5.3145,-5.403,-5.401,0.0,0.0,0.0,0.0,0.0,0.0,0.0,0.0,0.0,0.0,0.0,0.0,0.0,0.0,0.0,0.0,0.0,0.0,0.0,0.0,0.0,0.0,0.0,0.0,0.0,0.0,0.0,0.0,0.0,-3.1517,-3.1772,-3.1533,-3.171,-3.2413,-3.173,-3.152,-3.1978,-3.1978,-3.1786,-3.1414,-3.1573,-3.1824,-3.2199,-3.3285,-3.395,-3.4293,-3.5222,-3.4958,-3.3987,-3.3987,-3.3742,-3.348,-3.459,-3.5438,-3.6252,-3.7687,-3.8179,-3.8286,-3.9093,-3.9377,-3.9309,-3.8836,-3.9029,-3.9537,-4.014,-4.0724,-4.1361,-4.2425,-4.3094,-4.3497,-4.3497,-4.3497,-4.3497,-4.3497,-4.3497,-4.3582,-4.3772,-4.3646,-4.3563,-4.3772,-4.4294,-4.4575,-4.4277,-4.4896,-4.5539,-4.568,-4.6713,-4.7818,-4.8798,-4.9702,-5.0337,-5.0664,-5.0702,-5.0702,-5.0702,-5.0702,-5.0702,-5.0702,-5.0702,-5.0702,-5.0702,-5.1202,-5.1606,-5.1895,-5.2452,-5.2741,-5.2741,-5.2741,-5.2895,-5.3222,-5.4087,-5.4337,0.0,0.0,0.0,0.0,0.0,0.0,0.0,0.0,0.0,0.0,0.0,0.0,0.0,0.0,0.0,0.0,0.0,0.0,0.0,0.0,0.0,0.0,0.0,0.0,0.0,0.0,0.0,0.0,0.0,0.0,-3.1678,-3.1482,-3.1548,-3.1978,-3.1497,-3.1458,-3.1918,-3.1918,-3.1722,-3.1316,-3.1234,-3.152,-3.2107,-3.2984,-3.3698,-3.4259,-3.4944,-3.464,-3.3633,-3.3836,-3.3531,-3.3065,-3.4418,-3.5295,-3.5849,-3.7296,-3.7834,-3.7902,-3.8452,-3.8633,-3.8582,-3.8345,-3.8495,-3.8922,-3.9975,-4.0495,-4.1065,-4.2335,-4.3075,-4.3497,-4.3497,-4.3497,-4.3497,-4.3497,-4.3497,-4.3563,-4.3772,-4.3758,-4.3772,-4.4136,-4.4878,-4.5387,-4.5063,-4.5979,-4.674,-4.674,-4.7758,-4.8759,-4.9336,-5.0164,-5.0702,-5.0702,-5.0702,-5.0702,-5.0702,-5.0702,-5.0702,-5.0702,-5.0952,-5.1106,-5.1106,-5.1895,-5.2472,-5.2779,-5.3337,-5.378,-5.4049,-5.378,-5.378,-5.4049,-5.4626,-5.4895,0.0,0.0,0.0,0.0,0.0,0.0,0.0,0.0,0.0,0.0,0.0,0.0,0.0,0.0,0.0,0.0,0.0,0.0,0.0,0.0,0.0,0.0,0.0,0.0,0.0,0.0,0.0,0.0,-3.0091,-3.0717,-3.2178,-3.1562,-3.119,-3.1157,-3.119,-3.119,-3.119,-3.119,-3.1207,-3.1224,-3.1224,-3.2002,-3.344,-3.3423,-3.4201,-3.5481,-3.4861,-3.4203,-3.3652,-3.4317,-3.4235,-3.3764,-3.5168,-3.5712,-3.5927,-3.7328,-3.7872,-3.7872,-3.7872,-3.7872,-3.799,-3.87,-3.8937,-3.9299,-4.1165,-4.1757,-4.2009,-4.3141,-4.3461,-4.3497,-4.3497,-4.3497,-4.3497,-4.3497,-4.3497,-4.3479,-4.3513,-4.3772,-4.4117,-4.4527,-4.5285,-4.5833,-4.584,-4.6839,-4.7659,-4.7659,-4.864,-4.9413,-4.9433,-5.0183,-5.0702,-5.0702,-5.0702,-5.0702,-5.0702,-5.0721,-5.0741,-5.0741,-5.1491,-5.1952,-5.1952,-5.2779,-5.3645,-5.4472,-5.4511,-5.4934,-5.5742,-5.4934,-5.4934,-5.5703,-5.5722,-5.5761,-3.745,0.0,0.0,0.0,0.0,0.0,0.0,0.0,0.0,0.0,0.0,0.0,0.0,0.0,0.0,0.0,0.0,0.0,0.0,0.0,0.0,0.0,0.0,0.0,0.0,0.0,0.0,0.0,-2.9482,-3.0294,-3.0683,-3.1021,-3.0954,-3.0429,-3.092,-3.119,-3.119,-3.119,-3.1461,-3.1985,-3.1985,-3.2763,-3.4167,-3.3643,-3.3638,-3.4114,-3.4404,-3.416,-3.3566,-3.4314,-3.4479,-3.4399,-3.5285,-3.5954,-3.6538,-3.6962,-3.7094,-3.7094,-3.7094,-3.7094,-3.7127,-3.733,-3.777,-3.8448,-3.9743,-4.0559,-4.1248,-4.2338,-4.3039,-4.3497,-4.3497,-4.3497,-4.3497,-4.3497,-4.3497,-4.3582,-4.3804,-4.3924,-4.4117,-4.4527,-4.5757,-4.6708,-4.6619,-4.7873,-4.8893,-4.8893,-4.9183,-4.9625,-5.026,-5.0548,-5.0702,-5.0702,-5.0702,-5.0702,-5.0702,-5.1221,-5.1568,-5.1568,-5.2375,-5.2837,-5.2837,-5.3683,-5.4241,-5.4491,-5.5068,-5.578,-5.6626,-5.578,-5.5472,-5.5722,-5.6338,-5.728,0.0,0.0,0.0,0.0,0.0,0.0,0.0,-3.5685,0.0,0.0,0.0,0.0,0.0,0.0,0.0,0.0,0.0,0.0,0.0,0.0,0.0,0.0,0.0,0.0,0.0,-2.8286,-2.8433,-2.8755,-2.96,-3.0243,-3.0548,-3.097,-3.1004,-3.0581,-3.097,-3.119,-3.119,-3.119,-3.1562,-3.2313,-3.1968,-3.2594,-3.4015,-3.3271,-3.3152,-3.3473,-3.3886,-3.3967,-3.3939,-3.4355,-3.4722,-3.5052,-3.547,-3.5893,-3.6299,-3.6299,-3.6299,-3.6349,-3.6671,-3.6939,-3.7233,-3.7849,-3.8511,-3.9267,-4.0458,-4.1167,-4.1722,-4.2556,-4.313,-4.3497,-4.3497,-4.3497,-4.3497,-4.3497,-4.3497,-4.3529,-4.3758,-4.405,-4.4445,-4.5001,-4.6172,-4.7155,-4.7404,-4.856,-4.9438,-4.9438,-4.9438,-4.9629,-5.0126,-5.0183,-5.0183,-5.0183,-5.0488,-5.0765,-5.0941,-5.1705,-5.2248,-5.2432,-5.3587,-5.4241,-5.4241,-5.5434,-5.5915,-5.5549,-5.6357,-5.703,-5.753,-5.6665,-5.6434,-5.6799,-5.73,-5.8069,0.0,0.0,0.0,0.0,0.0,0.0,-3.6116,-3.5331,-3.4582,0.0,0.0,0.0,0.0,0.0,0.0,0.0,0.0,0.0,0.0,0.0,0.0,0.0,0.0,0.0,-2.9989,-2.9364,-2.9262,-2.9939,-3.0057,-3.0429,-3.1157,-3.1275,-3.1275,-3.119,-3.1275,-3.1275,-3.119,-3.119,-3.1562,-3.2273,-3.163,-3.2053,-3.3372,-3.2628,-3.2645,-3.3271,-3.3187,-3.3601,-3.4252,-3.4378,-3.4884,-3.5622,-3.5622,-3.5622,-3.5622,-3.5622,-3.5673,-3.5859,-3.6535,-3.7182,-3.7863,-3.9254,-4.0088,-4.0784,-4.2189,-4.2616,-4.2732,-4.3321,-4.3497,-4.3497,-4.3497,-4.3497,-4.3497,-4.3497,-4.3497,-4.3516,-4.3608,-4.4195,-4.497,-4.579,-4.6563,-4.7316,-4.806,-4.8909,-4.9504,-4.9504,-4.9504,-4.9541,-4.9636,-4.9636,-4.9673,-4.9768,-5.0398,-5.0979,-5.1332,-5.217,-5.287,-5.3305,-5.4806,-5.575,-5.5823,-5.732,-5.7805,-5.7082,-5.797,-5.8434,-5.8434,-5.7569,-5.7588,-5.8434,-5.8434,-5.8492,0.0,0.0,0.0,0.0,0.0,0.0,-3.359,-3.3336,-3.3358,0.0,0.0,0.0,0.0,0.0,0.0,0.0,0.0,0.0,0.0,0.0,0.0,0.0,0.0,0.0,-2.9262,-2.9059,-2.9042,-2.9194,-2.977,-3.0429,-3.1157,-3.1749,-3.1799,-3.1207,-3.1765,-3.1782,-3.1207,-3.119,-3.1562,-3.2313,-3.2138,-3.2544,-3.3372,-3.2628,-3.2357,-3.2493,-3.1983,-3.2152,-3.2797,-3.3512,-3.4492,-3.5622,-3.5622,-3.5622,-3.5622,-3.5622,-3.6011,-3.6569,-3.6721,-3.7254,-3.7993,-3.8877,-3.9245,-3.9679,-4.1453,-4.1979,-4.2185,-4.3196,-4.3497,-4.3497,-4.3497,-4.3497,-4.3497,-4.3497,-4.3497,-4.3663,-4.4323,-4.4599,-4.513,-4.6577,-4.7218,-4.7685,-4.8116,-4.8909,-4.9504,-4.9504,-4.9504,-4.9749,-5.038,-5.0474,-5.07,-5.1379,-5.1586,-5.1711,-5.1771,-5.2594,-5.3399,-5.4122,-5.5136,-5.5989,-5.6639,-5.698,-5.7279,-5.7477,-5.8659,-5.9281,-5.9261,-5.8454,-5.8473,-5.9281,-5.9281,-5.9646,0.0,0.0,0.0,-3.5332,0.0,0.0,0.0,-3.3055,-3.3003,0.0,0.0,0.0,0.0,0.0,0.0,0.0,0.0,0.0,0.0,0.0,0.0,0.0,0.0,0.0,-3.1949,-3.1731,-3.1579,-3.1579,-3.1686,-3.2021,-3.2676,-3.2791,-3.2679,-3.2307,-3.229,-3.2104,-3.1732,-3.1376,-3.1562,-3.2313,-3.1918,-3.2121,-3.2814,-3.1791,-3.1274,-3.1274,-3.0647,-3.0931,-3.1892,-3.2713,-3.3834,-3.5098,-3.547,-3.5622,-3.5673,-3.6062,-3.6451,-3.6891,-3.7618,-3.8091,-3.8459,-3.9572,-3.991,-4.0085,-4.1392,-4.2021,-4.2422,-4.3267,-4.3497,-4.3497,-4.3497,-4.3497,-4.3589,-4.3993,-4.4103,-4.4323,-4.5131,-4.5626,-4.6269,-4.748,-4.82,-4.8564,-4.8289,-4.8617,-4.9064,-4.9493,-4.9548,-4.9846,-5.065,-5.0743,-5.0892,-5.1301,-5.1711,-5.2041,-5.2244,-5.3387,-5.4371,-5.5004,-5.6206,-5.7173,-5.7832,-5.8249,-5.8728,-5.9211,-5.9403,-5.9704,-6.0146,-5.9742,-5.9742,-6.0146,-6.0146,-6.0377,0.0,0.0,0.0,0.0,0.0,-3.3654,0.0,0.0,0.0,0.0,0.0,0.0,0.0,0.0,0.0,0.0,0.0,0.0,0.0,0.0,0.0,0.0,0.0,0.0,0.0,-3.4547,-3.4321,-3.4321,-3.395,-3.39,-3.4411,-3.399,-3.3735,-3.3626,-3.2882,-3.2425,-3.2313,-3.1562,-3.1495,-3.207,-3.1478,-3.1455,-3.1873,-3.0784,-3.0251,-3.0123,-2.9629,-3.0085,-3.1259,-3.2133,-3.3217,-3.437,-3.5267,-3.5622,-3.569,-3.6315,-3.6654,-3.6958,-3.8142,-3.8675,-3.895,-4.0129,-4.0637,-4.0877,-4.1573,-4.2203,-4.2826,-4.3339,-4.3497,-4.3534,-4.3681,-4.3718,-4.392,-4.4745,-4.4947,-4.5149,-4.5957,-4.6764,-4.759,-4.8398,-4.9242,-4.9609,-4.8912,-4.8783,-4.9022,-4.9719,-4.9811,-5.0105,-5.093,-5.1041,-5.1096,-5.1261,-5.1848,-5.2383,-5.2698,-5.4054,-5.5175,-5.5789,-5.7197,-5.8268,-5.8889,-5.9693,-6.0264,-6.0666,-6.0065,-6.0108,-6.08,-6.08,-6.08,-6.08,-6.08,-6.08,0.0,0.0,0.0,0.0,-3.2581,0.0,0.0,0.0,0.0,0.0,0.0,0.0,0.0,0.0,0.0,0.0,0.0,0.0,0.0,0.0,0.0,0.0,0.0,0.0,0.0,-3.4836,-3.4836,-3.4836,-3.4765,-3.4865,-3.5139,-3.5111,-3.4885,-3.4414,-3.366,-3.2949,-3.233,-3.1562,-3.1241,-3.1309,-3.1241,-3.0969,-3.0509,-3.0384,-3.0038,-2.9496,-2.9406,-2.981,-3.0523,-3.1935,-3.2917,-3.366,-3.5081,-3.5622,-3.5639,-3.5723,-3.618,-3.6806,-3.6975,-3.7868,-3.8967,-3.9137,-3.9993,-4.0965,-4.1603,-4.2203,-4.2826,-4.3339,-4.3497,-4.3644,-4.4378,-4.4562,-4.4782,-4.5571,-4.5755,-4.5975,-4.6801,-4.7609,-4.8416,-4.926,-5.0105,-5.0637,-5.0527,-5.0527,-5.0545,-5.0655,-5.0655,-5.0949,-5.1756,-5.1848,-5.2142,-5.2858,-5.3023,-5.3059,-5.3143,-5.3952,-5.4958,-5.6145,-5.7078,-5.8091,-5.9288,-5.9828,-6.0132,-6.0161,-6.0482,-6.0704,-6.08,-6.08,-6.08,-6.08,-6.08,-6.08,0.0,0.0,0.0,0.0,0.0,0.0,-3.1461,0.0,-3.1698,0.0,0.0,0.0,0.0,0.0,0.0,0.0,0.0,0.0,0.0,0.0,0.0,0.0,0.0,0.0,0.0,0.0,0.0,0.0,-3.6324,-3.6535,-3.6788,-3.6274,-3.5825,-3.5616,-3.4168,-3.3254,-3.2933,-3.1782,-3.119,-3.119,-3.0838,-3.0576,-3.0293,-2.9585,-2.9134,-2.8873,-2.8873,-2.9225,-2.9918,-3.1769,-3.284,-3.3558,-3.503,-3.5622,-3.5673,-3.6129,-3.6502,-3.6907,-3.777,-3.8193,-3.843,-3.8853,-3.9642,-4.0546,-4.1087,-4.1446,-4.1839,-4.2884,-4.3149,-4.3328,-4.4096,-4.4294,-4.4574,-4.5787,-4.643,-4.7113,-4.8284,-4.9187,-4.9994,-5.082,-5.1261,-5.1646,-5.2123,-5.1426,-5.0967,-5.1426,-5.1499,-5.1793,-5.2601,-5.2711,-5.2839,-5.317,-5.3206,-5.339,-5.3867,-5.4638,-5.5631,-5.6925,-5.8253,-5.9252,-5.9804,-6.0264,-6.0508,-6.0508,-6.069,-6.08,-6.08,-6.08,-6.08,-6.08,-6.08,-6.08,-3.3203,0.0,0.0,0.0,0.0,0.0,0.0,0.0,0.0,0.0,0.0,0.0,0.0,0.0,0.0,0.0,0.0,0.0,0.0,0.0,0.0,0.0,0.0,0.0,0.0,0.0,0.0,-3.7243,-3.7504,-3.7672,-3.7505,-3.6786,-3.6333,-3.6182,-3.4568,-3.3694,-3.3694,-3.2239,-3.1398,-3.1261,-3.0618,-3.0123,-2.9761,-2.8919,-2.8415,-2.8271,-2.8591,-2.9107,-2.9865,-3.1879,-3.3131,-3.3829,-3.5115,-3.574,-3.6011,-3.6569,-3.6772,-3.6958,-3.8244,-3.8481,-3.8328,-3.9056,-3.9648,-4.0255,-4.1009,-4.1249,-4.1482,-4.2828,-4.3218,-4.3395,-4.4127,-4.4498,-4.4961,-4.6275,-4.7327,-4.8345,-4.9378,-5.0405,-5.1298,-5.1885,-5.2179,-5.2509,-5.3115,-5.2234,-5.1665,-5.2234,-5.2325,-5.2546,-5.3133,-5.3206,-5.3298,-5.3518,-5.3537,-5.3849,-5.4656,-5.5464,-5.6479,-5.7742,-5.9137,-5.9916,-5.9916,-6.0236,-6.0482,-6.0622,-6.0622,-6.0666,-6.08,-6.08,-6.08,-6.08,-6.08,-6.08,0.0,0.0,0.0,-3.141,0.0,0.0,0.0,0.0,-3.2273,0.0,0.0,0.0,0.0,0.0,-3.3643,-3.4336,0.0,0.0,0.0,0.0,0.0,0.0,0.0,0.0,0.0,0.0,0.0,-3.7243,-3.7877,-3.773,-3.6492,-3.6416,-3.6182,-3.5667,-3.4861,-3.4455,-3.4455,-3.2983,-3.1959,-3.1401,-3.0665,-2.9673,-2.8559,-2.8511,-2.8189,-2.771,-2.8857,-2.979,-3.0647,-3.2567,-3.3812,-3.4539,-3.5318,-3.6079,-3.6738,-3.6772,-3.6772,-3.6891,-3.7669,-3.8396,-3.9089,-3.98,-4.0054,-4.0357,-4.1633,-4.205,-4.2332,-4.3592,-4.3986,-4.4163,-4.4968,-4.5717,-4.6512,-4.7338,-4.8626,-4.9631,-4.9694,-5.0903,-5.1958,-5.1977,-5.2637,-5.3188,-5.3206,-5.317,-5.3133,-5.317,-5.317,-5.3188,-5.3206,-5.3206,-5.35,-5.4289,-5.4363,-5.4693,-5.5482,-5.6308,-5.7327,-5.8579,-5.9139,-5.9424,-5.9424,-5.9424,-5.9677,-6.0132,-6.0132,-6.0338,-6.08,-6.08,-6.08,-6.08,-6.08,-6.08,0.0,0.0,-3.2134,-3.099,0.0,0.0,0.0,0.0,0.0,0.0,0.0,0.0,0.0,0.0,-3.506,-3.5668,-3.5911,0.0,0.0,0.0,0.0,0.0,0.0,0.0,0.0,0.0,0.0,-3.6753,-3.7341,-3.7755,-3.7654,-3.7311,-3.7033,-3.6861,-3.5783,-3.4996,-3.4489,-3.3508,-3.2681,-3.1993,-3.0926,-2.9974,-2.9058,-2.8713,-2.8728,-2.8996,-3.0244,-3.1191,-3.1941,-3.3477,-3.4556,-3.5318,-3.6079,-3.6857,-3.7466,-3.6958,-3.7094,-3.7635,-3.8362,-3.9428,-4.0493,-4.0747,-4.1153,-4.1628,-4.2074,-4.221,-4.2398,-4.3323,-4.3975,-4.4542,-4.535,-4.6394,-4.737,-4.7631,-4.9159,-5.057,-5.0506,-5.1697,-5.2803,-5.2803,-5.3023,-5.3206,-5.3206,-5.3206,-5.3206,-5.3206,-5.3665,-5.3995,-5.3995,-5.4454,-5.4876,-5.517,-5.5188,-5.5519,-5.6326,-5.7414,-5.8229,-5.8676,-5.9158,-5.9389,-5.9389,-5.9389,-5.9458,-5.9644,-5.9644,-5.9709,-5.9885,-5.9885,-5.9885,-5.9885,-5.9885,-6.0208,-3.2215,-3.2273,0.0,-3.107,-3.1605,0.0,-3.0909,0.0,0.0,0.0,0.0,0.0,0.0,0.0,-3.5783,-3.6291,-3.658,-3.6865,0.0,-3.6825,0.0,0.0,0.0,0.0,0.0,0.0,-3.6964,-3.6148,-3.68,-3.7387,0.0,-3.7431,-3.735,-3.7624,-3.6854,-3.6197,-3.5707,-3.4692,-3.3862,-3.3125,-3.1839,-3.0852,-3.0158,-2.9589,-2.9689,-3.0368,-3.1134,-3.2205,-3.335,-3.4454,-3.5504,-3.6485,-3.6992,-3.7635,-3.8227,-3.7753,-3.821,-3.914,-3.9614,-4.0578,-4.1593,-4.1593,-4.1914,-4.2388,-4.2946,-4.3098,-4.3318,-4.4333,-4.4976,-4.5483,-4.5974,-4.6988,-4.7825,-4.7786,-4.9468,-5.1036,-5.0988,-5.2146,-5.3206,-5.3206,-5.3206,-5.3298,-5.3592,-5.3628,-5.3537,-5.3243,-5.3885,-5.4399,-5.4399,-5.5097,-5.5702,-5.5996,-5.6033,-5.6345,-5.7171,-5.7987,-5.8442,-5.8442,-5.8735,-5.8913,-5.8913,-5.8913,-5.9252,-5.9985,-5.944,-5.9513,-6.0241,-5.9691,-5.9559,-5.9842,-5.9842,-6.0316]}]]